GFSNGP_sfc_temp_000.txt.gz
Temp
37 39 40 40 41 41 40 38 35 37 37 42 41 40 41 42 42 42 42 43 43 42 41 44 44 42 42 40 40 40 39 38 38 37 37 37 36 36 36 36 39 36 35 34
34 38 37 37 41 40 39 40 39 37 38 42 42 41 41 42 42 41 42 44 45 44 46 44 42 41 41 40 40 40 38 38 38 38 37 36 35 35 35 38 34 33 33 33
29 32 32 30 38 40 39 40 40 34 42 40 39 41 42 40 42 42 43 46 45 46 44 43 41 41 40 40 40 38 38 38 38 37 36 35 35 34 34 33 33 33 32 32
24 25 22 40 42 43 42 42 42 40 41 42 42 41 43 43 42 41 43 45 44 43 42 41 40 40 39 38 38 37 37 37 37 36 35 34 33 33 33 33 32 30 29 29
24 23 33 40 41 40 40 41 42 42 40 41 40 41 41 44 43 43 43 43 44 43 42 40 39 39 38 37 37 37 37 36 36 35 34 33 33 32 32 32 31 30 31 29
19 20 21 37 42 46 45 34 43 43 40 39 40 31 42 43 43 43 44 44 44 42 41 39 39 38 37 37 36 35 36 36 36 35 33 32 32 31 31 30 31 31 29 27
17 17 29 40 45 47 34 37 42 43 42 38 38 41 42 41 42 43 44 43 42 41 39 39 38 38 36 35 35 36 36 35 35 34 33 32 31 30 30 28 28 25 26 25
22 17 26 44 44 38 43 40 42 42 42 42 41 41 42 44 41 42 41 41 40 39 39 38 38 36 34 33 36 35 35 34 33 33 33 34 30 29 28 26 25 22 15 18
33 32 42 45 44 46 45 44 43 42 43 45 40 42 44 40 42 40 41 40 39 39 38 38 37 35 33 34 34 33 32 32 33 33 33 32 29 27 26 24 20 20 23 16
36 43 43 45 47 47 46 45 45 44 44 44 42 42 40 39 39 39 39 39 38 37 35 35 35 35 33 33 33 31 31 31 31 31 32 31 31 30 27 20 19 23 20 20
36 42 42 46 46 47 46 45 44 44 44 44 42 39 41 40 39 39 39 38 37 36 34 34 34 33 33 32 31 30 31 31 30 29 29 31 30 29 28 27 25 21 20 19
35 46 45 45 48 46 45 45 44 44 42 41 41 41 41 39 39 38 37 36 36 35 33 33 32 30 30 31 30 29 31 34 30 31 32 30 30 30 33 33 32 32 31 21
45 45 45 46 45 46 45 44 44 43 41 42 43 42 40 38 37 37 36 36 34 33 32 31 29 29 30 30 30 31 32 33 33 31 31 28 26 25 22 25 32 33 33 33
47 44 43 43 45 44 45 44 44 43 44 42 40 39 37 37 37 36 35 35 34 32 31 30 30 30 32 32 31 32 32 31 30 29 27 28 26 25 23 17 16 18 25 30
46 46 44 44 42 41 42 42 40 39 39 37 38 37 36 35 35 35 35 34 33 31 30 30 30 31 32 31 31 32 32 31 29 27 18 20 21 20 21 20 20 18 15 19
42 43 43 40 40 40 40 38 35 33 33 36 37 34 36 36 35 34 34 33 28 28 30 24 24 30 31 31 32 33 33 30 28 27 25 19 18 22 22 20 21 19 15 16
39 38 37 35 35 37 36 36 35 35 37 36 35 33 35 32 29 32 31 27 23 23 24 23 26 30 31 31 32 33 33 31 27 22 26 28 25 20 20 18 22 20 17 12
40 40 40 39 37 35 34 36 36 35 34 35 31 27 25 23 27 27 24 22 18 22 25 27 27 29 30 31 32 30 31 30 28 27 27 26 26 23 19 17 18 20 21 12
39 37 38 38 38 36 35 33 31 32 27 26 25 26 26 25 22 24 20 17 18 21 28 26 28 27 31 32 30 30 30 29 28 26 26 22 15 18 18 15 17 19 20 19
38 38 37 35 33 31 31 29 29 31 32 27 24 22 24 25 19 17 20 25 26 28 26 27 26 26 29 31 31 30 31 31 29 25 24 19 16 16 17 16 18 20 20 20
35 33 31 31 30 28 28 28 26 28 28 23 23 25 23 25 22 29 28 27 28 25 27 24 25 27 29 32 31 32 32 32 29 26 25 24 25 24 24 23 24 23 23 23
34 30 29 28 26 28 27 25 26 26 25 23 21 22 20 25 25 23 28 31 33 28 25 24 25 25 28 31 31 32 32 32 31 29 28 28 27 27 27 26 26 26 26 25
33 31 29 26 26 28 27 25 23 23 22 23 24 24 22 27 24 25 30 29 29 25 24 25 29 30 30 29 32 32 32 32 31 31 29 29 29 29 28 28 28 28 27 27
30 33 29 26 24 26 29 31 28 26 21 24 24 23 22 25 28 27 30 31 27 32 31 31 31 31 27 32 32 32 31 31 30 30 29 28 29 29 28 28 27 28 28 28
28 29 27 27 27 28 28 29 27 27 28 29 30 31 28 25 30 33 33 32 30 31 31 29 29 30 26 25 19 24 23 26 25 25 26 27 28 28 27 27 27 27 28 28
29 28 27 28 28 28 27 28 28 30 31 30 31 32 31 29 27 26 29 30 29 31 31 31 22 20 19 15 12 11 12 15 12 11 10 12 13 15 18 21 26 28 28 28
29 29 28 27 27 28 26 26 25 26 27 28 29 31 31 32 32 32 32 33 33 30 25 22 18 16 14 13 12 10 9 9 8 8 6 7 8 8 9 10 11 16 25 28

GFSNGP_sfc_temp_003.txt.gz
Temp
43 43 46 48 46 46 46 46 43 46 44 51 53 51 49 49 49 49 49 49 49 49 51 52 50 51 51 50 50 49 49 48 48 47 47 47 46 45 45 45 45 44 44 44
40 42 42 43 47 46 45 45 45 45 46 54 51 50 47 48 48 48 49 50 50 50 51 51 51 51 50 49 49 48 47 47 48 46 46 46 45 44 44 45 45 44 43 42
36 37 38 37 42 46 45 47 49 43 52 49 47 47 49 48 49 49 50 51 51 50 51 51 51 50 50 50 49 47 46 47 46 45 45 45 44 44 44 44 44 43 41 41
35 31 33 48 49 49 47 48 49 48 49 50 50 49 51 53 50 49 50 51 51 52 52 52 52 50 49 49 47 46 46 46 46 45 44 44 43 43 43 44 43 43 41 40
34 34 39 47 45 45 45 49 51 50 50 47 46 49 50 52 52 53 52 52 53 54 53 51 51 50 48 47 46 45 45 46 46 45 44 43 43 43 43 42 42 41 40 38
31 33 31 44 49 51 52 42 52 50 47 44 48 43 53 52 52 51 52 52 51 51 50 49 49 48 46 46 45 45 45 46 46 45 44 43 43 43 42 42 41 40 36 36
26 33 37 46 50 52 41 45 49 49 48 45 47 52 52 50 48 52 51 48 46 48 48 49 48 46 45 45 44 45 45 44 45 45 43 43 43 42 41 40 38 35 33 34
27 30 33 48 50 44 51 50 50 49 49 47 51 48 49 47 47 48 47 46 47 47 47 45 46 45 44 43 45 44 43 43 43 43 42 42 42 41 39 38 36 33 30 31
39 40 48 50 50 52 51 51 52 50 51 50 48 47 47 46 46 46 47 46 47 47 45 45 45 44 43 44 42 41 41 41 41 41 41 41 40 39 37 36 35 33 33 32
40 48 46 48 52 52 54 53 53 52 53 49 49 48 45 44 44 45 46 46 45 44 43 42 43 42 41 40 40 39 38 38 39 39 39 41 40 40 37 35 35 34 34 33
41 46 48 51 51 54 54 51 51 51 51 49 49 46 45 44 41 41 41 40 43 42 41 41 41 40 40 39 38 37 37 38 37 37 38 38 39 39 37 38 38 36 35 34
41 51 51 51 55 54 52 53 53 50 46 46 47 44 44 42 43 41 39 41 40 40 40 39 38 38 38 38 37 36 35 38 37 36 36 37 35 37 34 34 32 33 32 31
52 52 51 52 53 54 52 52 50 48 47 45 45 44 43 40 38 37 40 40 40 40 39 38 37 36 37 37 36 35 35 36 37 34 34 34 34 34 35 35 33 33 34 33
51 50 49 50 51 49 48 45 45 45 44 42 41 41 38 36 36 38 39 40 39 38 37 36 36 35 37 38 37 36 36 33 35 35 36 35 35 34 33 33 32 33 33 32
47 49 49 46 45 44 45 44 41 40 40 40 39 37 36 35 36 38 38 38 37 37 36 36 35 36 38 38 37 36 37 37 35 34 34 33 32 32 33 31 31 31 33 30
44 43 43 41 41 41 41 38 35 35 36 37 36 37 38 38 39 39 37 37 33 34 37 32 30 36 37 37 37 37 37 34 34 35 33 33 33 33 33 33 33 32 32 32
42 38 37 36 36 36 36 38 36 36 37 38 38 37 39 36 33 35 35 32 31 30 31 30 31 37 35 36 36 37 37 36 34 33 33 33 33 33 33 33 32 33 33 32
41 40 40 38 36 35 35 36 37 37 37 39 33 32 32 30 32 32 31 29 27 27 30 32 32 34 35 37 36 35 34 34 33 32 32 32 33 33 33 33 32 31 32 32
40 39 39 38 39 38 37 36 34 34 33 32 31 32 30 30 30 30 29 26 26 28 34 33 32 32 33 34 34 34 33 32 32 32 32 31 31 32 31 31 31 31 31 31
40 40 39 38 35 32 33 32 32 33 33 31 29 30 30 31 29 27 28 27 31 34 33 33 32 32 32 34 32 35 33 32 33 32 32 31 30 30 30 29 30 30 30 31
37 35 33 32 31 31 31 30 29 31 31 28 28 29 28 29 29 27 30 31 35 33 33 30 32 34 36 34 35 33 33 33 33 32 32 31 31 30 30 31 31 30 31 31
37 33 30 29 28 31 29 29 30 29 29 29 27 25 24 28 30 29 29 32 38 32 34 35 35 34 34 32 34 32 33 33 33 33 32 32 31 31 31 31 31 31 31 31
35 33 31 29 29 30 30 30 27 28 27 27 27 28 29 31 32 31 32 37 35 35 34 34 33 32 32 32 32 33 33 32 32 32 33 32 32 31 31 31 31 31 31 31
33 33 31 28 27 29 28 29 29 30 30 31 32 32 30 29 31 34 34 33 34 34 34 34 34 33 32 33 33 33 32 31 28 27 28 28 28 28 29 29 29 30 30 30
30 30 29 28 27 27 28 29 29 30 30 31 31 33 34 34 29 31 32 32 33 33 33 34 34 33 31 29 27 25 24 22 19 19 18 18 18 18 18 18 17 18 20 24
29 29 29 28 27 26 25 25 23 25 25 25 27 29 29 30 31 32 33 33 34 34 33 29 27 25 24 22 21 19 18 17 16 16 15 15 15 15 14 14 14 14 14 15
27 25 25 25 24 22 20 20 18 19 21 21 21 24 24 26 27 28 28 29 31 29 24 22 19 18 18 17 16 15 15 14 12 12 12 12 12 12 12 12 12 13 14 14

GFSNGP_sfc_temp_006.txt.gz
Temp
54 54 55 57 58 57 57 58 51 58 58 65 67 68 69 66 64 63 61 60 61 61 62 63 62 62 61 61 60 60 58 59 57 56 56 55 54 53 53 52 52 53 51 51
48 52 53 52 58 59 59 60 57 60 58 70 69 66 65 62 61 60 60 60 61 62 63 62 62 61 61 60 59 59 58 57 57 55 54 53 53 52 52 52 52 52 51 49
47 47 48 41 52 58 59 62 59 54 63 65 62 62 64 63 61 60 61 61 61 62 62 62 61 61 60 60 59 57 56 56 54 54 52 53 53 53 52 51 52 51 51 49
43 39 35 57 59 58 59 62 64 63 63 64 64 64 64 66 64 61 63 62 63 63 63 60 63 61 62 61 58 56 55 54 54 53 52 53 53 52 52 51 50 50 50 49
39 44 51 59 55 55 54 59 64 63 65 63 59 59 63 64 66 65 64 65 65 65 64 63 61 62 59 57 57 55 53 54 54 53 53 53 52 51 52 51 50 50 49 47
40 38 36 53 57 59 59 52 62 61 61 58 58 52 65 66 65 64 65 65 64 64 63 61 61 59 56 56 55 53 53 53 53 54 52 52 52 51 51 50 49 49 46 45
41 39 48 58 58 59 46 51 62 61 62 59 57 64 64 63 65 65 65 64 63 60 60 59 59 57 54 54 52 53 52 52 53 53 52 52 51 51 50 49 48 44 41 42
39 36 37 58 56 50 59 61 61 62 63 60 63 62 60 59 59 61 62 61 59 58 55 53 56 54 54 52 54 52 51 51 51 50 49 49 49 49 49 47 45 41 35 38
50 53 59 61 62 65 61 60 62 62 65 63 61 62 60 58 58 59 60 59 55 51 50 51 52 53 52 52 50 49 49 48 48 48 47 48 47 47 47 46 43 41 40 39
49 58 59 61 64 64 64 62 65 66 64 63 61 62 60 58 56 56 57 54 52 47 47 45 48 48 49 49 48 47 45 46 46 45 42 45 47 47 46 44 43 41 40 40
52 58 61 62 63 63 65 65 64 65 63 61 60 60 59 55 54 54 47 46 45 43 44 48 48 47 48 46 46 44 44 43 44 43 41 40 41 46 44 46 44 42 42 41
50 63 59 61 64 63 61 63 63 60 60 57 56 56 55 52 50 48 46 41 41 45 43 43 44 45 45 45 43 41 40 42 44 43 42 40 40 40 36 36 34 34 34 34
57 60 59 61 62 60 59 56 57 56 56 53 53 53 49 42 39 38 39 41 44 44 44 42 41 41 43 43 41 39 40 42 42 41 42 41 40 36 37 37 34 34 34 34
57 57 57 56 53 54 53 52 50 51 50 48 46 44 41 37 36 38 39 42 42 41 40 39 40 41 43 42 41 41 41 36 41 43 43 41 40 38 38 36 35 36 34 34
52 55 54 53 50 48 50 51 46 40 38 37 38 37 38 39 42 43 44 43 41 39 40 41 42 43 44 44 44 42 41 43 42 40 39 39 38 39 39 37 35 36 37 33
50 51 49 44 43 42 41 39 37 36 37 37 40 41 44 44 43 42 43 42 36 38 41 37 36 41 45 45 43 43 43 36 35 37 36 37 38 39 38 37 35 36 36 38
47 43 42 41 41 39 37 38 38 38 41 42 43 42 43 42 38 40 40 39 35 33 34 34 36 44 43 42 43 44 44 42 36 39 39 35 35 35 36 36 36 37 37 35
48 46 44 39 38 38 38 41 42 42 41 41 34 33 33 32 34 35 35 34 33 32 34 36 37 40 42 44 43 43 42 41 40 37 38 37 37 37 36 36 36 35 36 36
45 42 43 45 45 43 41 39 35 36 34 34 33 33 33 33 33 34 34 32 32 32 40 40 35 34 39 40 38 41 39 37 35 36 36 35 34 34 34 34 34 34 35 35
46 46 45 43 40 35 36 34 34 38 39 34 32 33 33 34 33 32 32 31 35 39 39 40 38 38 38 40 35 39 37 34 35 35 34 35 33 33 32 32 33 33 33 33
43 40 36 34 34 33 32 32 33 33 36 32 31 31 31 32 33 32 33 39 43 40 40 37 38 41 43 41 41 36 36 34 34 34 33 33 32 32 32 32 32 32 32 33
43 38 34 34 33 34 33 33 33 32 32 31 31 31 31 32 32 33 34 34 40 35 37 37 38 38 39 35 38 35 35 33 34 34 33 33 33 32 33 32 32 32 32 32
40 38 35 32 32 33 32 31 31 31 31 31 31 31 32 32 33 30 30 37 35 34 34 34 34 34 34 33 33 33 32 33 34 32 31 31 32 32 32 32 32 32 31 32
37 35 32 31 31 31 31 33 32 33 31 32 32 31 32 32 32 37 36 35 33 33 33 34 34 33 32 33 33 32 33 32 30 29 28 27 27 27 27 27 27 28 28 28
32 31 31 31 32 32 31 31 32 32 30 31 31 32 31 32 29 31 32 31 31 32 32 32 29 29 29 28 29 29 29 26 25 26 24 23 23 22 23 23 23 23 22 23
32 32 32 30 30 30 29 29 27 29 28 27 28 28 28 29 30 29 29 29 27 27 25 25 22 23 23 23 21 20 22 22 22 21 20 20 20 20 19 20 20 21 21 21
29 29 30 30 29 27 25 25 24 23 24 23 22 25 26 25 25 25 24 24 23 22 22 21 19 17 17 18 16 17 17 18 15 16 16 16 16 16 16 16 16 17 18 19

GFSNGP_sfc_temp_009.txt.gz
Temp
64 63 63 64 64 65 62 62 55 60 64 69 72 73 74 75 74 75 74 72 72 69 69 68 67 66 66 65 64 64 64 64 62 61 60 59 57 56 56 54 55 55 54 53
53 62 61 59 64 65 65 65 65 66 64 75 75 75 73 73 72 71 71 71 70 69 69 67 67 66 65 64 62 63 61 60 61 60 59 57 56 55 55 55 55 55 54 52
49 54 54 44 54 62 65 68 66 58 67 72 69 69 70 72 71 70 70 70 69 69 68 68 68 66 64 63 63 61 61 60 59 58 56 55 56 56 55 54 54 54 53 53
47 41 34 61 67 66 64 68 71 69 70 72 70 71 72 73 72 70 70 70 70 70 69 69 70 67 65 64 62 61 59 58 57 57 56 56 56 55 55 55 54 53 52 52
41 47 56 61 63 61 59 61 69 67 70 71 69 67 69 74 73 72 72 73 72 72 71 70 69 67 63 63 62 59 55 56 57 57 56 56 55 54 55 54 53 53 52 51
46 38 35 56 62 65 65 55 67 67 66 66 66 56 65 71 72 72 73 73 72 72 71 69 67 65 62 60 57 56 57 57 57 57 56 55 54 53 54 54 52 52 51 49
45 41 51 64 64 65 49 53 65 66 67 66 62 66 68 69 69 73 73 73 72 71 69 68 67 64 59 58 56 58 55 55 55 56 55 54 53 53 52 51 51 48 45 46
46 37 37 65 62 53 61 66 67 67 67 65 65 67 69 69 68 69 69 71 68 67 64 65 63 59 54 51 56 55 54 53 53 53 53 52 49 50 50 50 48 46 39 42
55 55 64 67 66 69 68 65 66 66 68 68 66 67 68 68 67 66 67 67 64 60 55 54 54 53 50 49 51 51 51 50 50 50 49 48 48 47 47 49 46 43 41 39
54 64 65 67 70 70 69 67 69 69 68 67 65 66 66 67 64 62 65 62 60 55 51 47 45 45 46 51 50 47 46 46 46 45 45 45 46 48 48 46 44 42 40 40
58 64 66 67 68 68 68 68 68 69 67 66 63 64 65 62 60 60 56 52 51 45 44 44 48 49 47 46 47 45 42 43 44 43 44 46 46 45 44 47 44 42 42 42
52 64 61 64 67 66 64 63 63 62 62 61 61 60 61 57 56 51 47 43 41 42 43 45 46 46 46 46 44 41 40 41 42 44 44 45 44 42 40 38 37 37 35 37
60 64 63 64 64 62 59 58 58 57 57 54 55 53 49 43 42 38 39 41 42 43 46 46 46 42 44 44 42 41 40 41 42 40 44 44 40 37 36 40 36 35 35 35
60 61 60 58 55 57 56 55 51 50 48 47 44 41 38 38 40 40 42 44 47 46 44 43 42 42 45 47 45 42 41 37 43 43 43 41 40 39 38 37 36 37 34 35
56 59 57 56 55 52 51 46 41 39 40 41 43 44 45 45 46 47 49 49 46 44 44 45 45 45 49 46 45 44 44 44 43 42 40 38 39 39 39 37 36 37 38 33
55 55 53 49 47 45 43 42 39 40 44 45 46 46 48 49 49 48 48 47 41 42 45 37 37 44 46 47 47 46 45 39 37 40 39 37 37 37 38 38 37 37 37 37
48 46 47 45 43 42 41 42 44 45 46 46 45 39 41 41 40 45 44 44 37 34 35 36 37 45 45 47 47 46 46 44 37 38 39 38 37 37 38 38 37 37 37 36
52 50 48 45 43 41 43 44 41 40 40 41 33 32 32 32 33 35 36 36 33 34 37 40 41 43 45 47 47 46 45 43 41 38 38 37 37 38 37 37 37 36 37 37
48 47 46 46 46 42 41 40 37 36 33 33 32 31 32 32 34 35 35 33 32 35 44 44 37 37 42 42 40 44 42 39 38 38 37 35 35 37 36 35 35 35 36 35
49 49 47 43 39 38 37 33 34 39 41 34 32 32 32 33 32 32 33 33 37 41 41 40 39 41 42 43 38 42 38 37 38 37 35 37 35 34 34 34 34 33 33 33
44 41 38 35 33 33 33 33 33 32 35 32 31 31 31 33 33 33 33 35 40 38 37 36 37 38 38 37 36 35 35 35 34 35 34 33 33 34 33 34 33 33 33 33
43 37 34 35 34 33 32 33 32 32 32 32 32 32 31 34 34 35 34 35 40 35 36 35 36 36 35 34 35 33 33 34 34 33 33 33 33 33 33 33 32 32 32 32
42 38 34 32 33 33 34 33 32 32 31 31 31 30 31 34 35 32 31 36 35 33 33 34 32 30 30 32 33 33 33 33 33 33 32 31 31 31 30 30 30 30 30 30
38 35 33 33 34 34 34 35 35 34 31 33 32 31 31 30 31 34 34 32 31 29 30 28 27 25 28 29 28 26 25 24 25 29 29 28 28 28 28 28 27 27 27 27
34 34 34 35 36 36 35 35 35 35 33 33 32 33 31 32 29 29 29 28 27 26 26 25 23 22 24 24 23 23 23 22 22 21 23 23 23 23 24 24 24 24 24 25
37 37 35 34 33 34 33 33 30 31 29 29 29 29 29 30 28 27 26 26 25 24 24 23 22 21 20 20 20 19 19 18 16 17 18 19 19 19 19 20 20 20 21 21
33 33 35 34 33 31 29 29 27 26 28 25 24 28 28 26 25 24 24 23 22 22 21 21 21 20 18 18 18 17 17 17 15 15 15 15 16 16 16 16 17 18 18 19

GFSNGP_sfc_temp_012.txt.gz
Temp
63 66 64 63 63 64 61 61 51 57 60 67 71 71 73 74 73 73 73 74 74 72 70 68 66 65 65 63 62 61 58 60 57 56 56 56 53 53 52 51 50 50 49 49
53 62 63 58 63 64 64 64 63 64 62 74 73 73 71 71 73 71 71 73 73 72 69 67 67 65 65 63 61 60 58 57 59 57 57 53 52 51 51 50 50 49 48 48
45 54 52 43 53 59 62 66 65 55 65 72 70 70 69 70 71 70 70 71 71 70 70 68 67 65 63 62 61 59 57 58 57 55 52 51 52 52 50 49 49 48 48 47
43 40 35 58 69 68 63 66 69 69 70 71 67 69 70 72 70 70 70 70 70 69 68 68 68 66 64 64 60 58 57 56 53 52 51 53 52 51 50 49 48 47 47 47
38 43 52 58 64 62 60 59 67 65 66 68 68 68 68 71 71 69 69 69 70 71 69 68 67 67 64 62 60 57 55 52 52 51 53 52 50 49 48 48 47 46 48 46
44 38 35 55 63 67 66 50 66 66 64 64 66 49 59 67 68 68 71 72 71 71 70 68 66 65 61 58 56 53 53 54 53 51 52 50 48 48 47 47 47 47 45 44
43 39 46 64 65 67 47 49 64 65 65 63 59 61 65 68 67 69 70 70 70 69 65 64 64 62 58 55 52 53 52 49 47 50 49 49 47 47 45 44 43 39 37 38
44 35 34 66 63 51 59 65 65 65 65 62 64 65 66 68 68 68 66 67 67 58 55 55 57 57 54 50 49 48 46 45 49 48 49 49 44 43 43 42 39 39 35 35
51 49 63 67 65 69 68 65 64 64 66 66 64 64 66 65 66 64 64 62 57 53 49 50 48 50 45 44 45 45 46 46 45 46 46 45 41 40 40 41 37 36 34 32
54 63 65 67 70 70 69 67 68 68 67 66 63 62 63 64 61 55 57 56 54 50 44 43 44 44 44 45 47 44 42 41 43 41 41 42 43 42 39 36 35 34 33 32
57 62 66 68 66 66 66 66 65 65 63 60 60 61 61 57 55 52 48 48 46 44 43 43 44 44 45 45 44 42 41 40 40 37 39 41 42 40 35 37 35 33 33 33
48 61 59 61 63 63 61 59 60 60 57 57 57 56 51 49 49 46 43 43 42 42 42 43 44 44 45 46 44 40 38 37 37 36 36 39 39 39 39 37 37 37 36 34
59 62 61 61 60 59 56 56 56 54 53 48 49 47 45 41 40 38 40 41 41 43 45 46 46 43 44 43 41 38 37 37 36 35 36 36 35 34 33 36 38 36 35 35
60 60 55 57 53 56 52 50 48 47 46 43 42 42 41 39 41 42 43 46 47 47 45 44 42 42 44 45 43 39 38 36 36 37 37 35 34 34 36 34 34 35 34 34
57 58 55 55 54 49 48 46 43 42 43 43 46 45 46 46 46 47 49 48 46 45 45 45 43 43 46 46 45 40 39 39 38 36 35 34 34 34 34 34 35 34 35 33
55 55 53 49 46 45 45 44 43 43 44 44 43 42 44 45 46 47 48 44 38 37 40 33 33 39 44 45 44 43 42 37 36 38 37 36 35 35 34 34 33 34 33 33
48 45 46 44 43 42 43 44 41 41 41 41 38 34 36 35 38 38 38 37 33 32 33 34 35 42 39 43 44 43 41 41 37 36 36 37 35 34 34 33 34 33 34 34
51 49 47 44 42 42 40 41 39 39 35 36 32 32 31 31 30 32 33 34 33 33 34 37 36 37 40 42 41 39 38 38 39 37 37 35 35 35 34 34 34 33 33 33
48 46 45 44 44 41 38 36 34 33 32 32 32 31 32 32 32 32 32 33 33 34 34 36 34 35 37 37 35 36 35 35 35 36 36 36 34 34 34 34 34 34 33 32
46 45 43 39 37 35 33 33 34 36 34 32 32 32 30 28 30 28 29 31 35 33 35 35 34 34 34 35 33 34 33 32 32 33 32 33 33 34 33 33 33 33 33 32
41 37 34 32 32 32 32 33 32 32 33 30 28 26 26 30 30 28 32 32 33 33 31 31 32 29 29 28 28 31 31 31 31 32 32 32 32 33 32 31 33 32 32 32
38 34 33 33 32 31 32 33 32 30 29 27 25 24 26 30 29 31 28 29 31 27 28 30 26 22 23 23 28 27 27 26 26 29 31 32 32 32 31 30 30 31 32 31
37 34 33 33 32 33 32 31 29 28 26 26 25 27 28 29 31 28 26 30 29 26 27 26 21 19 19 24 23 23 23 21 21 22 23 24 24 25 26 25 25 26 26 25
35 34 33 33 33 34 33 34 35 32 27 30 27 25 28 27 27 30 28 26 24 23 24 24 20 18 20 21 20 19 19 17 16 17 19 19 20 20 21 21 21 21 21 21
34 34 34 34 35 34 34 34 34 33 31 31 30 30 29 30 25 25 25 25 24 23 23 23 20 17 19 19 18 17 17 17 15 15 15 15 16 16 16 16 16 16 17 17
36 35 34 33 32 32 31 31 28 29 28 27 26 27 28 27 26 25 24 23 23 21 21 21 20 19 18 17 17 16 15 15 14 13 13 12 13 13 13 13 14 14 15 15
33 34 34 32 31 30 28 28 26 24 26 23 22 25 26 25 24 23 21 21 20 19 19 19 18 17 16 16 15 14 14 13 12 11 10 10 10 10 11 11 12 13 14 14

GFSNGP_sfc_temp_015.txt.gz
Temp
53 56 58 55 56 56 53 50 41 46 50 56 56 57 58 61 62 62 63 63 63 61 58 62 61 60 58 55 55 55 53 54 53 53 53 52 50 50 49 48 48 48 46 46
42 54 53 49 53 54 54 54 52 53 51 59 61 61 61 61 62 62 62 63 63 61 60 60 58 56 57 55 54 54 54 54 54 52 51 49 49 49 49 48 47 47 45 45
35 44 44 35 46 52 54 56 53 45 54 58 56 58 58 58 61 60 62 62 62 61 59 59 57 58 56 55 54 53 51 53 52 49 48 47 48 49 48 47 46 45 45 45
32 33 26 48 59 59 55 56 56 56 56 56 56 57 58 59 57 58 60 61 61 61 61 59 57 56 54 55 53 51 52 49 48 47 47 48 47 48 46 46 45 44 44 44
31 30 41 50 55 52 50 49 56 53 55 57 58 55 53 59 59 57 58 59 60 60 60 59 57 56 55 52 51 50 48 48 48 46 46 46 45 43 44 44 43 42 43 42
31 28 25 43 55 60 58 38 55 55 54 54 54 36 47 58 59 59 60 59 56 54 54 56 55 54 53 51 49 47 45 45 46 47 46 46 44 43 43 42 43 43 42 40
26 25 35 53 58 58 38 39 54 56 54 53 49 49 55 58 59 59 54 52 51 49 47 47 54 51 47 46 43 45 46 45 45 45 45 44 44 42 41 40 40 36 35 34
32 29 29 58 56 45 47 53 55 54 53 53 54 56 57 58 56 54 49 48 47 43 42 44 46 46 44 42 44 44 44 44 43 44 45 46 41 40 39 38 35 34 31 31
40 36 50 56 55 57 57 55 54 55 55 56 54 54 55 50 50 49 47 44 44 42 41 41 44 44 41 42 44 44 42 42 42 42 43 42 39 38 35 34 30 33 31 30
44 52 55 58 58 59 57 55 56 54 54 54 52 53 49 48 46 44 43 42 42 41 40 40 42 43 42 44 43 41 39 38 39 38 38 38 39 38 35 29 28 29 29 29
47 52 53 54 54 55 55 55 54 52 49 51 49 49 47 43 42 41 41 42 43 41 41 40 41 40 41 40 40 38 38 37 36 33 35 36 37 36 32 33 32 29 28 29
35 52 49 49 52 54 51 50 51 47 45 45 46 43 42 40 40 40 40 39 39 38 38 40 41 40 41 41 39 36 35 33 32 31 31 33 33 33 36 36 36 36 35 32
49 53 51 50 48 48 45 45 45 44 44 41 41 40 38 36 36 37 36 37 38 39 40 39 39 37 39 39 37 35 32 32 30 31 30 30 31 30 28 31 35 36 36 36
53 52 47 49 43 46 44 43 43 42 41 40 38 38 36 35 36 37 38 41 42 41 40 39 38 37 38 39 37 34 33 32 31 31 30 32 31 30 26 26 29 31 33 35
50 51 47 46 44 43 43 42 40 38 40 41 41 40 40 41 42 42 40 40 40 39 37 35 34 34 37 38 38 35 34 31 32 32 32 32 31 31 34 34 31 31 30 27
49 47 45 42 43 43 41 39 40 38 39 39 37 36 37 38 38 37 36 33 30 29 31 29 30 33 37 37 36 36 35 31 31 33 33 33 35 35 35 34 31 30 30 31
40 39 40 41 41 40 39 40 39 38 36 32 31 30 31 30 31 32 32 32 31 31 31 32 32 36 36 38 38 36 33 33 32 34 34 33 34 35 34 33 31 30 30 31
47 45 44 42 39 38 36 35 32 30 30 32 31 32 31 30 29 29 28 29 31 31 32 32 32 32 33 34 32 31 30 30 30 29 31 31 32 32 32 33 34 32 33 33
44 42 42 41 39 35 32 31 31 31 31 32 31 29 26 24 26 26 27 22 25 26 28 30 29 27 27 27 26 26 26 26 26 27 28 28 29 30 31 32 32 32 33 32
40 38 37 35 34 33 32 32 31 31 31 29 25 23 24 22 20 19 21 24 27 26 28 27 25 23 24 24 21 24 24 24 24 24 24 24 27 29 31 31 31 32 33 32
34 32 31 31 30 31 31 31 28 27 29 24 23 18 17 20 20 16 22 23 25 25 26 23 22 20 22 19 23 20 20 18 18 18 19 20 21 22 24 27 29 31 30 27
33 31 30 30 29 29 29 28 28 26 25 21 16 15 15 23 18 21 17 22 24 16 21 22 20 14 18 16 19 17 17 14 13 15 15 16 17 18 18 18 19 20 21 23
33 32 31 30 28 29 28 26 24 22 20 17 16 17 18 22 22 19 18 24 23 18 21 19 11 9 9 15 15 13 13 12 10 12 13 13 14 15 14 14 15 16 17 17
32 32 31 31 28 28 28 29 29 26 19 22 16 13 21 14 12 21 19 15 10 10 11 15 14 10 6 6 12 12 11 12 11 9 11 11 12 12 12 12 12 13 14 14
32 32 30 28 29 27 28 29 27 27 26 25 24 25 24 22 13 13 10 11 14 12 8 8 9 7 2 1 6 11 10 7 9 6 7 7 8 8 9 10 10 11 12 13
31 29 29 29 27 26 25 25 21 21 20 15 15 10 13 13 14 14 11 10 11 10 7 2 3 6 6 3 3 -1 6 6 7 5 2 3 5 4 6 7 8 9 9 11
30 29 27 26 26 25 21 20 16 12 13 7 8 7 17 11 6 9 5 4 3 3 1 2 0 3 9 4 -1 -2 -2 -0 3 3 -6 -0 2 2 4 4 5 6 8 7

GFSNGP_sfc_temp_018.txt.gz
Temp
49 51 52 51 51 50 49 47 39 45 46 54 56 54 56 57 59 58 57 59 59 57 55 57 56 57 58 52 53 53 52 51 51 53 53 50 45 45 45 44 45 46 45 46
42 48 49 46 50 50 50 50 48 49 48 52 55 54 55 56 59 58 57 58 58 59 56 57 56 55 54 52 53 53 51 51 54 52 49 47 44 44 45 46 47 45 45 44
36 40 42 34 44 49 51 52 51 42 49 52 51 53 52 53 55 55 56 56 57 56 55 54 54 55 53 52 52 51 50 54 51 49 46 46 46 44 45 45 45 45 44 43
30 32 26 46 54 54 50 50 51 51 51 52 52 51 53 53 53 53 54 55 55 55 56 54 53 55 53 52 50 48 48 49 48 46 46 46 44 44 43 44 43 42 42 42
30 30 39 47 52 50 47 44 51 50 52 53 52 52 51 54 55 53 52 51 49 48 48 52 53 51 50 48 47 46 46 46 47 46 45 44 42 41 42 42 41 39 41 41
29 28 25 41 51 56 53 37 52 52 50 51 50 35 45 54 54 50 48 47 46 46 48 49 48 50 48 46 44 42 44 44 45 44 44 42 41 41 41 40 41 41 39 39
23 24 33 48 54 54 38 39 52 51 50 50 46 46 50 50 47 47 46 45 45 44 43 44 46 46 43 43 42 44 44 44 44 44 42 41 41 42 41 38 37 34 34 34
31 25 30 52 52 44 46 48 52 51 51 48 48 48 48 47 45 44 42 42 43 41 40 42 43 43 42 41 44 44 44 43 42 42 43 43 40 39 38 36 33 32 30 31
37 36 48 52 52 53 53 52 51 51 51 51 48 46 46 44 42 41 41 40 42 42 41 40 42 45 41 41 42 43 42 41 41 41 40 40 36 35 34 34 29 29 28 26
42 48 48 51 51 52 52 50 50 50 51 50 46 45 42 41 40 40 39 40 40 40 39 39 41 41 40 41 41 40 37 37 36 35 35 36 36 35 32 28 27 30 29 28
43 45 50 49 50 50 49 48 46 47 47 46 44 42 41 40 39 39 38 38 39 37 36 37 39 38 39 39 39 36 35 35 34 31 32 32 33 32 31 32 31 30 30 28
37 50 46 45 47 49 47 45 45 43 41 42 42 40 39 37 38 37 36 37 36 37 37 37 38 38 38 39 37 35 34 32 30 29 29 30 31 32 35 35 35 35 35 32
47 49 46 44 45 46 42 42 42 41 40 38 38 38 37 36 35 36 35 36 36 37 37 37 36 35 36 36 35 34 32 32 30 29 29 29 30 30 30 34 34 35 35 36
49 48 43 44 39 42 41 41 41 40 39 38 37 36 35 34 35 35 35 37 37 36 34 33 33 32 34 36 35 33 32 31 30 30 30 31 30 31 31 31 33 34 32 35
45 46 43 42 41 40 41 40 38 37 37 36 36 36 36 35 34 33 33 33 34 32 32 33 32 32 35 35 35 32 32 31 31 31 32 33 33 33 34 33 34 33 34 29
43 42 41 39 39 39 38 37 36 35 35 34 33 32 34 34 33 33 33 32 30 30 31 30 30 33 35 34 31 30 29 28 26 28 28 29 30 31 32 32 33 33 33 32
37 36 38 38 39 39 38 39 37 35 32 30 30 32 32 31 30 30 29 31 31 30 29 28 27 30 30 28 27 26 25 26 25 26 26 26 26 26 27 27 28 30 32 32
44 43 41 39 38 36 34 33 31 31 31 32 31 27 25 25 25 26 26 26 28 25 26 27 26 26 26 26 25 24 23 23 24 23 24 22 23 24 24 26 27 28 29 31
42 40 40 39 37 34 30 30 31 31 31 29 25 24 23 23 24 25 25 22 20 22 24 25 24 23 23 23 22 22 20 18 19 19 18 19 19 20 20 21 20 23 25 28
38 37 36 34 33 32 30 30 31 31 29 26 23 22 23 20 19 20 23 20 22 23 25 23 22 21 21 21 17 19 17 12 14 14 14 14 14 15 17 16 16 17 18 20
32 31 31 31 30 31 30 29 28 26 27 22 22 18 18 21 19 15 20 21 23 22 24 21 19 18 20 16 17 9 12 7 8 9 10 10 11 12 12 12 14 14 15 16
31 30 30 30 29 28 27 28 27 25 23 20 16 15 18 22 17 19 15 20 23 12 18 19 17 8 13 9 15 5 10 11 5 7 8 8 8 9 9 9 10 11 13 13
31 31 30 28 28 28 27 25 24 23 20 17 15 17 20 22 21 14 14 21 20 13 18 12 7 4 3 -0 -1 -1 -2 1 2 3 4 5 6 6 7 7 8 9 10 11
31 31 30 29 28 27 26 27 27 25 20 21 16 13 21 14 9 19 17 10 5 4 4 4 4 3 0 -4 -4 -4 -4 -4 1 -5 1 -2 3 2 3 4 5 7 8 9
32 31 29 27 28 27 28 28 26 26 25 24 22 23 22 20 11 11 6 6 9 7 2 -1 2 1 -5 -8 -8 -8 -8 -8 -5 -4 -9 -4 -1 -1 -0 1 2 3 4 7
29 27 27 27 26 26 25 24 21 20 19 14 13 4 12 14 12 10 5 4 6 5 -0 -6 -6 -6 -6 -4 -8 -10 -9 -6 -6 -3 -12 -8 -5 -3 -1 -1 -0 1 1 3
25 25 24 23 23 23 22 21 16 14 11 7 8 6 10 4 1 4 -2 -3 -2 -4 -7 -6 -8 -6 -6 -2 -3 -8 -9 -10 -9 -7 -15 -14 -10 -6 -3 -2 -3 -2 -1 1

GFSNGP_sfc_temp_021.txt.gz
Temp
46 49 50 49 49 47 46 45 38 44 43 50 51 53 52 55 54 55 54 54 54 53 52 53 53 53 52 50 50 51 50 50 49 50 49 51 48 47 45 45 46 46 45 45
39 45 46 45 49 48 48 47 46 45 45 49 50 49 51 52 54 52 53 54 54 55 55 55 54 52 51 50 50 51 50 51 50 49 51 47 46 45 45 45 45 45 45 43
36 38 39 34 42 47 48 50 49 41 49 50 48 50 48 49 51 51 52 53 53 53 54 53 52 51 50 50 51 50 49 49 50 48 46 45 45 45 44 44 43 43 42 42
30 32 25 45 49 50 47 46 48 47 48 49 48 48 50 49 50 50 51 50 49 47 48 50 50 49 49 48 47 45 45 45 45 46 44 44 44 43 42 42 41 40 41 41
31 30 38 45 48 47 45 43 47 47 47 48 49 49 49 52 50 47 46 45 44 44 44 45 46 47 46 44 44 43 43 43 45 45 43 43 41 41 40 39 40 40 39 39
28 30 27 41 48 53 51 36 49 48 48 47 46 34 43 47 46 44 43 42 41 43 43 43 43 44 42 41 41 40 41 42 44 44 43 41 40 40 40 40 40 39 37 36
24 25 33 45 51 53 37 39 49 49 48 47 45 44 44 43 42 42 41 41 42 41 39 40 43 43 40 41 39 43 44 43 43 43 42 41 40 40 40 39 36 33 32 32
26 24 31 50 50 43 45 46 49 48 48 46 44 43 43 42 41 41 39 40 41 39 38 40 41 41 39 39 42 44 43 43 43 42 42 42 39 39 38 34 32 31 30 30
37 36 47 49 49 50 49 49 48 49 48 48 44 42 41 39 39 39 39 38 39 38 38 39 40 40 38 38 40 41 40 41 40 40 39 38 35 34 32 32 29 29 29 29
40 45 46 47 48 50 50 49 49 48 48 47 42 41 39 39 38 38 37 36 37 37 36 36 38 38 38 39 40 39 36 35 35 34 34 34 34 33 31 29 27 30 29 29
39 42 45 46 45 45 45 45 44 45 44 43 41 39 39 38 37 36 36 36 37 36 35 35 36 36 36 36 36 34 34 33 32 30 32 32 32 31 31 31 32 31 31 31
36 47 46 44 45 46 44 42 43 42 40 41 41 38 38 36 37 36 35 35 34 34 34 34 34 33 34 34 34 32 32 31 29 29 29 30 30 32 35 34 35 35 35 34
48 46 44 42 42 43 41 41 41 40 40 37 38 38 37 35 34 35 34 34 33 32 32 32 31 31 32 32 32 32 30 30 30 30 30 29 30 29 28 33 36 36 35 35
45 44 39 40 37 40 40 39 40 38 38 37 36 35 34 33 32 32 32 33 32 32 32 30 30 30 32 33 32 30 29 29 27 27 27 28 28 29 31 31 30 32 35 35
41 43 42 40 39 38 39 38 36 34 34 34 37 36 35 32 30 30 32 32 33 33 29 29 29 28 30 30 29 28 27 26 26 24 23 24 25 25 26 25 25 27 29 31
40 40 39 37 37 37 36 36 34 33 34 34 34 33 32 33 32 31 33 33 30 26 26 22 25 27 28 27 26 25 23 23 21 23 23 23 23 23 23 23 23 24 25 26
36 34 35 34 35 35 35 38 36 34 32 32 31 30 31 30 30 30 30 29 25 24 25 23 23 26 26 25 24 22 21 22 21 22 20 20 20 19 21 20 20 20 20 20
43 41 40 38 36 34 33 33 32 32 31 31 28 27 25 26 24 25 26 26 23 22 23 23 23 24 24 24 23 21 19 17 17 16 17 16 16 17 16 17 16 16 16 18
41 39 38 37 36 34 32 31 31 31 29 27 27 25 23 23 24 23 22 18 17 20 23 23 23 21 21 21 19 18 16 10 11 13 12 11 11 12 13 12 12 13 14 15
38 37 35 33 33 31 30 31 30 29 29 26 23 23 22 20 21 19 20 19 21 22 23 21 21 20 19 19 13 15 12 4 9 9 8 8 7 7 9 8 9 9 10 12
33 33 31 30 30 30 30 28 27 26 27 23 23 20 20 20 18 16 19 20 22 21 22 19 18 17 18 13 15 2 3 1 -0 3 1 3 3 5 5 5 5 6 7 9
31 30 30 29 28 27 27 26 25 23 22 19 17 18 18 19 17 17 14 19 22 12 18 17 15 6 10 5 11 -1 3 2 0 -4 -2 -1 -0 1 -0 2 2 3 5 6
30 31 30 28 27 27 26 25 23 22 19 18 18 18 20 21 20 15 15 20 19 12 16 8 5 1 -1 -6 -6 -8 -8 -8 -6 -7 -9 -10 -8 -5 -3 -2 -0 0 2 3
30 30 29 27 27 26 25 25 25 22 19 20 15 14 20 14 12 18 17 10 4 1 2 -1 -2 -1 -4 -9 -10 -11 -10 -13 -12 -12 -10 -10 -13 -10 -9 -5 -3 -2 -1 -1
29 29 28 28 27 26 26 26 24 24 23 23 22 22 21 19 12 12 6 5 7 5 0 -5 -2 -4 -10 -12 -13 -14 -14 -15 -15 -14 -18 -18 -12 -11 -10 -7 -6 -4 -4 -3
29 27 26 26 25 25 24 24 21 20 18 12 12 10 10 11 12 9 4 2 4 2 -2 -10 -11 -12 -12 -8 -9 -13 -13 -12 -15 -13 -17 -18 -15 -12 -11 -8 -8 -7 -6 -5
25 24 23 22 23 21 20 20 18 16 13 11 11 12 10 7 4 5 -4 -6 -6 -9 -9 -11 -13 -10 -10 -13 -10 -7 -11 -14 -15 -14 -20 -20 -18 -18 -15 -11 -9 -9 -8 -7

GFSNGP_sfc_temp_024.txt.gz
Temp
45 47 47 47 47 44 43 42 38 42 41 49 49 51 51 51 50 51 51 51 51 51 51 51 51 51 51 49 48 48 48 48 47 47 48 47 44 46 46 45 46 46 45 45
38 44 44 43 46 45 44 43 43 43 43 49 47 46 47 49 50 49 49 50 51 52 52 52 51 50 49 48 47 48 47 47 48 46 45 44 43 44 42 44 44 43 43 42
37 36 38 34 41 45 44 46 47 40 47 48 45 46 45 47 49 48 47 47 47 47 48 48 48 49 48 47 46 46 46 46 45 44 42 43 44 44 43 43 43 42 42 41
29 31 25 44 47 47 46 46 47 45 46 47 47 45 47 47 47 46 45 45 44 43 44 44 45 46 45 45 44 43 42 42 42 42 43 44 44 43 42 42 42 41 40 40
31 30 37 43 46 45 44 44 47 45 45 45 46 46 45 45 44 42 41 41 40 40 40 41 41 42 42 41 41 41 40 41 42 44 44 43 42 41 41 40 40 40 40 39
28 27 26 40 49 50 49 37 47 46 45 45 45 34 41 43 42 40 39 39 39 39 40 40 39 41 40 39 39 38 40 41 43 44 43 41 41 40 40 40 39 39 38 38
23 25 33 45 49 50 37 40 47 48 46 45 44 43 41 40 39 39 39 39 39 39 37 38 40 40 38 39 38 40 41 41 43 43 42 42 41 40 39 39 37 34 33 32
27 25 30 48 47 43 46 43 46 47 46 45 40 40 39 39 38 38 37 38 38 37 37 38 39 40 38 37 39 40 40 40 41 42 42 42 39 39 36 33 31 30 28 31
38 37 46 47 47 50 48 47 47 47 46 45 40 39 39 37 37 37 36 36 37 37 36 37 37 38 36 36 38 38 38 37 37 37 36 35 33 32 31 30 26 29 29 29
39 44 44 47 46 46 48 47 47 47 47 45 40 39 37 37 36 35 34 34 35 36 35 34 35 36 35 36 36 35 33 32 32 31 32 31 31 31 30 28 27 30 29 30
39 41 43 46 45 45 43 44 43 43 42 41 40 38 37 36 35 35 34 35 35 35 34 32 33 33 33 33 33 32 32 31 30 29 29 30 30 30 30 30 30 30 31 30
38 46 46 46 44 44 42 41 42 41 39 40 40 37 37 35 35 35 34 34 33 32 32 31 32 31 32 32 31 30 30 29 28 27 26 28 29 29 33 34 35 35 35 33
49 46 41 40 40 41 40 39 40 39 40 37 38 37 37 34 33 35 34 33 31 30 31 30 29 29 30 30 30 29 27 28 26 26 26 25 25 25 22 28 32 32 33 32
43 44 39 40 38 39 38 38 38 37 37 37 35 35 34 33 34 33 31 31 32 30 29 29 28 27 28 28 28 27 26 25 23 23 22 22 21 22 22 22 20 22 27 29
39 41 42 38 37 36 37 37 35 33 33 33 35 35 35 33 31 31 32 33 30 28 28 27 26 25 27 27 26 25 24 23 22 19 19 20 20 20 20 20 20 20 21 22
38 38 38 36 35 35 35 34 33 32 33 33 34 34 33 33 32 32 33 31 28 24 24 19 23 26 26 26 25 23 22 21 19 20 19 18 18 17 18 17 17 17 16 16
35 33 34 33 34 34 34 35 34 33 33 33 32 32 31 31 31 28 26 26 24 22 23 21 22 25 25 25 23 21 18 18 15 17 16 15 14 14 14 14 13 13 13 14
43 41 40 38 35 34 33 33 33 33 32 32 29 28 28 28 27 25 23 22 21 21 22 22 23 24 23 22 21 19 15 14 14 13 13 11 10 12 11 10 10 9 10 11
40 38 37 36 35 33 32 32 31 30 29 28 28 26 25 25 24 23 21 18 18 21 21 22 22 20 20 19 17 15 13 6 8 10 8 6 5 6 7 6 6 6 7 8
35 35 34 33 33 32 30 30 30 29 29 27 25 24 23 21 20 18 19 19 21 22 22 20 19 19 18 17 12 13 8 1 6 4 1 3 -3 -4 -1 1 3 3 2 4
32 32 31 30 29 29 29 29 28 27 27 26 24 22 21 20 19 17 18 18 21 21 20 18 17 16 16 12 13 -0 -1 -5 -5 -4 -10 -10 -10 -6 -8 -7 -3 -1 -1 1
31 29 28 28 27 26 26 27 26 25 23 21 20 20 19 19 17 17 14 19 20 14 16 15 15 6 10 6 9 -3 0 -3 -4 -8 -11 -12 -13 -12 -10 -11 -7 -4 -3 -2
30 30 29 28 27 25 25 24 23 23 21 20 20 20 20 20 19 16 15 19 18 11 15 9 8 1 -1 -6 -9 -11 -11 -12 -12 -11 -16 -19 -18 -18 -14 -10 -8 -7 -6 -5
29 28 27 27 27 26 24 25 25 23 21 21 18 18 20 15 11 17 16 9 4 2 2 -1 6 2 -3 -10 -12 -14 -14 -16 -17 -17 -15 -16 -21 -21 -17 -15 -12 -8 -8 -7
28 27 26 27 26 26 26 25 24 23 23 22 22 21 20 18 12 11 6 7 9 6 2 -4 -2 -5 -12 -14 -15 -15 -16 -18 -19 -19 -21 -23 -21 -20 -18 -16 -15 -13 -10 -9
26 25 25 25 24 24 24 23 20 19 19 15 15 11 10 12 12 11 6 4 5 3 0 -8 -11 -14 -15 -13 -14 -15 -13 -13 -17 -17 -20 -22 -23 -19 -19 -16 -15 -14 -12 -11
23 23 22 21 21 21 21 20 19 17 15 15 14 12 10 8 4 6 -2 -4 -6 -9 -10 -11 -14 -12 -14 -16 -16 -13 -11 -14 -17 -15 -23 -25 -25 -24 -21 -20 -17 -15 -14 -13

GFSNGP_sfc_temp_027.txt.gz
Temp
49 52 51 52 51 49 49 50 46 51 47 57 60 61 60 59 58 58 57 58 59 60 60 60 60 60 60 59 57 57 56 57 56 55 55 55 52 48 48 47 48 48 46 48
46 48 49 48 51 51 51 49 49 50 49 58 59 58 56 55 56 55 55 55 55 56 57 57 58 59 58 58 56 55 55 55 55 54 53 50 48 46 46 47 46 50 46 45
42 43 46 39 45 49 50 52 53 47 55 56 55 54 54 54 54 53 52 52 51 51 51 53 54 55 56 55 54 53 53 53 52 52 50 47 46 46 44 46 46 45 45 45
37 38 33 51 53 55 53 53 54 53 55 56 55 52 53 56 54 51 50 49 48 50 50 50 51 51 52 53 52 51 50 49 50 50 49 48 47 44 44 44 43 43 43 46
36 38 43 49 51 51 50 54 56 55 54 53 52 53 49 49 50 48 47 46 46 47 47 48 48 49 49 48 49 48 47 47 48 49 48 47 46 43 43 43 42 44 46 43
35 36 35 48 55 55 57 46 55 54 51 50 51 48 52 47 46 45 45 46 46 46 47 47 47 48 47 46 46 45 46 47 48 48 47 45 46 44 45 46 45 43 39 39
33 37 42 51 54 56 44 50 54 54 53 52 52 53 50 46 44 45 45 44 45 46 44 45 47 47 45 45 44 46 48 48 48 49 48 48 45 43 41 40 39 39 41 43
35 35 38 52 51 48 55 53 53 54 54 51 46 44 45 44 43 43 43 44 45 43 43 45 47 47 44 42 46 46 46 45 44 44 42 42 43 43 43 43 41 40 38 40
45 46 53 53 56 56 55 55 52 54 53 49 45 44 44 42 42 42 43 43 44 43 42 42 44 45 42 41 44 44 43 41 41 41 41 41 41 41 41 41 39 38 38 38
47 51 51 52 54 55 55 55 54 57 54 50 46 44 42 41 41 41 42 42 42 41 39 38 40 40 40 41 42 40 38 38 38 38 39 40 41 40 39 38 37 36 36 35
45 49 49 52 53 55 51 51 50 51 51 48 45 42 42 40 40 41 41 41 41 39 37 36 38 37 38 38 39 37 37 36 36 36 36 37 37 36 35 37 35 33 34 33
44 54 54 54 54 50 49 49 49 46 44 46 45 42 42 40 40 40 38 39 37 36 34 34 35 34 35 36 37 36 34 34 32 33 33 33 33 33 32 31 31 31 31 30
54 51 46 44 45 47 46 46 46 46 45 42 42 42 41 39 39 37 38 37 35 33 32 33 33 32 33 33 33 32 31 30 31 30 30 29 29 28 27 30 29 29 28 28
46 48 45 44 45 44 44 43 42 42 42 41 40 40 38 37 37 36 34 34 33 32 32 32 31 29 31 32 31 30 29 26 28 28 28 27 26 26 26 24 23 25 27 26
45 44 46 42 41 39 40 40 38 37 37 37 39 37 37 35 34 33 33 32 32 32 31 31 29 28 30 31 29 28 28 26 26 25 25 23 24 24 24 23 22 22 23 24
40 40 41 40 38 38 39 38 36 35 36 36 36 36 36 35 33 32 31 32 30 27 27 23 25 28 29 29 28 27 25 21 22 23 22 21 21 20 20 20 19 19 19 18
37 34 35 35 36 37 37 38 37 36 36 35 33 34 33 31 29 28 28 27 24 24 24 24 25 28 27 27 26 24 23 21 18 20 20 19 18 17 17 17 16 16 16 16
45 41 42 40 37 35 35 36 36 35 34 33 31 31 29 29 26 26 25 24 22 22 23 24 25 26 24 24 23 21 19 18 18 17 17 15 14 15 15 13 13 13 13 14
41 38 37 37 37 35 34 33 32 30 29 30 30 28 28 27 26 25 24 22 21 21 22 24 23 22 22 20 20 19 16 14 15 15 13 11 11 11 11 10 10 11 11 10
35 35 35 34 34 32 30 29 29 29 29 28 27 26 24 23 23 22 24 23 24 24 24 22 21 20 19 18 17 17 15 13 13 12 10 9 8 6 8 7 7 8 8 8
32 32 31 30 29 29 29 30 29 27 28 28 26 25 23 22 22 21 21 21 22 23 22 20 20 19 19 18 17 13 13 11 11 9 6 5 5 5 5 5 5 5 6 6
30 29 28 28 28 27 28 28 27 26 25 24 23 22 21 20 20 20 21 22 23 20 20 20 19 13 15 13 15 13 12 10 9 8 6 5 4 3 3 3 2 3 4 4
30 29 29 27 26 26 26 25 24 24 23 22 22 22 23 23 23 21 19 21 21 18 19 17 11 8 6 13 12 10 9 8 7 6 5 3 3 2 1 1 0 1 2 2
28 27 26 26 26 26 24 25 25 24 23 23 21 22 22 19 19 21 20 16 14 16 15 12 11 7 5 10 9 8 8 7 6 5 4 -3 2 0 0 -1 -2 -0 -1 -0
28 27 27 26 25 24 25 25 25 24 24 23 23 23 22 21 21 18 18 16 15 15 14 6 5 3 9 9 8 6 6 6 5 3 3 2 1 -1 -1 -2 -3 -3 -3 -2
25 24 24 24 24 25 24 24 21 21 21 20 19 18 17 18 17 17 15 13 14 11 12 9 8 7 7 7 6 5 5 6 4 3 0 1 -1 -2 -3 -4 -5 -5 -4 -4
22 22 21 20 21 21 21 21 20 19 19 19 18 16 15 15 14 14 11 12 11 9 8 8 7 6 7 5 5 5 5 5 1 2 1 -1 -2 -3 -5 -6 -6 -6 -6 -6

GFSNGP_sfc_temp_030.txt.gz
Temp
62 64 64 62 62 62 59 60 55 59 61 66 71 73 74 71 69 68 68 69 70 72 72 72 70 70 70 69 67 67 67 67 66 65 65 64 62 62 61 57 54 50 50 49
55 62 60 58 63 64 63 63 63 62 62 72 74 73 69 67 67 66 65 66 67 68 68 68 68 70 67 67 65 66 65 64 63 62 62 60 58 55 52 50 50 47 50 46
49 55 54 45 55 61 62 65 63 58 66 73 70 69 69 67 67 65 63 64 63 63 64 65 65 66 65 64 64 63 62 61 60 60 58 57 56 54 50 48 47 46 47 48
48 42 36 60 64 67 64 66 68 67 69 71 71 69 67 69 66 63 62 61 61 62 62 63 64 63 63 63 62 60 59 58 58 58 56 55 54 51 46 47 46 47 47 48
42 46 55 57 59 60 59 61 70 68 70 70 65 63 58 64 66 62 61 60 60 61 61 61 61 61 61 60 59 58 56 56 57 56 56 55 53 51 51 51 50 48 48 49
44 43 39 59 68 70 67 54 72 70 69 65 62 55 64 59 58 57 59 59 58 59 59 59 59 60 58 56 56 54 54 55 56 56 54 53 52 50 51 51 49 47 44 42
46 45 54 65 66 67 51 56 70 72 70 65 60 67 63 58 56 58 57 56 57 58 56 57 58 58 55 54 52 54 55 54 53 53 51 50 49 45 43 41 41 43 46 49
49 42 41 65 61 58 67 67 69 68 69 64 62 58 56 56 54 54 54 55 56 54 54 56 58 56 53 51 53 53 52 50 49 47 47 49 49 50 51 50 48 47 45 46
55 56 67 65 70 71 70 70 66 68 68 66 57 56 55 54 54 54 55 55 55 53 52 53 54 54 50 51 52 51 50 49 49 49 49 49 49 48 49 48 46 44 43 42
53 65 64 65 70 67 68 68 69 70 67 62 58 56 55 54 53 53 55 54 54 51 49 47 50 50 50 50 50 49 47 46 47 45 46 46 48 47 46 43 41 40 40 39
58 63 58 63 67 69 66 65 65 68 65 63 59 56 55 53 52 53 53 52 52 49 47 46 47 47 48 48 49 46 44 43 43 43 43 44 44 41 39 40 35 35 35 35
54 67 65 71 71 68 64 62 64 64 61 62 60 56 55 52 53 52 50 49 48 46 45 44 44 44 44 45 46 44 42 41 38 40 41 42 41 41 31 31 30 30 29 29
63 63 66 58 61 66 64 64 63 62 62 58 58 56 54 51 50 46 48 47 45 43 42 42 41 40 41 41 41 40 39 38 38 37 38 37 37 36 35 35 31 29 28 27
57 56 56 56 60 58 60 60 56 61 59 57 54 54 52 49 45 46 45 45 43 42 40 40 38 37 39 40 39 37 35 30 37 36 36 35 34 33 33 31 29 30 30 27
55 53 53 56 55 54 55 53 52 51 51 50 51 49 47 44 44 44 43 41 40 38 38 37 36 36 38 38 37 35 35 34 33 33 31 30 31 31 30 29 28 28 29 29
50 50 50 50 50 49 50 50 50 47 47 46 46 45 46 45 42 41 40 38 34 33 35 29 32 35 36 36 35 34 30 25 27 31 31 29 29 28 28 27 26 26 25 25
45 43 43 44 45 45 46 47 46 44 44 44 44 43 41 39 37 35 32 29 28 28 29 29 31 33 32 33 34 33 32 29 22 29 28 27 26 25 25 24 23 23 23 22
52 51 51 49 45 44 44 43 43 43 41 39 33 32 31 29 25 24 24 25 25 25 27 29 30 30 30 30 30 28 27 26 26 24 25 23 22 23 22 22 21 20 21 21
48 47 46 46 45 43 41 36 35 34 32 32 31 28 28 28 27 25 25 23 23 23 25 27 25 27 26 23 25 25 24 23 23 22 22 18 20 20 19 19 18 18 18 18
37 40 36 35 35 33 31 31 31 30 30 30 29 27 25 25 26 25 27 27 28 27 27 25 25 24 23 21 21 23 22 21 21 20 18 17 18 16 16 15 15 16 16 16
33 32 31 30 30 31 31 31 31 30 31 31 29 27 25 25 25 25 24 23 23 25 24 23 24 24 24 23 23 22 21 20 19 18 16 15 14 15 14 14 14 14 14 14
30 29 29 29 29 29 30 30 29 28 27 26 25 24 23 23 23 23 25 25 25 24 25 24 23 18 20 17 22 20 20 18 17 16 16 14 13 13 13 13 12 12 12 13
29 29 28 28 27 27 27 27 27 26 25 25 25 25 25 26 27 25 23 24 25 22 24 23 16 14 13 19 20 18 17 15 15 14 14 13 12 12 11 10 10 9 10 10
29 28 28 28 28 27 25 25 26 25 25 25 24 26 27 25 24 26 25 22 20 21 20 18 17 12 12 18 17 16 15 16 14 14 14 9 12 11 10 9 8 9 8 7
28 28 27 27 26 25 26 26 26 26 26 25 25 25 25 26 25 23 23 21 18 20 21 12 11 10 16 16 16 14 14 15 14 13 12 11 11 9 9 9 7 7 5 5
26 25 25 25 26 26 26 27 25 26 26 24 24 24 23 23 22 22 20 19 19 17 20 19 17 16 16 15 14 13 13 14 13 12 11 10 10 9 8 7 5 5 5 5
23 23 23 22 23 23 24 24 24 23 23 24 23 23 22 22 20 20 18 20 20 18 18 17 17 15 14 14 14 13 13 13 11 10 9 9 9 8 6 5 4 3 2 2

GFSNGP_sfc_temp_033.txt.gz
Temp
63 67 67 65 64 65 62 63 54 60 63 70 74 76 77 78 78 77 77 77 78 79 78 77 75 76 76 73 73 74 73 72 69 68 68 66 63 61 59 56 55 53 49 49
58 65 66 62 66 67 66 66 65 66 65 77 79 79 77 77 75 75 75 75 75 76 76 74 74 74 72 70 70 71 70 68 68 67 67 65 63 61 59 58 56 53 51 53
49 61 61 51 61 64 66 69 67 60 68 76 75 76 76 77 75 74 72 72 72 72 71 71 72 71 68 69 70 68 67 66 65 64 62 60 60 58 57 55 54 50 48 47
49 48 39 59 71 70 66 69 72 72 73 76 77 78 78 78 76 72 70 69 69 69 68 69 70 69 68 68 67 65 64 63 63 61 60 59 58 56 53 52 51 51 51 52
45 46 55 61 67 65 64 64 74 72 75 76 78 73 70 75 75 71 69 69 69 69 68 68 68 68 67 65 64 63 61 61 61 60 59 58 56 55 55 54 53 52 53 52
49 43 40 58 70 75 74 57 74 75 74 74 73 58 69 71 71 68 68 67 66 67 67 66 66 66 64 62 61 59 59 59 60 60 58 55 52 51 50 51 50 51 47 46
47 46 54 68 74 77 53 58 75 76 75 74 70 70 72 68 65 67 67 66 65 66 65 64 65 64 61 59 58 59 59 59 57 56 53 52 51 50 49 49 49 47 48 51
49 45 42 72 70 61 68 75 75 76 76 73 74 69 66 64 64 64 63 63 64 62 61 63 64 62 59 57 58 57 56 54 53 52 52 53 53 53 54 52 50 49 47 47
57 56 67 72 71 76 78 75 75 75 77 75 68 65 64 63 63 62 62 63 63 61 59 61 61 61 57 56 57 55 54 53 53 53 54 54 52 51 52 50 47 45 44 43
58 64 69 72 75 78 79 76 78 77 77 74 67 65 63 63 62 62 63 62 62 59 57 56 58 58 56 56 56 54 52 51 51 51 50 51 52 50 48 44 42 41 41 40
59 65 68 70 72 75 76 75 74 75 75 73 68 65 64 62 61 63 62 61 59 56 54 53 55 54 55 55 54 51 49 49 47 47 48 47 46 43 42 37 35 36 36 36
54 65 66 69 74 77 74 72 71 72 71 71 69 65 65 62 62 62 59 58 57 54 53 52 52 51 52 53 52 49 46 45 43 43 44 46 45 39 31 32 31 30 29 29
63 67 68 71 68 72 75 75 72 71 72 68 68 67 64 61 61 54 56 56 54 52 50 50 49 48 49 48 48 46 44 42 39 40 41 40 41 39 39 31 31 30 29 28
69 64 60 65 67 67 68 72 66 71 71 69 67 66 63 59 56 55 53 53 52 49 47 46 45 42 44 45 43 40 39 32 41 40 40 39 38 36 36 34 32 33 30 29
64 62 61 61 62 60 65 64 63 64 65 64 64 61 58 55 52 53 52 50 48 46 44 40 37 38 41 43 41 40 40 38 37 36 34 32 34 34 34 32 31 31 32 32
59 58 58 58 59 57 58 58 59 58 59 57 57 56 55 53 51 46 46 44 40 37 33 31 33 36 38 40 38 36 31 28 31 34 33 32 32 31 31 29 29 29 28 28
53 54 53 53 54 53 54 55 55 54 54 53 51 49 50 42 37 32 31 32 29 28 29 30 31 33 34 36 36 35 34 30 25 32 31 30 29 28 28 27 26 26 26 25
55 55 56 56 53 51 50 50 50 49 46 44 36 34 31 29 28 27 26 25 24 24 25 26 27 30 31 32 32 31 31 30 29 27 27 26 24 25 25 24 24 24 24 25
52 51 52 51 51 48 44 39 35 33 33 32 31 29 27 26 25 25 25 24 23 23 24 25 25 28 27 25 28 28 26 25 25 25 24 22 23 24 23 23 22 21 22 22
35 36 35 34 35 33 31 32 32 30 30 29 28 27 25 25 25 26 27 25 26 25 26 26 27 25 24 23 23 25 24 23 23 23 22 19 21 20 20 20 20 20 20 20
31 31 30 30 30 31 31 32 31 30 30 29 28 27 26 26 26 25 24 21 23 25 25 25 26 25 25 25 25 24 23 22 21 21 20 19 19 20 19 19 19 18 18 18
29 28 28 29 28 28 29 29 29 27 27 26 25 25 25 24 24 24 25 23 23 25 27 26 24 19 22 19 24 23 22 21 20 20 19 19 18 17 17 17 16 16 16 16
29 29 28 27 26 26 27 27 27 27 26 26 26 25 25 26 27 24 21 26 26 25 26 23 18 17 16 21 22 21 20 19 18 18 18 17 16 15 15 14 14 14 13 14
29 29 28 28 29 28 26 26 26 25 25 25 25 26 26 24 24 25 25 23 23 23 22 20 19 15 14 20 20 19 18 18 18 18 17 16 16 15 14 13 13 13 12 12
28 28 28 28 27 27 27 27 27 27 26 26 26 27 27 27 26 25 24 22 21 23 22 16 15 14 18 19 18 17 17 17 16 16 14 14 14 13 13 13 12 11 10 9
27 26 27 26 27 28 28 28 26 27 27 25 25 25 25 26 25 25 23 22 22 21 21 21 19 18 18 18 17 16 16 16 15 15 14 13 13 13 12 12 11 10 9 9
26 27 27 26 26 25 25 25 24 23 23 25 24 25 24 25 23 23 21 22 21 20 20 20 19 18 17 15 15 16 15 15 14 13 12 11 11 11 11 10 9 8 7 6

GFSNGP_sfc_temp_036.txt.gz
Temp
60 64 64 63 62 63 61 58 52 55 56 65 70 69 68 75 77 78 77 77 77 77 75 75 73 73 74 71 70 71 70 68 63 62 61 60 57 56 54 52 50 49 48 47
52 61 63 58 63 65 64 64 63 64 63 74 76 73 69 70 76 75 76 76 77 77 76 74 73 72 70 68 68 68 67 65 66 64 64 61 58 56 54 52 52 49 47 46
46 57 56 47 58 63 65 68 65 57 66 74 73 74 75 74 76 74 74 74 74 74 72 72 70 68 66 66 67 65 64 64 63 62 59 57 56 55 52 50 49 47 47 46
45 44 36 58 70 69 65 67 69 70 72 74 74 77 77 78 75 73 73 72 71 70 69 69 68 67 66 66 64 63 62 61 61 59 57 56 54 51 48 47 46 45 46 46
42 43 52 59 64 63 61 61 70 68 72 75 77 76 72 76 75 73 71 70 69 68 68 66 66 66 65 63 62 61 60 59 59 57 55 54 51 50 49 48 48 48 49 48
45 40 37 53 66 72 71 52 71 72 71 72 73 56 66 72 72 70 70 69 68 67 66 65 64 64 62 60 59 58 58 58 59 58 55 52 49 47 48 49 48 48 45 43
42 41 50 63 68 72 50 53 72 73 72 72 67 69 72 71 69 70 69 67 67 66 63 63 64 62 59 58 56 58 58 58 56 53 50 50 50 48 46 45 44 41 41 43
43 40 38 67 67 57 63 70 72 72 72 70 71 68 68 68 67 67 66 65 65 63 61 62 63 60 58 55 57 56 54 53 52 51 51 50 47 48 48 46 43 40 38 37
45 48 62 64 64 70 73 71 72 72 75 74 68 66 66 64 64 65 65 63 65 61 59 60 61 60 56 55 55 54 52 51 50 52 52 52 48 46 45 43 38 34 34 33
46 55 57 63 69 73 75 73 75 77 75 74 68 66 64 64 64 63 64 63 63 60 58 57 59 59 55 55 55 52 50 49 48 47 47 47 48 46 40 35 33 32 32 31
51 55 54 63 67 69 72 73 74 75 73 73 70 66 64 63 62 62 62 62 61 57 56 55 56 54 55 54 54 50 48 47 45 44 44 41 37 36 32 31 31 30 29 29
48 60 57 61 67 68 67 67 72 70 70 72 70 66 65 63 62 62 61 60 57 55 54 53 52 52 53 53 50 47 44 42 38 37 38 41 36 33 33 31 31 30 29 27
59 63 63 63 65 68 65 66 70 69 70 70 70 68 65 62 61 55 59 57 55 53 51 51 50 48 49 48 46 43 39 39 36 35 35 34 33 32 26 29 31 30 30 29
65 64 61 62 61 65 65 66 68 70 70 69 67 66 63 60 57 57 55 54 53 50 48 46 43 41 43 42 39 36 36 35 36 35 34 34 32 31 31 30 27 26 29 29
62 64 61 59 60 62 63 63 63 63 65 65 65 62 59 56 54 54 53 52 49 46 43 40 38 38 41 41 39 36 36 34 33 31 29 29 31 31 30 29 28 27 27 27
56 58 58 57 58 59 59 57 57 60 62 59 58 56 56 55 51 48 47 44 39 35 34 30 33 36 37 36 33 30 28 28 30 31 29 30 30 28 28 27 26 26 25 24
49 49 51 52 55 55 54 56 57 56 54 53 50 46 37 32 31 30 30 31 29 28 28 28 29 32 32 33 33 29 27 26 24 29 28 27 26 25 25 25 24 23 22 18
50 51 50 52 53 51 49 43 38 38 35 34 32 30 29 27 26 25 25 25 25 24 24 25 25 25 25 28 29 29 28 27 27 25 26 24 22 23 23 22 22 21 21 21
40 39 38 38 39 36 34 33 32 32 31 30 28 25 25 25 24 23 24 23 22 21 22 24 24 23 23 24 26 25 24 24 24 24 23 21 21 22 21 20 19 19 19 19
32 33 33 32 32 31 29 29 29 28 28 27 26 25 23 24 25 24 24 22 22 22 24 23 23 22 22 23 24 24 23 22 22 22 21 19 19 18 18 19 18 18 17 16
28 29 28 27 27 28 28 28 27 26 27 27 25 24 23 24 24 23 21 19 22 23 23 23 24 25 24 24 25 23 22 21 20 20 19 18 18 18 17 17 16 15 15 14
27 27 26 26 26 26 27 27 26 25 25 25 24 24 23 22 22 22 22 21 23 23 24 23 21 19 20 18 23 22 21 20 19 18 18 17 16 15 14 14 14 13 12 11
28 27 26 25 24 24 25 25 25 25 24 24 24 24 24 24 25 22 19 23 24 23 21 18 18 17 16 19 20 20 19 18 17 17 16 16 15 14 13 12 11 10 10 10
28 27 27 27 27 26 24 25 25 25 24 25 24 26 25 22 21 23 22 22 21 20 19 18 16 16 14 19 19 18 17 16 16 16 15 13 13 13 13 11 10 10 9 8
26 27 27 27 26 26 26 26 26 26 25 25 24 25 25 25 23 23 22 21 21 21 17 15 14 14 18 18 17 16 15 15 14 12 12 12 11 11 11 11 9 9 7 4
25 24 24 24 24 25 26 25 23 24 25 23 23 24 24 24 24 23 22 21 20 20 19 19 17 16 16 15 14 14 14 14 13 13 11 11 10 9 9 9 8 8 6 5
23 24 24 23 24 24 23 22 21 20 21 23 22 23 23 23 22 22 20 20 19 19 18 18 17 16 15 14 13 13 13 13 12 10 10 9 8 8 7 7 6 5 4 2

GFSNGP_sfc_temp_039.txt.gz
Temp
55 57 58 57 57 56 54 54 46 49 51 57 61 65 68 65 68 69 69 68 66 65 64 64 64 63 63 62 62 63 61 59 57 57 57 55 54 53 51 51 50 49 48 47
46 57 58 54 56 57 57 56 56 57 54 64 68 65 61 65 66 66 67 68 68 67 66 66 64 61 62 61 60 61 59 58 58 58 57 56 54 52 51 49 49 48 46 46
41 48 49 40 51 56 57 61 59 49 56 67 65 65 66 65 67 66 67 66 66 66 65 64 62 61 59 59 59 59 58 58 56 55 53 51 51 52 50 48 44 42 41 41
34 40 32 51 61 61 57 60 62 61 61 62 65 67 67 71 67 64 64 64 63 61 59 60 60 60 58 59 57 56 56 55 54 53 51 49 47 45 43 42 41 40 41 41
34 39 44 50 57 56 54 54 63 61 62 64 65 65 59 65 64 62 62 60 58 58 59 57 58 57 58 56 55 55 53 53 53 51 49 47 45 43 42 42 41 41 42 41
34 34 31 46 58 64 61 44 62 62 61 60 60 47 53 61 62 59 60 61 60 59 58 57 55 56 55 53 53 52 52 52 52 51 49 46 43 42 42 42 43 45 43 43
31 30 38 55 62 64 44 44 62 63 63 61 56 56 59 59 58 61 61 59 58 58 56 54 55 55 51 50 49 52 53 51 49 48 46 45 43 42 41 40 40 37 38 38
34 31 31 53 58 52 53 59 64 62 61 61 59 59 60 60 59 59 58 58 58 55 54 53 54 53 49 48 50 50 49 47 47 46 47 46 43 42 42 40 37 34 32 31
40 37 49 54 54 55 59 59 62 61 68 64 58 58 58 58 58 58 58 57 56 54 52 52 53 53 49 47 49 48 47 46 45 46 46 45 41 38 38 36 32 30 32 30
43 48 50 54 56 58 57 59 63 67 67 61 58 58 56 56 56 56 56 54 55 53 51 49 52 51 49 49 49 47 44 43 42 41 40 40 40 37 33 29 28 29 29 27
44 50 53 57 56 56 56 59 60 62 62 63 58 58 58 56 55 55 55 53 54 51 49 47 50 49 50 49 47 44 42 41 39 37 34 32 31 30 28 29 29 26 24 27
37 51 51 55 58 58 57 56 59 61 59 61 60 57 57 54 54 55 51 52 50 48 47 46 47 46 46 47 45 41 39 36 32 31 32 32 30 29 32 31 32 31 30 27
53 56 56 59 61 61 60 60 61 61 63 59 58 57 55 53 52 48 51 49 48 46 45 43 39 37 39 41 39 37 34 35 32 32 32 30 29 28 25 29 31 31 30 30
54 54 52 54 53 57 58 59 58 59 63 62 59 56 54 52 50 50 48 47 46 42 38 37 36 34 36 37 36 34 33 32 32 31 30 29 29 29 27 26 24 25 29 29
49 52 52 53 55 54 55 54 54 53 56 53 53 52 51 49 47 45 45 42 39 36 34 33 32 31 33 33 32 31 32 30 28 27 27 28 28 28 28 27 27 26 25 25
48 49 49 48 50 51 50 48 49 46 48 49 45 40 39 38 37 37 36 34 29 27 29 27 29 32 32 31 29 28 27 27 27 27 26 26 26 26 26 25 25 24 23 22
39 37 40 40 44 37 37 38 36 35 34 32 32 32 32 29 28 27 27 27 25 25 25 24 25 27 28 28 27 25 24 25 25 25 24 24 23 23 23 23 22 22 20 17
41 39 38 38 36 34 32 32 31 30 29 29 28 26 25 24 23 23 23 24 23 22 22 23 24 24 25 25 25 24 24 23 23 22 23 21 20 22 22 21 20 19 19 18
34 33 33 33 32 31 29 28 27 27 26 26 25 23 23 23 23 23 22 21 20 19 20 22 23 22 23 24 23 23 22 21 22 22 21 20 19 20 18 17 17 16 17 16
29 29 29 28 29 29 27 27 27 26 26 25 24 22 21 21 21 20 20 19 20 21 22 22 22 20 21 22 22 22 21 20 21 20 18 17 16 14 14 16 16 14 12 11
25 26 25 25 24 25 25 25 24 23 24 24 23 22 21 21 21 21 19 18 21 23 22 20 21 19 20 20 22 20 19 18 17 17 14 13 12 13 12 11 11 9 8 7
24 23 23 23 23 23 24 25 25 24 24 23 23 22 21 20 20 20 21 20 22 20 19 18 17 17 17 19 20 18 18 17 15 14 12 10 8 6 5 3 3 3 -0 -4
25 25 24 23 23 23 24 24 24 24 23 22 21 21 22 22 22 19 17 22 20 18 17 16 16 15 14 17 16 15 13 12 11 10 11 11 10 7 4 4 4 -2 -4 -0
26 26 25 25 26 25 22 23 24 23 23 22 22 23 22 19 19 21 20 18 17 16 15 14 14 13 12 12 11 9 8 7 6 4 3 1 -3 -4 0 -2 -2 2 0 -2
22 22 23 24 23 22 23 24 24 23 22 22 22 23 22 22 19 19 18 17 18 15 11 11 11 10 10 8 6 5 4 7 7 4 5 1 -3 -6 -7 -4 1 1 -1 -3
22 20 20 21 20 20 21 21 18 20 21 19 19 19 19 20 18 18 16 14 15 14 15 9 9 11 4 1 -1 -3 -3 -1 3 3 -3 -6 -8 -7 -5 -1 -1 -2 -7 -11
19 20 20 19 20 18 17 16 16 14 16 17 16 16 16 17 16 14 12 12 14 10 7 6 8 9 6 2 4 2 -4 -5 -5 -2 -6 -10 -11 -12 -6 -6 -8 -13 -14 -14

GFSNGP_sfc_temp_042.txt.gz
Temp
45 50 54 53 53 53 51 48 42 46 47 56 57 59 61 62 63 65 64 64 62 62 62 60 59 59 60 67 67 65 63 62 62 60 61 59 56 55 54 53 52 52 51 50
37 48 51 50 55 55 55 53 50 51 50 60 64 63 61 62 65 65 65 64 65 63 62 61 60 58 58 57 57 60 60 60 59 57 57 55 53 51 50 50 49 48 47 46
31 42 46 39 50 54 53 55 55 46 53 60 60 61 60 62 65 65 64 63 62 63 63 61 60 59 56 56 57 57 57 57 56 55 54 52 52 50 49 47 46 45 44 45
30 35 28 48 56 59 55 56 57 56 57 61 64 66 64 64 66 64 63 62 61 62 59 57 56 55 56 57 55 54 53 52 52 51 51 50 48 45 43 43 43 40 39 40
30 30 40 46 53 50 49 51 58 57 61 61 62 57 59 63 68 68 62 61 61 61 57 56 56 56 55 54 53 52 51 51 50 49 48 46 44 42 41 41 40 39 40 39
31 28 27 42 54 61 58 41 58 62 60 59 59 45 51 61 62 58 57 57 55 55 55 55 53 55 53 51 51 49 49 48 49 48 46 43 41 40 40 40 40 41 39 38
30 29 35 48 51 59 42 43 58 61 60 59 53 54 59 57 57 57 58 56 55 56 55 53 53 54 50 49 48 49 49 48 47 46 44 43 41 41 40 39 38 36 34 35
32 29 29 50 51 44 47 51 55 56 58 57 57 55 55 56 55 55 54 53 55 53 51 51 53 52 49 47 47 48 47 45 44 44 45 43 41 41 41 39 34 31 30 29
37 37 49 51 51 54 54 51 53 53 56 57 57 55 55 55 55 55 55 55 55 52 49 49 51 52 47 44 46 46 45 44 44 44 43 42 39 38 36 35 32 30 28 26
40 47 48 52 53 54 56 54 56 57 57 59 55 56 55 55 54 54 52 52 52 51 48 46 48 48 46 46 46 45 42 41 39 37 36 35 35 35 32 29 29 30 28 26
42 48 50 53 56 55 56 55 56 57 57 56 54 54 53 53 53 53 51 51 52 49 47 45 46 45 46 45 44 41 39 37 34 33 32 30 29 29 29 30 30 28 27 27
37 49 49 51 57 56 56 55 55 55 55 59 59 58 55 52 51 52 49 48 47 45 44 44 44 43 43 43 42 38 35 33 30 30 30 30 29 28 32 32 32 31 30 27
43 48 51 54 56 57 56 57 58 57 57 56 58 56 54 50 50 45 48 46 45 40 38 38 37 36 38 39 38 35 32 32 30 30 29 29 29 28 25 29 31 31 31 29
45 48 48 49 48 52 53 54 56 57 56 54 56 53 51 48 47 45 42 39 38 36 34 34 33 33 36 37 35 33 32 31 30 30 30 29 29 27 27 26 24 24 28 29
42 44 44 47 48 46 47 49 45 42 43 43 48 48 46 42 38 37 36 36 34 32 31 31 30 30 33 33 32 31 29 28 28 27 27 27 27 27 27 26 25 25 25 25
42 41 42 39 38 38 39 38 37 34 34 34 33 33 34 33 31 30 31 31 28 26 28 26 27 28 30 30 29 28 27 27 27 26 26 25 25 24 24 24 23 23 22 21
36 35 36 36 34 32 32 32 32 30 29 28 28 28 28 26 26 25 25 26 25 24 25 25 24 26 27 26 25 25 25 25 24 24 24 23 22 22 22 21 21 20 19 18
35 34 33 34 32 30 28 28 28 27 26 27 26 25 24 23 22 22 22 22 21 20 21 23 24 24 24 24 24 24 23 23 23 22 21 20 20 21 20 20 19 18 18 18
31 30 30 30 29 28 27 26 26 26 26 26 24 22 22 21 21 21 21 20 19 17 19 21 23 23 22 23 23 22 21 20 21 21 20 18 18 18 17 17 17 16 16 15
26 27 26 26 26 26 24 24 25 23 23 23 22 20 19 19 20 19 19 18 19 20 21 21 21 20 21 22 22 21 20 19 19 18 17 17 16 14 15 15 14 12 11 11
24 24 24 23 23 24 24 24 23 22 22 22 21 19 19 20 20 20 18 16 18 19 19 19 19 19 20 21 21 19 18 17 16 15 14 13 12 12 10 9 7 6 5 3
23 22 22 23 22 22 23 23 23 23 22 21 21 20 20 19 20 19 18 17 18 17 17 16 16 17 19 18 18 16 15 14 14 13 11 10 9 8 6 4 3 -0 -4 -9
23 23 23 22 21 21 22 22 21 22 21 20 19 19 19 19 20 17 14 18 17 16 16 15 16 15 15 14 13 12 10 9 7 6 3 3 2 0 -0 -1 -0 -2 -5 -4
22 23 23 24 24 22 20 21 22 21 20 21 20 20 19 16 16 18 17 16 15 14 14 13 13 13 12 10 8 6 5 5 2 -2 0 -5 -12 -12 -10 -12 -7 -8 -5 -4
20 20 20 20 20 18 21 22 21 21 20 20 19 20 20 19 15 15 15 15 15 12 10 10 8 5 2 1 0 -2 -4 -5 -6 -9 -11 -13 -15 -15 -16 -13 -10 -8 -10 -11
20 18 18 17 17 17 17 18 17 18 17 14 15 15 14 16 16 15 14 13 12 10 10 9 7 4 0 0 -3 -7 -9 -8 -6 -6 -12 -15 -16 -14 -14 -13 -14 -15 -17 -18
15 16 16 15 15 14 13 13 11 11 11 9 9 10 10 9 9 10 5 5 4 2 -1 -6 -4 -4 -5 -9 -10 -11 -9 -10 -8 -9 -15 -18 -16 -15 -16 -18 -20 -21 -22 -20

GFSNGP_sfc_temp_045.txt.gz
Temp
39 43 46 44 45 48 48 49 42 45 45 52 55 57 58 60 59 61 60 60 59 58 59 60 61 63 65 66 65 64 63 62 62 62 63 61 60 60 59 59 58 55 53 52
34 45 44 41 45 46 49 50 46 48 46 56 59 57 57 58 60 60 62 62 63 61 60 59 61 62 61 61 59 62 63 61 61 57 57 57 56 55 53 52 51 52 50 48
29 36 40 34 40 46 50 54 51 45 52 58 56 57 58 61 60 61 62 62 62 60 63 62 61 58 57 55 57 59 59 58 57 56 56 54 53 52 50 48 47 47 46 47
29 32 26 44 48 51 49 54 57 56 56 59 58 59 60 63 63 61 62 61 61 63 59 59 56 54 53 54 56 57 57 56 55 54 51 50 50 48 46 46 45 44 44 44
26 26 36 41 48 46 40 41 54 55 58 60 62 57 55 60 61 63 63 65 65 63 58 55 54 53 53 52 53 54 52 52 52 51 50 49 46 45 43 43 42 42 43 42
31 23 22 43 49 54 50 37 51 52 53 57 58 47 52 61 61 59 59 58 56 53 53 54 52 53 51 50 50 50 50 50 50 50 48 45 42 41 39 39 39 39 36 36
31 29 31 44 49 52 34 36 49 52 50 51 49 59 61 59 58 56 55 53 52 53 53 53 53 53 49 49 47 47 47 47 47 47 45 42 40 40 38 38 36 35 33 34
33 29 27 50 47 41 44 50 50 53 51 49 51 52 55 56 55 53 52 51 52 50 49 50 52 52 48 45 46 46 46 44 43 43 43 41 39 38 38 36 34 32 30 29
34 34 47 50 49 52 52 50 52 51 54 52 51 53 54 52 51 52 51 50 51 49 47 47 49 50 45 44 45 44 43 42 41 41 40 39 38 36 34 34 32 31 29 27
37 46 48 51 53 53 55 53 55 55 53 52 52 52 50 50 49 49 48 48 49 49 46 44 46 46 45 45 45 43 41 38 37 35 34 34 34 34 32 32 32 30 28 26
40 46 49 52 52 54 54 56 54 56 54 54 53 51 49 50 49 49 49 49 48 46 44 42 44 43 44 44 43 38 36 34 32 31 31 31 31 32 30 30 31 29 27 26
33 43 41 47 52 54 53 54 56 54 55 56 56 55 52 48 49 49 46 46 44 43 42 41 41 40 40 41 40 36 32 31 30 30 29 30 29 29 32 32 32 31 30 28
40 42 43 46 51 50 51 51 54 54 52 51 54 54 51 47 47 43 41 39 38 37 37 37 36 35 36 37 36 34 31 31 30 30 29 27 27 27 24 29 31 31 30 29
41 42 43 45 42 43 43 46 44 42 40 42 47 49 45 41 39 38 36 35 35 34 33 33 33 32 34 34 34 32 32 31 31 30 30 29 28 28 28 26 23 24 27 28
38 42 41 42 40 38 39 39 36 34 34 32 35 36 36 33 31 31 32 32 31 30 29 29 29 29 32 32 31 30 30 28 28 27 27 27 27 27 27 26 25 24 24 24
36 41 40 37 35 33 33 32 30 29 30 29 28 27 27 27 27 27 27 28 27 25 27 26 26 27 29 29 28 27 27 26 26 26 25 25 25 24 24 24 23 23 22 21
33 33 32 34 32 30 29 30 29 27 27 27 26 27 27 25 25 23 23 24 23 22 23 23 23 25 26 26 26 25 24 24 24 23 22 22 22 22 21 21 20 20 18 18
32 31 30 31 29 28 27 27 27 27 26 26 24 23 22 22 20 20 20 21 20 20 21 22 23 23 23 24 24 23 23 22 21 20 20 20 20 20 19 19 18 18 18 18
28 27 27 27 27 26 25 24 24 23 23 23 22 20 20 20 20 19 20 18 17 16 18 21 23 22 22 22 22 22 21 20 19 19 19 18 17 17 17 16 15 15 14 13
25 25 25 24 25 25 23 23 23 22 22 22 20 19 18 18 18 17 17 15 16 17 20 20 21 21 20 20 21 20 18 18 18 16 16 16 15 13 14 13 12 9 7 7
22 23 22 22 21 22 22 22 21 20 20 20 19 18 18 18 18 18 15 14 16 18 18 18 19 19 19 19 18 17 16 15 14 12 11 9 9 8 6 6 6 4 1 -1
22 21 21 21 20 20 21 21 21 20 20 20 20 19 17 16 15 15 15 14 16 16 17 17 16 16 16 16 15 13 13 11 10 9 8 7 5 2 -0 -2 -3 -4 -7 -8
22 22 21 20 20 20 20 20 20 20 18 18 17 17 16 17 17 14 11 16 17 16 16 14 13 11 11 10 9 8 7 5 4 3 0 -3 -5 -8 -9 -9 -9 -12 -11 -5
21 21 21 22 22 20 18 19 20 19 18 18 16 16 17 13 13 15 14 11 10 10 9 8 6 4 3 3 1 -1 -3 -6 -9 -11 -9 -13 -19 -19 -18 -18 -14 -16 -15 -14
18 18 18 18 17 18 18 18 18 17 16 16 16 17 16 16 12 12 11 11 11 8 6 1 -0 -3 -5 -8 -9 -13 -14 -15 -15 -17 -18 -19 -20 -20 -20 -18 -19 -19 -19 -21
17 15 14 15 15 15 15 15 12 12 12 10 10 9 9 11 11 10 7 5 5 2 -0 -7 -8 -8 -9 -10 -15 -16 -15 -10 -13 -15 -18 -20 -20 -18 -20 -19 -21 -22 -23 -25
13 14 13 12 12 11 10 9 8 6 1 -2 3 5 7 8 5 3 -3 -4 -6 -8 -12 -14 -14 -12 -14 -17 -15 -16 -15 -16 -16 -16 -22 -22 -21 -21 -21 -22 -25 -26 -26 -27

GFSNGP_sfc_temp_048.txt.gz
Temp
42 43 42 42 42 43 40 40 35 41 43 49 53 56 58 58 58 58 60 59 57 56 57 59 58 60 61 61 60 60 60 59 59 59 60 60 60 60 60 58 58 60 58 56
33 42 42 39 42 43 44 44 42 44 45 53 57 55 54 57 57 58 59 60 60 59 57 57 59 59 61 61 60 60 60 59 60 60 60 59 60 59 59 59 59 58 56 52
30 36 38 31 38 43 44 46 45 38 46 55 55 55 55 57 57 57 59 60 60 60 60 59 58 59 59 61 58 59 59 60 59 59 59 59 60 59 57 56 53 52 50 49
27 30 24 39 45 47 44 46 46 46 48 52 56 60 60 58 58 58 59 60 60 59 58 59 58 55 54 55 56 57 57 56 55 56 57 57 54 53 49 49 50 47 47 46
23 26 33 39 44 44 42 45 48 48 49 50 53 54 56 58 59 60 60 60 62 64 61 59 55 53 54 54 54 54 54 55 55 55 51 50 49 48 46 47 46 45 44 44
30 22 19 35 45 49 46 34 45 46 46 48 49 40 54 60 59 59 58 57 56 55 53 54 52 53 53 53 55 53 53 52 51 51 49 48 45 43 42 42 40 40 37 38
31 28 31 41 46 48 32 35 47 48 47 47 44 48 54 57 57 59 59 58 54 52 52 52 51 53 50 51 51 49 49 49 49 48 46 43 42 41 40 38 35 34 33 33
32 28 25 45 45 39 44 48 47 48 48 47 50 51 52 52 52 52 52 49 49 50 48 48 51 51 48 45 46 47 47 45 44 43 43 42 41 40 38 36 33 31 30 29
33 33 42 46 47 50 50 47 49 48 51 52 50 51 52 50 49 47 47 46 47 46 44 45 47 48 43 42 44 45 44 42 41 40 40 40 38 37 35 34 32 31 30 28
35 41 44 46 49 50 52 50 53 54 55 54 51 51 51 48 47 46 45 44 46 46 44 43 45 44 44 45 44 43 39 37 36 36 35 34 33 35 34 32 31 31 30 27
38 42 43 48 47 47 49 52 54 54 55 53 53 52 50 48 47 46 44 44 45 42 41 40 42 42 44 43 41 37 35 33 33 32 31 30 30 31 32 32 34 32 30 28
31 38 39 40 45 44 46 44 47 52 52 52 49 49 49 44 44 44 42 42 40 39 38 38 38 38 39 39 38 35 32 32 31 31 31 31 30 28 31 32 31 31 30 28
39 40 39 41 44 42 41 42 43 42 40 39 43 45 44 40 38 38 38 37 36 34 34 34 33 32 34 35 35 33 31 31 30 30 30 29 28 27 24 27 29 29 29 28
42 40 40 41 38 39 39 40 40 38 36 34 36 37 34 33 32 31 30 31 32 31 30 30 30 30 32 33 33 31 31 31 30 29 28 27 26 26 26 25 23 24 28 28
37 38 40 40 37 35 36 35 32 30 30 29 30 29 29 27 27 28 30 30 30 29 28 29 28 28 30 31 30 29 28 28 28 27 27 27 27 27 27 26 24 23 24 24
35 37 38 36 32 31 31 30 28 27 28 27 27 26 26 26 26 25 26 27 25 24 25 24 25 26 28 28 27 26 26 26 26 25 25 24 24 24 24 23 23 22 21 20
31 30 30 31 30 28 27 29 28 27 27 26 25 26 26 25 24 22 22 22 22 21 22 22 22 24 25 25 25 24 23 22 22 22 22 22 21 21 21 20 19 18 17 18
29 28 28 28 27 26 25 26 25 25 23 23 22 21 19 19 18 18 19 20 19 19 21 21 22 22 22 23 23 22 21 21 20 20 20 19 18 19 18 17 17 17 15 14
26 25 25 26 25 25 24 23 22 22 21 20 19 17 17 17 17 17 18 17 17 16 18 20 22 21 21 21 21 20 19 18 19 18 17 16 16 16 15 14 13 12 12 12
23 24 24 22 23 22 21 21 21 20 20 19 18 17 15 15 16 15 15 13 15 17 19 19 19 18 18 19 19 18 17 16 16 15 14 12 10 9 10 9 9 5 1 0
21 21 21 20 19 20 20 21 20 18 18 17 16 14 14 15 15 16 14 12 15 17 17 17 17 16 17 17 17 14 13 12 10 9 8 6 4 2 -2 -6 -6 -9 -10 -9
20 20 19 19 19 18 19 19 19 18 18 17 17 16 15 13 13 13 14 13 15 15 15 14 13 13 13 13 12 10 9 7 4 3 -0 -3 -6 -10 -14 -15 -15 -15 -16 -13
20 20 20 19 18 17 18 18 17 17 16 15 14 14 14 15 15 12 10 14 14 12 11 8 6 5 4 4 2 -0 -1 -3 -4 -7 -11 -14 -18 -19 -17 -17 -18 -18 -17 -15
19 20 20 20 20 19 16 17 17 17 16 16 13 14 14 11 10 13 11 7 4 3 2 0 -1 -2 -4 -5 -6 -8 -10 -12 -15 -18 -16 -19 -24 -23 -22 -22 -18 -21 -21 -20
17 17 18 17 17 16 16 16 15 14 14 13 13 14 14 13 8 9 8 6 7 2 -3 -6 -6 -9 -12 -15 -16 -16 -17 -19 -21 -21 -22 -23 -23 -23 -24 -23 -24 -23 -24 -25
16 14 13 14 13 13 13 12 9 10 11 8 7 6 6 8 7 5 2 -0 -0 -5 -8 -15 -17 -17 -18 -17 -20 -20 -18 -15 -18 -19 -22 -22 -22 -21 -22 -22 -25 -25 -27 -27
12 12 12 10 10 9 8 7 5 1 -3 -5 -1 2 3 -0 -3 -3 -10 -11 -13 -16 -19 -20 -19 -16 -18 -19 -18 -19 -18 -19 -20 -19 -25 -24 -24 -25 -26 -26 -28 -29 -30 -29

GFSNGP_sfc_temp_051.txt.gz
Temp
46 46 45 44 45 46 43 45 40 46 47 53 57 60 62 66 66 66 67 68 66 65 66 66 65 65 66 66 64 64 63 63 62 62 63 64 63 64 63 63 64 65 64 64
37 44 44 41 44 46 46 47 47 47 46 58 61 62 59 61 64 64 66 68 68 65 66 63 64 65 66 66 65 64 64 62 64 64 63 63 64 63 64 64 64 63 63 62
34 38 39 35 41 44 47 51 50 44 53 56 55 58 60 62 63 64 65 67 67 67 66 65 65 64 66 66 66 64 64 64 64 64 63 63 64 64 64 64 64 62 61 59
31 34 26 44 49 49 47 50 53 52 53 55 56 58 59 62 63 64 66 66 67 68 68 68 67 67 66 69 66 64 64 64 64 64 63 64 63 62 62 61 59 56 53 51
30 31 38 43 48 48 44 47 51 49 52 54 56 55 57 62 62 62 62 65 68 70 69 69 67 66 64 64 64 64 63 63 63 63 63 62 60 53 50 49 47 46 46 45
32 28 25 40 48 53 52 40 53 52 53 53 53 45 54 61 60 58 60 62 63 67 65 65 68 63 63 62 61 61 62 62 61 61 55 52 49 46 44 43 41 40 38 39
32 30 36 46 50 52 38 43 53 53 55 52 50 53 56 57 57 60 59 60 62 62 62 63 61 61 60 60 59 55 54 54 53 53 49 46 43 43 41 38 36 34 33 34
34 29 27 49 49 43 50 53 54 55 55 53 54 54 56 57 57 57 55 55 58 59 56 54 57 57 56 52 50 50 48 46 45 45 45 43 41 39 38 36 33 32 30 30
38 39 47 50 50 54 53 51 53 53 56 55 54 54 54 55 55 53 53 52 52 52 50 51 53 52 46 46 48 46 44 43 43 43 41 41 38 36 35 35 33 32 30 28
39 46 48 51 52 48 49 49 51 53 55 56 53 52 50 53 52 50 51 50 50 49 47 44 48 50 48 47 46 43 40 38 38 37 36 36 37 36 35 33 32 32 31 29
41 46 46 50 46 44 46 48 48 49 51 44 45 45 46 48 45 45 46 45 45 43 41 41 42 43 44 44 43 39 37 36 35 35 33 32 32 33 33 35 37 36 33 32
39 39 38 41 47 44 43 42 44 43 43 41 40 40 41 37 39 37 39 41 40 39 38 37 38 38 39 41 41 39 37 37 36 35 35 34 31 29 31 32 31 31 30 29
40 41 42 44 45 41 39 39 41 39 37 35 37 37 36 33 33 33 33 34 33 32 32 32 35 34 35 36 37 36 35 35 34 34 33 31 30 29 26 28 30 29 29 29
40 39 41 41 37 38 38 38 38 36 34 32 34 34 32 31 31 30 29 30 31 31 30 30 30 29 31 32 33 31 30 30 30 29 29 28 27 27 28 27 26 27 28 29
36 37 36 39 37 35 36 36 33 30 30 29 30 29 29 27 26 27 29 29 29 28 27 27 27 27 29 30 29 29 28 28 28 28 28 29 30 29 28 28 26 25 24 24
34 37 36 34 32 31 31 31 30 28 29 28 27 26 25 25 24 24 25 25 24 22 24 23 24 25 27 26 26 26 26 26 26 27 26 26 26 26 26 26 25 24 23 22
29 30 30 29 28 27 27 28 28 27 25 25 24 24 24 22 21 21 21 21 21 20 21 21 21 23 24 25 25 25 25 24 23 23 23 23 23 22 23 22 22 21 20 20
28 27 27 27 26 25 24 24 24 23 21 21 21 20 19 18 17 17 19 20 20 19 20 21 22 23 22 23 24 24 24 23 22 21 22 22 22 22 22 21 20 18 17 16
26 25 26 25 25 24 23 22 21 21 20 19 18 16 16 16 17 17 18 18 17 16 17 20 21 21 21 22 24 24 23 21 21 20 20 19 19 19 18 17 16 16 16 15
23 23 23 22 23 22 20 20 20 19 19 18 17 16 16 16 17 16 16 14 15 16 18 18 19 18 18 19 20 21 20 19 17 16 16 16 15 14 14 12 13 13 13 12
21 21 20 19 18 19 19 19 18 16 17 16 15 14 14 15 16 16 15 12 14 16 17 16 17 17 18 18 18 16 16 14 13 13 12 11 11 10 10 10 10 9 9 9
20 19 18 18 17 17 18 18 18 17 17 17 16 16 15 14 13 12 13 12 14 14 15 14 14 10 13 14 14 13 12 11 11 11 10 10 9 8 7 7 6 6 6 6
20 19 19 17 17 17 17 17 16 16 14 14 13 13 13 13 15 12 9 13 14 12 12 10 7 6 7 10 10 9 8 7 7 6 6 6 6 6 5 5 4 5 4 4
19 19 19 19 19 18 16 17 18 17 16 15 13 14 15 11 12 13 12 8 7 7 7 6 4 2 5 7 6 5 6 6 5 5 4 0 3 3 3 2 2 3 2 1
18 18 18 18 17 16 16 16 16 15 14 13 13 14 14 14 11 10 10 8 7 7 5 -1 -2 -1 5 5 5 4 4 4 3 4 3 2 1 1 1 1 -1 -0 -1 -2
16 15 15 14 15 15 14 14 12 13 13 10 9 9 9 9 9 9 6 5 5 3 3 2 1 3 3 3 2 2 3 4 3 2 1 0 0 1 -1 -2 -3 -4 -4 -5
13 14 14 12 12 11 11 10 10 7 6 7 6 8 7 6 5 5 1 3 3 2 2 1 1 0 2 3 3 2 2 2 -4 1 -1 -0 -1 -2 -4 -5 -6 -6 -7 -8

GFSNGP_sfc_temp_054.txt.gz
Temp
50 50 51 50 51 52 50 51 46 52 53 60 64 66 69 71 72 74 76 77 79 79 81 80 78 76 76 76 74 73 72 72 70 70 70 70 69 69 69 69 69 70 70 70
44 50 49 46 51 53 53 53 53 55 55 67 68 70 68 69 70 70 73 76 78 80 80 78 77 77 77 76 74 73 71 71 72 71 70 69 70 69 69 68 69 69 69 69
40 45 46 40 48 52 54 59 57 51 60 65 63 64 65 66 67 67 69 71 74 76 78 78 77 74 74 76 77 74 72 72 72 72 70 69 70 70 69 69 69 69 69 69
40 39 30 51 56 55 53 57 60 59 60 61 62 65 66 68 67 64 65 66 69 73 75 80 81 79 78 80 77 75 72 72 72 71 70 71 70 69 69 69 68 67 66 65
35 38 45 49 54 53 51 53 58 58 60 62 63 64 65 68 67 65 65 66 68 72 74 76 78 79 74 78 79 76 73 73 74 72 70 70 69 68 68 66 63 57 55 53
37 32 29 48 54 58 58 45 59 59 58 59 61 53 60 66 66 66 68 68 67 67 70 73 76 78 75 72 74 74 74 74 74 72 71 70 69 65 55 51 43 41 39 40
36 34 42 54 58 58 42 45 58 59 60 59 56 60 63 64 65 67 65 65 65 64 65 70 73 72 72 72 70 73 73 71 71 71 67 60 54 48 43 39 37 35 34 35
39 32 30 57 54 47 52 58 58 60 60 59 61 61 62 62 62 63 62 62 63 60 61 63 65 67 69 69 61 61 58 55 52 50 48 47 43 41 41 38 35 33 32 31
45 44 54 57 56 58 57 55 56 56 58 60 61 60 58 58 58 59 60 59 57 54 53 51 55 61 61 52 52 50 47 45 43 43 42 42 42 40 37 36 34 32 31 29
47 53 55 58 59 55 55 54 55 56 56 57 55 58 57 57 53 52 49 52 48 45 43 41 43 45 47 47 47 43 40 39 39 38 38 39 38 38 36 34 33 31 30 28
49 54 57 58 54 52 52 53 53 54 53 52 50 53 50 50 46 44 38 38 41 39 38 38 39 40 41 42 41 38 37 36 35 34 33 31 31 33 33 34 35 32 31 30
44 49 48 49 53 49 49 49 50 48 49 49 47 46 46 43 41 36 34 33 34 34 33 33 34 36 38 40 40 37 34 34 33 32 32 31 30 29 31 31 31 31 31 30
46 47 49 51 53 47 46 46 46 45 44 42 44 43 42 38 35 33 32 31 30 30 30 31 31 32 33 35 36 34 33 33 32 31 31 30 30 29 26 28 30 30 30 30
43 40 44 41 41 42 42 42 42 43 41 40 40 40 37 34 32 30 27 28 28 27 27 28 28 28 31 32 31 30 30 30 29 29 29 29 28 28 29 28 26 27 29 29
39 41 38 40 38 36 38 38 39 36 36 35 34 33 31 28 27 26 27 28 27 25 25 25 26 26 29 29 28 28 30 30 30 30 30 30 30 29 29 28 26 25 25 25
39 42 38 35 33 31 32 31 33 30 30 29 28 27 25 26 26 24 24 24 22 21 22 22 23 24 27 29 28 28 28 28 28 28 28 28 29 28 27 26 25 24 24 25
33 35 34 33 32 28 27 28 27 25 25 25 24 26 26 24 23 22 21 21 21 22 23 23 23 26 27 28 29 28 27 26 26 27 27 27 27 27 26 25 24 22 21 22
31 30 31 30 30 28 26 26 25 24 23 23 22 21 20 20 20 20 20 21 20 19 21 23 24 25 27 28 29 29 28 26 27 26 26 26 26 26 25 25 24 22 21 21
29 28 27 28 27 26 25 23 22 22 22 21 20 18 19 18 18 18 19 19 18 18 19 21 23 24 24 26 28 28 27 26 25 25 24 23 23 23 22 22 21 21 21 20
25 24 25 24 24 23 21 21 21 20 20 20 19 19 18 18 18 18 17 15 16 17 19 22 23 23 23 23 25 26 24 23 22 22 22 22 22 20 19 18 20 19 19 18
22 22 20 20 20 20 20 20 19 18 18 18 17 16 15 15 17 18 17 15 16 19 20 19 20 22 22 24 24 22 22 20 20 19 19 18 18 18 17 17 17 17 16 16
21 20 19 19 19 18 19 19 19 18 18 17 18 17 16 15 15 15 15 16 18 16 18 17 17 14 18 19 20 18 18 18 18 17 16 16 16 15 14 14 14 14 14 14
21 20 19 19 18 19 19 18 18 17 16 16 16 16 17 18 20 17 14 17 18 15 16 14 11 13 14 16 16 16 15 15 14 14 13 13 14 13 13 12 12 12 11 11
22 22 21 21 21 20 19 20 20 19 17 17 16 17 20 18 17 19 17 13 11 12 11 10 10 11 13 15 14 14 14 13 13 13 12 10 12 11 11 10 9 11 9 8
21 21 22 22 22 21 20 20 20 19 18 18 18 18 18 19 16 15 15 13 11 13 13 8 8 10 13 13 12 12 12 11 10 12 11 10 10 9 10 9 7 7 6 6
21 21 20 20 21 22 22 22 20 20 19 16 16 16 16 16 16 16 13 12 12 11 12 11 10 12 12 11 11 10 11 11 11 10 9 9 8 8 7 6 5 5 4 4
20 21 21 20 20 19 20 20 18 16 17 16 14 15 15 15 13 14 11 13 12 11 11 11 11 9 10 11 10 10 11 11 3 8 8 8 7 7 4 3 4 3 2 1

GFSNGP_sfc_temp_057.txt.gz
Temp
54 55 55 56 55 56 54 56 50 55 57 64 67 69 72 74 73 73 76 76 77 79 83 85 84 83 82 81 81 79 78 77 75 73 74 73 73 73 73 72 73 73 72 72
45 53 52 50 55 57 58 58 57 59 58 70 72 72 70 71 71 70 71 71 73 74 77 79 82 85 83 82 81 80 77 77 78 76 74 73 73 72 72 71 72 72 71 71
35 48 49 42 51 54 56 60 59 53 62 68 66 67 68 69 69 69 69 69 69 71 73 75 78 81 82 84 82 80 79 78 77 77 75 73 73 73 72 71 72 71 70 70
39 42 28 52 61 61 58 61 64 63 64 65 65 68 69 71 70 67 68 68 69 71 71 73 75 78 80 84 83 81 79 78 78 77 75 75 73 73 71 71 70 70 70 70
37 39 48 53 57 56 54 56 63 62 62 64 66 66 68 70 69 68 69 69 69 70 70 70 71 75 78 81 82 83 80 79 78 77 76 75 73 72 71 71 70 69 69 68
41 34 33 50 60 62 62 48 63 62 61 61 63 54 63 68 69 69 71 70 68 68 68 68 68 70 72 77 80 78 82 81 80 79 77 74 73 71 71 69 63 50 42 42
38 37 45 58 61 62 43 47 60 61 61 61 58 61 66 68 67 69 69 68 66 64 61 59 58 59 62 69 72 79 80 81 79 78 76 75 74 72 56 48 41 37 35 35
39 35 33 61 59 49 52 59 60 60 60 58 62 65 66 65 65 65 65 64 63 59 55 51 48 48 51 60 66 67 69 69 61 60 58 55 50 46 44 40 36 34 33 32
46 45 57 62 58 59 59 57 58 58 60 60 60 62 63 63 64 61 60 58 57 54 48 44 41 42 42 46 51 53 54 50 46 45 45 44 42 39 37 37 34 33 32 29
44 55 54 59 60 60 59 58 59 60 59 59 57 58 59 58 57 55 54 51 50 47 44 37 36 37 38 42 44 42 40 39 39 37 37 38 38 38 36 34 34 32 30 28
50 55 58 61 58 56 57 58 57 58 57 56 54 54 54 54 50 47 44 42 43 39 39 34 34 34 35 38 39 36 35 34 33 33 32 30 31 32 32 33 33 31 29 29
46 52 53 55 57 56 53 53 54 52 52 52 52 50 50 46 41 38 36 34 34 32 34 31 31 32 33 35 35 34 32 32 31 30 30 30 29 28 31 31 31 30 30 29
49 50 51 53 55 52 50 50 49 48 47 46 48 47 43 37 35 34 33 31 29 28 28 29 28 28 30 32 32 32 32 32 30 30 29 28 28 27 25 28 30 30 30 30
49 48 47 46 44 46 46 47 47 46 44 42 41 40 37 33 32 29 28 28 28 26 26 27 27 27 29 30 31 30 30 30 30 30 29 29 28 27 27 26 24 24 28 28
45 47 46 45 42 40 41 41 39 36 35 34 33 31 30 28 26 25 27 28 27 26 25 26 26 26 29 30 28 29 29 30 31 30 29 29 28 27 26 25 24 24 25 25
43 46 43 39 38 39 38 37 35 31 31 29 27 26 25 26 24 24 25 25 24 23 24 24 25 27 30 30 29 28 29 29 29 28 29 29 28 27 26 25 25 25 24 26
36 38 35 35 35 33 32 32 31 30 28 27 26 27 26 26 25 24 23 23 22 22 23 23 23 26 28 30 29 29 28 28 28 29 30 29 29 27 26 24 22 21 21 24
33 32 32 32 32 32 29 28 28 27 25 25 24 23 21 21 20 21 21 22 21 21 21 22 23 24 25 27 28 28 27 27 27 27 27 27 27 27 26 24 23 21 21 22
30 29 29 29 29 28 26 25 24 24 23 22 21 19 19 19 19 19 19 19 19 18 19 24 25 25 25 27 28 27 27 26 26 26 25 24 24 24 23 23 23 23 22 21
26 27 26 25 25 23 22 23 23 22 22 22 21 19 18 19 20 20 19 16 17 19 20 21 25 24 25 25 26 26 26 24 23 23 23 24 23 22 21 21 21 20 20 19
24 23 22 22 21 21 21 21 21 19 19 19 17 16 15 16 16 21 20 18 17 20 21 20 20 23 25 25 26 24 23 22 22 21 21 21 20 20 19 19 19 19 18 18
23 21 21 21 20 20 21 21 20 19 19 19 19 20 20 20 18 17 17 18 19 18 19 19 19 17 21 21 23 21 20 20 20 20 19 19 18 17 17 17 17 17 16 16
23 22 22 21 20 19 20 20 19 19 18 18 18 18 18 19 20 18 14 17 18 16 18 15 14 16 17 20 20 19 18 18 17 17 17 16 16 16 15 14 15 15 14 13
24 23 23 24 24 24 22 22 23 21 19 19 18 19 23 20 19 21 19 16 15 15 12 12 14 15 17 18 17 17 17 17 16 16 16 14 15 14 14 12 12 14 12 12
24 24 25 25 25 24 23 23 23 23 22 22 21 21 20 21 18 17 18 17 14 17 16 12 13 14 16 16 15 16 15 14 12 15 14 14 13 13 13 12 11 10 9 10
25 25 24 25 25 27 26 27 25 25 24 21 20 19 19 20 20 20 17 16 16 16 16 16 13 16 16 15 15 13 14 14 14 13 12 13 12 12 10 9 9 9 8 8
25 26 26 25 24 23 24 24 23 21 21 20 18 19 19 19 17 18 16 17 17 16 16 16 15 13 13 13 14 14 14 14 8 10 11 11 10 10 9 8 8 7 7 6

GFSNGP_sfc_temp_060.txt.gz
Temp
48 51 51 51 50 54 50 47 41 49 52 55 57 60 69 72 71 70 71 71 70 70 71 73 73 74 78 78 76 74 71 73 71 70 69 68 67 67 67 67 68 68 68 68
41 50 53 50 53 48 48 57 56 53 48 62 66 71 68 68 69 68 68 67 68 70 71 70 70 71 73 75 77 77 73 72 74 72 71 69 69 68 68 67 68 68 67 67
35 46 47 41 50 51 50 59 58 50 59 64 65 66 66 66 67 65 66 66 66 67 67 68 68 69 69 72 75 76 75 74 74 73 72 70 70 69 68 67 67 66 66 66
33 37 29 50 61 60 56 59 61 61 62 64 65 67 68 68 64 64 65 65 65 65 65 66 67 66 66 69 71 74 77 76 75 74 73 72 70 68 67 67 66 65 65 65
31 34 40 48 55 55 53 53 63 61 64 65 66 64 63 67 67 65 65 66 64 64 63 62 59 58 58 61 65 68 70 76 77 75 73 72 70 68 68 66 65 64 65 63
37 31 28 48 58 63 62 46 62 62 60 60 61 50 53 64 67 66 66 64 62 61 61 57 53 52 52 54 57 59 60 65 69 77 74 72 70 68 67 66 64 57 43 41
35 33 42 57 61 62 42 42 57 59 58 57 54 58 63 66 65 66 64 61 58 57 55 51 47 46 46 47 48 49 53 59 57 57 69 71 69 67 64 51 41 37 35 35
37 33 32 61 59 49 50 53 55 56 58 56 58 60 61 62 62 60 58 56 53 51 50 48 44 43 41 41 43 46 48 53 50 48 50 50 48 45 44 41 37 34 33 32
43 42 56 61 55 58 58 54 53 55 58 57 57 57 59 57 56 54 51 49 48 45 44 43 41 41 37 38 41 42 41 41 41 41 41 42 41 39 37 36 34 32 31 29
44 52 56 54 57 58 58 56 57 57 56 56 53 55 54 53 48 45 43 39 40 38 37 35 37 37 36 37 39 37 35 34 34 32 33 35 37 38 36 34 32 31 30 28
47 49 46 47 51 54 55 55 53 54 53 51 51 50 48 43 41 39 37 35 35 33 33 32 34 33 35 35 37 34 33 32 31 31 30 30 30 30 30 31 32 30 28 29
40 46 45 43 50 54 50 49 49 48 47 48 47 44 43 37 36 34 32 31 30 29 29 30 31 31 33 34 34 32 30 30 29 29 29 29 29 28 31 31 31 31 31 30
45 50 50 50 49 49 48 47 48 46 44 41 41 40 38 33 32 31 30 28 27 26 27 28 29 29 30 32 32 31 30 30 29 28 28 27 27 27 24 27 30 30 30 30
48 49 48 45 41 44 44 45 46 42 39 36 35 35 33 31 29 28 26 27 27 26 26 27 28 28 30 30 30 30 30 29 29 28 27 26 25 25 24 23 22 23 28 28
44 48 43 44 44 42 43 42 37 35 34 32 31 29 28 26 25 24 25 27 27 26 24 25 26 27 29 30 28 28 28 28 28 28 27 27 26 25 25 24 23 23 23 24
42 45 44 40 39 38 37 37 34 31 30 30 28 27 27 26 25 24 24 24 22 21 22 22 23 26 28 28 28 28 27 27 28 27 26 25 24 23 22 21 21 21 22 22
34 32 34 34 35 32 31 31 31 28 28 27 27 27 26 25 24 23 21 21 21 20 21 21 21 24 26 27 27 26 25 25 26 25 25 25 23 22 21 20 19 20 20 21
32 31 31 30 30 29 27 27 26 26 23 23 22 21 19 18 17 18 19 19 19 17 19 21 23 23 24 25 26 26 25 25 25 24 24 23 23 23 22 21 21 20 19 20
30 29 28 28 28 27 25 24 23 23 22 21 20 19 19 18 17 16 17 16 15 14 16 21 24 24 24 25 27 26 24 23 23 23 22 20 19 21 21 20 19 18 18 17
26 26 25 24 25 24 22 22 22 20 20 20 19 17 15 16 19 17 16 14 16 17 19 19 22 22 23 24 24 24 22 22 21 20 19 19 19 18 18 18 18 17 16 15
23 22 21 21 20 20 20 20 19 18 18 19 17 15 15 16 15 17 17 14 16 19 19 19 18 21 22 22 22 20 19 19 18 18 17 17 16 16 16 16 15 14 14 14
22 21 20 20 19 19 20 20 20 19 18 18 18 19 19 17 15 14 14 15 16 16 16 16 17 16 19 19 20 18 17 17 16 16 15 15 14 13 13 13 12 12 12 12
22 22 21 20 19 19 20 19 19 19 18 17 17 17 17 17 17 14 11 15 16 14 15 14 13 14 15 17 17 16 16 15 14 13 14 13 12 12 11 9 11 10 9 8
24 23 23 23 24 23 21 21 22 20 18 19 17 16 20 18 17 18 17 14 13 11 11 12 11 13 14 15 15 14 12 11 13 13 13 10 11 11 11 7 8 8 7 6
25 25 25 25 24 22 23 23 23 23 22 21 21 21 20 19 16 15 16 15 12 16 14 8 11 12 14 14 12 12 13 11 10 10 11 10 10 9 8 8 6 5 4 5
26 25 24 25 25 26 26 26 24 23 23 19 19 19 19 19 19 18 16 15 15 15 15 14 12 12 13 13 12 11 12 11 9 9 9 9 8 8 7 5 4 5 4 2
26 25 25 24 23 22 22 21 21 19 19 19 17 19 18 18 16 17 14 16 16 15 15 15 14 11 10 10 12 11 11 11 5 6 7 8 7 7 5 3 3 2 1 0

GFSNGP_sfc_temp_063.txt.gz
Temp
41 44 46 42 42 48 45 45 38 43 43 50 49 52 59 63 64 62 62 62 63 61 62 63 63 64 64 64 64 65 65 65 61 61 61 61 61 62 63 63 63 64 63 63
37 46 46 44 46 50 46 47 48 46 43 52 52 53 56 62 61 59 59 61 61 61 61 61 59 58 58 59 61 65 65 66 67 64 62 61 61 61 62 62 62 63 63 64
31 40 39 35 45 45 44 46 47 38 50 53 51 55 58 56 59 59 58 58 58 58 58 56 53 53 51 54 58 60 62 65 67 67 65 64 64 63 62 62 63 62 63 64
29 35 26 44 51 53 48 48 52 57 56 60 58 58 58 58 57 57 56 56 55 55 53 51 49 48 49 52 53 55 54 54 57 59 64 67 65 64 64 64 63 63 63 63
27 30 37 43 49 50 49 49 57 57 58 58 58 56 55 61 60 56 53 53 54 53 50 47 44 45 47 48 48 49 47 49 52 56 54 54 63 64 65 64 64 63 63 63
28 27 25 40 52 59 57 38 53 53 53 53 53 43 49 57 56 53 52 51 50 50 47 43 42 43 44 43 44 42 44 46 49 52 49 49 50 56 65 65 63 62 48 42
29 27 34 50 55 60 39 37 50 52 51 50 47 49 53 53 50 49 46 45 46 45 42 40 41 41 40 40 39 42 44 46 46 45 44 45 45 45 58 54 41 38 36 36
28 26 26 55 49 44 44 48 50 50 50 49 51 53 50 47 44 41 39 40 40 39 38 37 37 37 36 35 38 40 41 40 38 38 38 40 41 41 42 41 39 37 35 33
35 33 46 51 49 50 50 49 49 49 51 51 49 47 44 41 40 37 36 36 37 37 35 34 34 34 33 34 37 38 37 35 34 34 34 34 33 35 37 38 36 34 33 31
39 42 43 44 48 52 51 49 50 50 49 49 46 44 40 38 36 35 34 33 34 33 31 30 32 33 33 34 36 35 33 32 32 31 31 31 32 32 31 33 33 32 31 29
39 42 42 42 43 45 47 49 48 48 46 45 43 39 37 34 34 33 31 31 31 29 29 29 31 31 33 33 34 32 31 30 30 30 30 29 29 29 29 30 31 29 30 30
34 39 40 39 44 45 43 45 44 43 39 39 39 36 34 31 30 29 27 28 28 28 28 29 29 29 30 32 32 31 29 28 28 27 28 28 28 27 30 31 31 31 31 31
34 42 40 40 41 45 44 40 39 37 37 34 35 33 31 29 28 28 27 26 25 25 26 27 27 27 29 30 30 29 27 27 27 26 26 25 25 25 23 26 29 30 31 31
44 44 38 40 37 42 42 39 37 34 33 32 31 30 28 26 26 25 24 24 25 24 24 24 25 25 27 28 27 27 27 27 26 25 25 24 24 23 23 21 20 21 26 27
40 42 40 40 37 36 38 36 31 29 28 26 27 26 25 23 22 21 23 24 23 21 20 21 21 24 27 27 26 26 26 26 26 25 24 23 23 22 22 22 21 20 21 21
38 37 37 34 32 31 31 30 27 26 26 26 25 24 23 22 21 20 20 21 19 17 19 19 20 23 25 25 24 24 24 25 25 24 23 22 21 20 20 20 19 19 19 19
29 27 30 28 27 26 26 26 26 24 22 22 22 23 22 21 20 18 17 17 16 16 17 19 19 22 24 24 25 24 23 23 23 23 23 22 21 20 19 19 18 17 17 18
29 28 27 27 25 24 23 23 22 22 20 19 18 17 16 15 14 14 14 15 15 14 15 19 21 22 23 24 24 23 23 23 22 20 20 20 21 21 19 18 18 16 15 16
26 24 25 25 24 23 22 20 20 20 19 17 16 14 13 13 13 13 14 13 13 11 13 17 22 21 20 23 22 21 20 19 20 20 20 18 17 18 16 15 14 14 14 14
22 22 21 20 21 20 17 16 16 15 13 13 12 12 10 11 11 11 12 11 12 13 15 16 18 20 20 20 20 19 18 17 17 16 15 15 13 13 14 13 13 12 11 11
18 18 17 16 15 15 14 11 13 13 13 13 10 6 6 10 10 10 11 9 11 14 15 15 15 17 19 18 18 15 14 13 13 13 12 10 10 10 10 9 9 8 8 7
17 16 13 12 14 15 13 13 13 13 13 13 12 13 11 10 8 10 10 10 12 11 12 12 13 12 15 15 15 12 13 11 10 9 7 7 2 -0 2 3 -0 -2 -0 5
18 17 15 13 14 14 13 15 13 12 11 11 11 11 12 13 12 7 5 13 12 8 11 8 7 8 9 7 6 5 6 8 5 1 1 -5 -5 -6 -6 -1 4 -1 -7 -1
20 19 19 19 19 19 16 16 18 17 12 15 11 13 16 11 11 13 11 7 6 -0 -0 3 5 3 1 -2 5 -1 -6 -5 -1 -3 -2 -3 -8 -5 -0 -10 -9 -12 -11 -1
22 22 22 21 21 19 19 20 19 19 18 17 17 17 16 15 5 6 4 4 8 10 1 -1 6 6 -1 -2 -6 -2 -1 -8 -6 -7 0 -6 -10 -4 -11 -12 -12 -7 -6 -9
23 20 19 19 18 18 19 21 17 16 17 12 8 4 2 6 10 10 9 8 5 5 3 -3 -7 -6 -7 -0 -6 -7 -0 -3 -8 -9 -8 -7 -10 -4 -9 -12 -11 -10 -12 -14
20 20 20 18 17 17 16 15 14 9 3 3 3 4 9 8 5 9 4 -0 4 -2 -2 -1 2 -2 -5 -6 -5 -5 -4 -5 -6 -5 -3 -6 -9 -9 -9 -13 -14 -14 -14 -13

GFSNGP_sfc_temp_066.txt.gz
Temp
39 42 43 44 40 41 41 40 36 41 43 49 48 48 52 56 58 58 56 57 57 55 54 53 53 53 54 54 56 59 61 59 58 58 59 60 60 60 61 61 63 63 62 61
34 42 43 40 43 43 39 42 45 45 44 52 49 50 52 55 57 54 53 55 55 54 51 50 49 48 50 51 52 55 54 54 61 61 60 59 59 59 59 60 61 61 62 61
28 38 38 32 41 45 46 46 44 38 47 50 47 48 50 54 53 52 52 52 51 49 47 46 45 46 46 48 50 50 50 50 52 53 56 60 61 60 59 59 60 60 61 61
27 32 24 42 50 51 46 47 48 47 47 50 51 50 52 55 51 49 50 49 47 45 44 43 43 43 45 46 46 45 45 46 48 49 52 52 53 56 60 60 59 59 59 60
25 26 35 42 48 46 44 40 49 45 49 51 55 50 47 50 49 47 47 47 44 43 41 40 40 42 42 41 41 41 42 43 46 47 47 47 47 48 49 49 58 60 60 59
26 25 22 40 50 54 54 35 49 52 49 52 51 36 40 46 44 42 43 43 42 40 39 37 38 40 39 38 38 38 40 42 43 42 41 42 43 43 46 46 47 56 60 60
26 24 31 47 52 54 35 35 49 50 49 48 42 43 43 43 40 41 40 40 40 38 34 34 35 37 36 36 35 39 40 39 38 38 37 39 38 40 42 42 41 41 40 36
28 25 24 48 49 41 44 48 48 48 48 43 43 42 40 39 37 36 35 36 37 34 33 33 34 35 33 33 37 38 37 36 34 34 34 35 34 35 38 38 36 34 33 32
32 31 40 44 44 48 50 46 46 47 47 45 42 39 38 36 34 34 33 32 33 32 31 31 33 33 31 33 35 34 33 31 32 32 32 33 32 31 32 34 33 32 31 29
36 39 39 40 43 47 47 43 44 46 44 43 39 38 36 34 32 31 30 29 31 30 28 28 31 31 32 33 33 31 30 29 30 29 30 30 31 31 30 30 30 30 29 27
37 39 40 40 40 42 44 44 41 40 40 39 36 33 32 30 29 28 27 28 28 27 27 27 29 29 31 32 33 30 29 29 28 28 28 28 28 29 29 30 30 29 28 29
32 38 36 38 41 43 38 37 38 36 34 35 34 31 29 28 28 26 25 25 25 26 26 26 27 27 28 31 29 27 26 26 24 25 24 25 26 26 29 29 30 31 31 30
33 36 34 36 41 40 36 36 35 33 32 30 30 30 29 27 27 26 24 23 21 21 22 23 24 24 26 26 28 27 26 25 24 24 23 23 23 22 20 24 27 28 28 29
39 39 34 36 34 38 35 33 32 29 29 28 27 27 26 25 24 22 21 21 22 20 20 20 22 22 24 24 23 23 22 22 22 21 21 21 21 22 22 20 19 19 23 25
38 37 35 34 34 34 34 32 28 26 26 25 26 25 24 22 20 20 22 22 22 20 18 19 19 20 23 22 20 22 24 22 20 20 20 21 21 21 20 20 19 18 18 19
34 36 34 31 29 30 29 29 26 25 25 23 22 21 21 20 18 17 18 18 17 16 18 17 18 20 21 21 18 20 20 22 20 20 19 18 20 20 19 18 17 16 15 15
29 28 28 26 26 26 25 25 24 23 23 23 21 21 21 19 17 15 14 15 14 13 13 15 16 19 21 20 20 21 20 19 18 20 20 20 18 18 18 16 15 15 14 15
27 25 28 27 24 23 22 23 22 21 19 18 17 14 12 12 11 11 11 12 13 12 12 13 16 16 17 18 17 18 17 18 18 17 17 17 17 16 16 15 15 14 13 13
25 24 24 23 22 21 21 20 18 18 16 15 13 11 11 11 11 10 10 10 9 9 10 12 20 16 16 19 18 17 16 14 15 15 16 14 13 14 13 12 11 11 11 11
20 20 20 19 20 18 16 15 15 14 13 11 9 8 9 3 3 5 5 4 3 6 10 13 15 16 16 16 14 15 13 12 13 11 10 10 10 9 10 9 8 7 8 7
15 15 14 14 13 13 11 10 11 9 7 6 7 5 5 5 4 2 5 6 7 11 12 12 13 14 15 13 13 8 9 8 8 7 5 2 2 4 3 1 3 3 3 1
13 13 12 12 13 12 11 10 11 10 10 9 6 6 7 6 6 7 4 7 10 5 9 10 11 6 9 9 10 6 7 5 4 3 1 -1 -2 -2 -4 -7 -9 -10 -9 -10
16 16 15 14 14 13 13 12 10 10 9 9 8 8 10 11 10 4 4 10 10 5 9 4 1 1 -0 -1 -2 -1 -0 0 -1 -4 -8 -10 -13 -13 -11 -11 -13 -14 -12 -9
18 18 17 17 17 17 15 16 17 14 10 13 11 11 13 6 1 11 9 3 -1 -6 -3 -2 1 -2 -5 -5 -7 -9 -9 -9 -7 -9 -8 -9 -13 -15 -16 -17 -16 -15 -13 -13
22 21 20 19 20 17 18 18 17 17 16 16 15 15 14 12 3 5 1 2 5 3 -3 -6 -2 -4 -8 -12 -9 -7 -11 -14 -15 -10 -11 -11 -11 -15 -17 -17 -15 -13 -16 -18
22 19 18 18 16 16 17 19 15 15 14 7 5 -2 -3 3 6 9 6 6 8 6 0 -7 -11 -12 -12 -10 -13 -10 -10 -9 -12 -13 -11 -14 -13 -13 -15 -16 -17 -16 -16 -16
18 17 17 15 15 15 15 14 10 9 8 5 4 1 2 -0 0 2 -4 -5 -5 -8 -9 -3 -4 -4 -5 -7 -8 -10 -11 -10 -12 -10 -14 -14 -14 -12 -16 -17 -18 -19 -19 -19

GFSNGP_sfc_temp_069.txt.gz
Temp
37 38 39 40 39 41 38 38 34 39 41 47 46 47 47 53 54 53 51 50 48 47 46 47 47 48 50 50 52 52 55 56 57 58 59 59 59 58 59 58 59 60 60 60
32 39 39 37 42 43 42 41 40 41 42 51 48 49 48 49 51 50 49 48 47 47 45 44 44 45 47 47 48 48 48 49 51 53 57 57 59 59 59 59 60 60 59 59
28 35 34 30 38 42 43 43 42 37 45 48 47 48 49 46 48 47 47 46 45 43 42 42 41 43 42 43 45 45 45 46 47 48 50 50 51 53 56 58 59 59 59 60
26 30 21 39 49 47 43 46 47 45 47 49 49 48 48 48 46 45 44 43 41 41 40 40 41 42 42 41 41 42 42 43 44 44 44 45 47 48 47 48 49 53 58 59
23 24 32 38 45 43 41 41 47 46 48 50 46 44 40 45 44 42 41 41 39 39 38 38 38 40 39 38 39 40 39 39 39 40 40 41 42 41 43 45 45 46 49 49
26 23 20 35 46 53 49 34 46 48 47 44 48 38 35 40 40 40 40 39 37 37 36 35 36 38 36 36 37 36 36 36 36 36 36 37 37 38 39 41 42 43 41 37
26 23 29 41 44 50 31 34 45 48 49 45 44 42 40 39 38 38 39 38 37 35 32 33 36 36 35 35 34 35 35 35 34 33 35 35 35 36 36 37 38 36 33 33
27 25 22 41 43 37 40 45 45 44 42 39 39 39 38 37 36 35 34 34 34 32 31 33 34 35 33 32 34 34 33 32 31 31 33 34 32 33 34 35 33 32 31 30
31 30 39 41 39 43 45 43 43 41 41 41 38 35 35 32 32 31 30 31 31 30 30 31 32 33 31 31 32 32 31 30 30 30 31 32 31 31 31 32 31 30 29 28
35 37 38 39 41 42 42 40 43 43 40 39 34 33 32 31 30 28 28 28 30 29 28 28 30 31 31 32 31 31 29 28 29 29 28 28 30 30 29 29 29 29 28 27
36 38 39 39 40 38 37 37 36 38 38 36 34 31 30 28 27 27 27 27 28 27 26 26 28 28 30 29 30 28 27 27 26 26 26 26 26 27 27 28 29 26 26 27
31 36 36 35 37 39 35 33 35 33 31 33 32 29 28 26 26 25 23 24 23 24 25 25 26 26 27 29 29 28 26 25 23 24 24 24 24 24 28 28 29 30 30 27
32 34 34 33 33 36 32 30 29 29 30 28 29 28 27 24 25 24 22 21 19 19 21 21 22 23 23 24 25 25 23 24 23 22 22 22 21 20 18 22 26 27 27 28
36 36 33 35 30 33 31 30 30 28 28 27 26 26 25 23 23 21 20 21 21 20 19 19 20 20 21 19 21 20 19 19 18 18 18 18 18 17 17 16 15 16 21 23
34 35 33 34 33 32 32 30 27 25 25 23 24 23 23 20 19 18 20 21 21 19 17 18 18 18 20 17 19 21 19 18 16 17 17 17 17 17 16 14 14 13 14 16
34 33 32 29 28 28 28 27 25 23 23 22 21 20 19 18 17 16 17 17 15 13 15 15 16 16 18 16 15 16 16 18 17 16 16 16 15 14 14 13 12 11 11 11
29 27 28 26 26 25 24 24 25 24 22 21 20 20 19 18 16 14 12 12 9 7 9 11 11 13 15 14 14 14 14 15 14 17 16 15 14 14 13 12 11 10 9 10
25 24 25 25 24 23 22 22 21 20 17 16 14 12 11 10 9 9 8 7 6 8 8 8 11 12 14 14 15 15 15 15 16 14 14 13 13 13 11 11 10 9 8 7
25 24 23 23 22 21 20 18 16 15 14 12 11 8 9 8 9 6 2 3 3 5 8 8 18 14 13 17 15 14 12 10 12 12 12 8 8 10 7 7 6 5 6 5
19 19 19 17 18 16 14 12 13 11 9 8 7 7 6 5 4 1 -2 1 2 6 10 11 13 13 14 13 11 11 9 7 10 7 5 5 2 -1 1 3 3 -0 -4 -2
15 15 14 13 11 12 12 11 11 9 8 9 8 5 3 -1 -3 -3 2 5 7 10 11 11 11 11 12 10 10 5 4 2 2 -0 -4 -6 -4 -4 -6 -7 -5 -9 -9 -8
13 12 12 13 12 12 13 13 13 12 10 6 2 -2 -1 0 -1 1 -3 4 9 5 9 9 8 0 5 5 6 2 3 1 -2 -3 -5 -7 -9 -11 -16 -16 -15 -16 -17 -18
15 15 15 14 14 13 14 11 9 10 8 6 1 1 5 8 8 3 3 9 10 5 9 4 0 -3 -5 -4 -5 -6 -6 -6 -7 -10 -13 -17 -17 -17 -16 -16 -18 -17 -19 -17
17 18 17 17 17 16 14 15 16 14 9 12 6 3 10 1 -1 9 8 2 -2 -4 -3 -5 -5 -4 -6 -10 -10 -12 -14 -16 -14 -16 -12 -15 -20 -20 -20 -21 -17 -18 -17 -17
19 19 18 18 19 17 17 17 16 16 15 14 14 14 13 12 3 5 1 2 4 1 -4 -8 -6 -8 -13 -15 -13 -14 -16 -17 -18 -17 -17 -17 -18 -19 -21 -21 -20 -19 -21 -23
21 19 18 17 16 15 17 18 13 13 12 7 5 -4 -4 0 5 5 2 1 3 1 -3 -11 -13 -15 -15 -13 -14 -15 -14 -12 -15 -15 -16 -16 -18 -17 -19 -19 -20 -20 -21 -21
16 15 15 14 14 14 15 14 12 10 8 5 4 -3 -2 -6 -5 -0 -4 -5 -8 -11 -9 -8 -9 -4 -9 -12 -13 -11 -11 -11 -13 -13 -17 -18 -19 -17 -19 -19 -20 -22 -24 -24

GFSNGP_sfc_temp_072.txt.gz
Temp
35 37 38 37 37 40 38 36 33 37 38 45 46 47 48 51 50 48 46 46 45 44 44 46 46 47 47 48 48 50 52 52 51 54 58 58 58 58 59 58 59 59 57 56
32 36 36 35 38 38 40 41 40 40 39 50 49 49 48 48 48 46 44 44 43 43 42 42 43 43 43 43 45 47 46 47 48 49 51 50 50 51 56 58 59 59 58 58
29 32 32 30 35 38 40 43 41 35 43 47 45 47 47 46 46 43 43 42 40 40 39 39 40 41 40 41 43 43 42 42 42 44 45 45 48 49 47 47 49 50 54 57
26 30 19 36 45 43 40 43 45 46 47 46 45 47 48 49 45 41 39 38 38 37 37 38 40 40 40 40 40 39 38 38 39 40 40 42 42 41 42 44 46 46 47 47
23 23 30 35 41 40 39 39 46 46 48 42 41 42 37 42 42 39 38 36 36 36 36 37 37 38 38 38 37 36 35 34 35 36 37 38 37 38 40 41 43 42 39 38
26 22 17 33 41 44 44 31 42 44 45 41 46 36 35 39 39 37 36 36 34 35 35 35 35 38 36 34 33 32 33 32 33 36 36 35 36 36 38 40 39 38 35 34
25 22 28 38 40 44 29 31 40 41 45 43 41 40 37 35 33 34 36 35 35 34 32 32 36 36 33 32 31 32 33 32 32 33 34 34 34 35 36 36 35 33 31 31
28 25 22 38 40 34 37 40 40 40 40 36 36 36 34 33 31 31 31 32 32 31 30 32 34 34 29 29 32 32 31 30 29 30 33 33 32 32 32 33 32 31 30 30
31 30 38 39 37 40 44 41 39 37 36 37 34 32 31 29 28 28 30 30 31 30 29 30 31 31 29 28 31 30 29 29 29 29 30 30 29 29 30 30 29 29 29 28
33 36 37 38 39 38 38 38 39 37 36 33 31 29 28 27 27 28 29 29 30 29 27 27 29 29 28 30 29 29 27 27 28 28 28 29 29 29 28 27 26 27 26 25
34 36 37 37 37 36 35 34 33 33 33 31 30 28 28 27 26 26 26 27 27 27 26 26 27 27 29 29 29 27 26 26 25 25 26 26 26 26 26 27 27 25 25 25
29 34 34 32 34 34 31 31 32 31 30 31 29 26 26 24 25 24 22 23 23 23 23 23 25 24 24 26 29 27 24 23 22 23 22 23 24 23 27 27 28 29 29 27
32 34 31 31 31 31 29 28 28 28 28 26 27 27 26 23 23 24 22 21 19 18 20 20 20 20 20 22 23 23 21 22 21 21 20 19 18 18 15 19 24 26 26 27
33 35 31 30 27 29 28 28 28 27 26 26 25 25 24 22 22 21 20 20 20 19 18 18 18 17 18 17 19 17 16 16 16 16 15 14 11 11 11 11 10 12 19 21
32 33 32 31 30 29 30 27 25 23 23 22 24 22 22 19 18 18 20 20 20 17 16 16 15 15 17 15 14 14 14 12 10 9 11 10 9 10 11 10 9 9 10 11
31 31 31 28 27 27 27 25 22 22 22 21 20 19 18 18 16 15 15 16 15 13 13 12 13 13 14 13 11 10 10 15 13 11 11 11 11 11 10 9 8 7 7 7
29 27 27 25 25 24 23 24 24 22 21 20 18 18 18 16 15 13 11 10 9 8 7 9 9 9 11 11 11 9 8 11 12 13 12 12 11 10 10 9 7 6 5 4
24 24 24 25 24 23 22 22 20 19 16 15 13 12 10 9 7 6 6 7 7 5 6 6 6 9 11 11 12 12 11 13 13 12 11 10 10 9 8 7 7 5 4 3
24 23 23 22 21 20 19 17 15 14 12 10 8 7 7 6 5 2 -1 2 1 2 6 7 16 12 11 15 13 11 9 7 9 9 9 4 4 6 4 2 1 -0 2 1
18 18 17 16 16 15 13 12 11 9 7 7 4 3 2 -3 -5 -3 -2 1 2 5 8 9 11 11 12 10 9 9 6 4 8 4 2 2 -4 -7 -3 -1 -1 -6 -10 -9
13 13 12 11 9 9 7 5 8 8 7 6 5 1 -1 -3 -4 -4 1 4 6 8 9 9 8 9 10 7 7 0 1 -1 -2 -2 -5 -10 -9 -9 -11 -15 -14 -16 -14 -14
10 12 12 12 11 11 12 12 11 9 6 4 2 0 2 2 0 2 -1 5 8 2 6 7 6 -3 3 3 4 -2 1 -1 -5 -6 -9 -11 -13 -18 -20 -20 -18 -20 -21 -22
12 13 13 12 12 11 11 11 10 10 7 6 4 4 6 8 8 4 2 8 9 3 7 -0 -4 -6 -8 -8 -9 -10 -9 -10 -12 -12 -16 -20 -20 -21 -18 -18 -19 -19 -19 -18
15 16 15 15 16 16 13 14 15 13 9 12 6 3 10 3 1 9 7 -0 -4 -6 -5 -6 -5 -7 -9 -14 -15 -16 -16 -17 -17 -17 -14 -18 -23 -23 -22 -22 -19 -22 -22 -21
18 17 17 17 18 16 16 16 15 14 14 13 13 13 12 11 3 4 1 1 2 0 -5 -10 -9 -11 -16 -17 -17 -18 -19 -20 -19 -19 -18 -19 -20 -21 -23 -23 -22 -21 -23 -23
19 18 17 17 15 14 15 16 12 12 12 6 6 -3 -3 -0 4 3 0 -1 -0 -1 -5 -13 -15 -17 -16 -14 -16 -17 -17 -14 -17 -18 -20 -18 -21 -19 -21 -20 -22 -21 -23 -24
14 13 13 12 13 13 14 14 12 10 10 6 2 -5 -4 -8 -9 -3 -5 -5 -8 -12 -13 -15 -14 -9 -11 -14 -15 -14 -13 -14 -15 -15 -20 -21 -21 -21 -20 -18 -21 -23 -26 -26

GFSNGP_sfc_temp_075.txt.gz
Temp
39 40 40 39 40 42 39 39 33 40 39 44 47 47 46 48 47 43 42 41 41 40 42 43 44 46 47 48 49 51 51 50 49 50 51 53 55 58 60 60 62 63 63 63
35 39 39 37 42 42 41 42 42 42 41 52 53 51 46 45 46 43 41 40 40 40 40 41 42 43 45 45 44 46 44 44 46 47 48 48 49 50 50 50 51 55 57 57
31 36 37 34 39 41 42 45 45 39 46 50 47 48 46 45 45 42 41 40 39 38 39 40 41 42 42 43 44 42 40 42 43 45 45 45 46 46 46 47 48 48 47 47
31 34 24 40 47 46 43 46 48 48 47 45 42 40 45 46 42 39 38 37 36 37 39 40 41 41 41 41 40 40 40 40 41 43 43 44 45 45 45 46 44 41 40 39
28 29 35 40 42 40 39 41 44 44 46 43 42 42 37 39 39 36 35 34 34 36 36 38 40 40 38 38 39 37 36 37 39 40 40 40 40 41 42 42 41 38 37 36
28 25 22 38 42 46 45 36 43 42 44 44 44 38 34 36 34 33 34 35 35 36 35 36 37 38 37 36 35 33 34 35 37 38 37 37 37 38 39 39 37 36 35 35
30 28 33 38 42 45 33 35 41 40 43 46 41 36 33 33 31 31 32 34 35 34 33 34 35 36 34 34 32 34 34 34 35 36 35 37 37 37 37 36 35 34 33 34
31 27 24 39 42 35 37 40 39 38 36 34 33 31 30 30 29 29 29 33 34 32 31 33 35 34 32 30 33 34 34 33 33 33 33 34 34 34 35 35 34 33 32 31
35 34 38 40 37 37 42 40 38 36 36 34 31 29 28 27 27 27 29 32 33 32 31 31 32 33 30 31 32 33 32 31 32 33 32 33 32 31 31 31 31 30 29 29
33 35 36 36 37 36 36 35 35 36 34 31 27 27 26 26 26 26 27 29 31 30 29 28 30 31 31 32 33 32 31 30 30 30 30 31 32 31 30 29 29 29 29 28
33 34 34 34 34 34 33 33 32 32 31 30 29 27 27 26 25 25 25 27 28 27 27 26 28 28 29 32 32 30 30 29 29 29 28 27 27 28 29 28 29 28 28 28
28 32 31 29 31 33 31 30 31 31 29 29 28 25 25 23 24 24 24 25 25 25 24 25 25 25 27 29 31 30 28 27 27 27 28 28 27 25 27 28 28 29 29 29
31 31 30 30 30 31 29 28 28 28 28 26 27 27 25 24 24 24 23 23 21 20 22 22 22 22 23 25 26 25 25 26 27 26 26 25 24 25 22 22 24 24 25 26
33 33 29 30 27 28 28 28 29 28 28 27 26 27 26 24 24 23 22 22 22 21 19 19 19 18 20 22 22 20 21 20 23 23 22 22 21 20 20 19 18 17 19 20
30 31 30 30 31 29 30 29 26 25 25 24 26 24 24 21 20 20 22 22 22 19 18 18 16 16 18 19 20 21 22 21 21 20 20 19 20 19 19 18 16 16 18 17
31 31 31 28 27 27 27 26 24 23 23 22 21 21 20 20 18 17 17 18 17 15 15 14 16 15 16 18 20 21 21 18 20 21 20 20 20 19 17 16 15 14 14 14
29 28 27 26 25 25 25 25 25 23 22 20 19 20 19 17 16 15 13 13 13 12 13 14 13 14 15 17 20 22 22 21 18 21 20 19 18 17 17 16 14 13 12 10
25 25 26 27 25 24 22 22 22 20 18 17 15 14 12 12 11 10 10 11 12 12 12 12 15 15 16 17 19 21 21 21 20 18 18 18 17 17 16 15 14 13 12 10
25 24 23 23 23 21 20 18 16 16 14 13 12 9 9 9 9 8 9 9 9 11 11 13 17 16 16 17 18 20 19 18 18 17 16 13 15 15 13 13 12 11 11 10
19 19 18 17 18 17 15 14 14 13 12 11 9 8 7 5 7 6 9 8 10 12 13 14 16 15 15 14 14 17 16 16 15 14 14 13 12 12 11 8 10 9 9 8
15 15 14 13 12 13 13 13 12 10 10 10 10 7 6 6 6 8 11 11 11 12 13 12 13 15 15 15 15 14 14 13 12 11 11 10 10 10 9 9 9 9 9 9
14 13 13 13 13 13 13 14 12 10 9 8 6 7 8 8 8 9 8 11 13 10 13 13 12 5 10 11 13 12 12 11 10 11 9 9 9 9 8 8 7 7 6 6
15 15 15 14 14 13 13 12 11 11 9 8 9 10 12 13 13 11 9 12 14 10 13 10 3 1 2 9 9 9 9 8 8 8 7 7 7 7 8 7 7 6 6 6
16 17 16 17 17 17 15 16 16 15 13 13 11 11 14 11 11 13 12 7 5 8 9 8 6 2 3 8 7 7 7 7 7 7 7 -3 6 4 6 5 6 6 4 1
18 18 18 19 19 18 18 18 17 16 16 16 15 15 15 15 13 13 13 12 10 10 10 1 0 -1 8 8 7 7 7 7 7 7 7 7 7 5 6 5 3 5 4 3
20 20 20 18 19 20 20 19 17 17 16 14 14 11 11 12 13 13 12 8 10 7 11 9 7 7 8 8 7 6 7 7 6 6 4 5 5 5 4 4 3 4 4 3
19 17 18 18 17 17 18 18 17 16 16 15 14 13 13 11 10 10 5 11 11 10 9 8 7 6 9 8 7 7 7 7 3 6 6 5 4 5 4 4 4 3 2 -0

GFSNGP_sfc_temp_081.txt.gz
Temp
45 50 48 42 40 50 46 47 41 48 50 56 58 57 53 51 46 41 38 37 37 38 39 41 42 42 44 45 46 50 50 49 48 49 51 51 51 56 59 56 55 55 59 51
34 46 47 42 45 51 51 51 51 52 52 59 57 58 54 48 45 40 38 37 36 37 38 38 40 41 42 42 44 46 46 46 47 47 48 47 48 49 47 46 47 47 43 42
29 43 43 34 44 49 52 54 53 45 51 56 50 52 49 44 43 40 37 37 36 36 36 37 38 40 40 41 45 44 44 45 47 48 47 47 47 45 43 41 41 41 40 39
28 40 28 46 55 56 52 54 55 53 50 50 42 38 38 41 38 35 36 34 35 35 37 38 39 39 41 40 40 42 44 44 46 48 48 47 46 43 42 40 39 39 39 38
28 37 41 48 50 50 48 43 51 50 52 47 42 40 33 35 35 33 33 34 32 36 37 38 39 40 39 39 40 40 39 41 45 46 46 46 44 44 43 42 40 39 39 39
31 30 28 42 52 56 56 40 48 49 48 48 44 37 31 33 33 32 32 33 33 33 33 34 36 40 38 37 37 37 38 40 42 42 43 42 42 42 44 44 42 42 40 39
31 35 41 48 53 56 38 34 47 46 42 39 34 31 30 31 31 32 32 32 33 34 34 35 36 34 33 35 35 37 39 40 40 41 40 41 43 43 43 42 42 40 38 38
38 34 29 47 51 41 38 44 44 42 38 33 31 30 30 30 30 31 32 34 35 33 37 41 44 42 39 35 34 35 37 37 37 38 40 42 41 40 40 42 40 39 36 36
34 32 39 41 39 39 42 39 39 38 37 34 31 30 30 29 30 31 33 37 41 40 39 41 44 43 40 40 41 41 40 37 36 36 36 37 36 37 38 39 37 35 34 33
37 32 33 36 39 38 38 36 37 37 37 34 30 30 29 29 29 29 30 36 40 39 37 36 40 41 41 42 43 40 37 37 37 37 37 38 36 33 31 34 34 33 33 32
31 34 37 37 36 36 36 36 35 36 35 33 31 30 31 29 28 28 30 31 37 36 35 35 37 38 41 41 41 38 37 36 35 34 32 29 28 30 29 29 29 30 30 29
30 35 34 31 34 35 34 35 35 35 34 33 31 28 29 28 29 29 28 29 29 30 31 31 31 31 33 37 40 38 35 35 35 36 35 33 30 26 28 28 28 28 28 29
31 33 32 32 34 36 34 34 33 33 35 33 34 32 30 28 29 28 27 26 25 26 27 28 27 27 29 31 32 32 33 34 34 33 33 32 32 30 25 24 25 26 26 26
35 36 33 34 32 35 39 38 39 39 38 37 36 35 33 31 30 29 27 27 26 26 26 26 25 25 28 30 30 30 30 30 30 30 30 30 29 28 29 28 26 23 23 24
33 35 36 36 38 39 40 40 37 35 35 34 35 33 32 30 29 29 30 30 29 26 25 24 23 23 27 30 28 29 30 29 29 29 29 29 30 30 29 29 28 28 27 27
33 37 39 37 38 38 38 38 36 33 32 31 30 30 30 29 27 25 25 26 26 22 23 21 21 22 25 28 30 30 29 29 30 31 30 30 30 30 29 28 27 25 23 22
34 33 34 34 34 34 34 35 34 32 30 28 28 29 29 27 25 22 21 22 21 21 22 21 21 22 24 26 30 32 31 30 29 31 30 30 29 28 28 27 26 24 20 19
36 35 35 35 33 32 30 31 30 28 25 24 23 21 20 20 19 19 19 21 20 19 21 21 22 24 23 25 29 31 31 30 30 29 29 28 28 28 27 26 25 24 24 20
33 32 31 31 31 29 27 25 24 23 22 21 20 18 18 18 19 19 21 21 22 21 19 22 23 24 24 23 28 31 30 28 28 28 27 26 26 27 26 25 24 23 23 22
28 28 28 27 27 26 23 22 22 20 20 19 18 17 16 15 17 18 19 17 17 19 21 21 25 25 25 24 25 30 28 27 26 25 24 26 24 23 22 18 21 22 21 21
24 23 22 21 20 21 21 21 20 18 18 18 18 15 15 16 16 17 22 24 20 19 21 22 21 23 25 23 28 26 25 24 24 24 22 23 23 22 22 21 21 20 20 20
22 21 21 21 21 21 21 21 19 18 17 15 15 16 16 17 17 18 17 20 23 17 22 23 21 15 19 19 25 23 23 22 23 23 22 22 21 21 20 20 19 19 19 19
23 23 22 22 22 21 20 20 19 19 17 17 17 19 21 23 24 23 23 21 25 18 23 20 14 13 13 21 21 21 20 20 20 19 20 19 19 19 18 18 16 17 17 17
24 24 23 23 22 23 22 22 23 21 19 20 17 17 22 24 24 25 23 17 16 17 17 16 15 13 11 20 19 19 19 19 19 19 19 9 18 17 17 16 15 16 16 14
25 24 24 24 26 28 26 26 25 24 23 25 24 23 22 25 22 24 23 21 15 16 21 12 12 12 17 19 19 17 17 18 17 16 17 17 17 16 16 16 15 15 15 14
27 29 29 27 29 31 31 30 28 29 27 25 24 25 24 24 24 23 22 19 21 19 20 20 19 17 19 19 18 17 17 17 17 16 16 16 16 16 16 15 15 15 15 15
28 28 29 29 31 30 28 28 27 26 26 25 24 25 24 24 23 20 18 22 21 21 21 20 20 18 19 18 18 18 18 18 17 17 16 16 16 16 15 15 15 15 14 13

GFSNGP_sfc_temp_084.txt.gz
Temp
40 44 45 41 37 42 41 41 39 45 47 49 51 52 50 49 46 41 38 37 37 36 37 38 39 41 42 43 46 49 50 49 49 50 51 53 51 51 51 51 50 51 48 46
35 43 44 40 46 43 41 39 41 43 48 49 49 54 49 46 44 40 38 37 36 36 36 36 36 39 40 42 42 45 46 46 47 48 48 46 46 45 44 44 43 42 40 39
29 41 40 34 45 47 47 47 50 43 45 49 43 41 41 41 40 37 35 35 35 34 35 35 36 37 36 38 43 43 43 45 46 46 45 43 43 42 40 40 40 38 38 38
29 34 22 44 56 55 51 48 46 50 48 45 38 35 35 37 36 34 34 33 34 34 34 35 36 36 37 38 38 39 41 43 45 44 43 43 41 39 39 39 38 38 37 36
27 28 33 47 52 51 48 36 46 47 48 45 40 38 32 33 33 32 32 33 32 34 34 33 34 36 35 35 36 36 36 38 42 43 43 41 40 39 39 38 36 36 36 35
29 22 23 34 47 56 55 33 43 46 42 41 43 35 29 32 32 31 32 32 33 32 32 33 32 34 34 32 33 33 35 35 39 40 41 41 41 41 40 40 37 35 34 34
28 25 31 37 45 55 37 31 42 42 38 34 30 29 30 31 31 32 33 33 33 34 33 32 32 32 32 32 32 34 34 35 35 36 38 38 40 41 40 38 37 35 34 32
32 28 25 40 43 35 35 40 41 38 35 31 30 30 30 31 31 32 32 34 35 33 34 35 35 34 32 31 32 33 34 34 33 35 37 35 37 38 38 37 35 34 32 32
30 28 36 38 36 38 39 36 37 36 36 34 31 29 30 29 30 30 32 35 35 34 35 39 40 39 35 34 34 33 33 32 32 32 32 33 31 33 34 35 34 32 31 29
33 33 34 35 37 36 36 35 37 37 35 32 29 29 28 28 29 29 31 32 35 35 35 36 39 40 40 40 40 37 34 32 31 29 29 31 30 29 28 30 30 30 29 27
31 33 35 35 35 36 36 36 34 34 34 32 31 30 29 28 28 28 29 29 31 30 30 30 32 31 35 40 40 36 34 32 31 29 27 26 26 27 26 26 28 27 25 26
28 32 32 31 34 36 33 34 35 35 32 32 31 29 28 27 27 27 26 28 27 27 27 28 29 30 31 34 37 35 33 33 33 31 30 28 25 24 29 28 29 29 29 27
30 33 32 33 34 35 34 33 33 33 33 31 31 30 29 27 27 27 26 25 25 25 25 25 26 26 29 31 31 30 31 32 31 31 31 30 29 25 20 23 27 27 27 27
35 35 32 33 31 35 36 37 38 39 38 36 34 34 31 29 28 27 26 26 26 25 24 23 23 23 28 29 29 29 29 29 28 28 28 28 28 28 27 26 21 19 24 25
34 35 34 36 39 39 40 40 36 34 33 32 33 31 30 27 26 25 27 28 26 24 22 22 21 22 25 28 27 27 28 28 28 28 28 28 28 27 27 25 24 21 22 22
34 35 37 37 38 39 39 38 34 31 30 30 29 28 27 26 24 23 23 24 23 20 21 19 19 20 23 24 29 28 27 28 29 29 28 27 26 25 25 24 21 18 16 17
33 31 34 34 34 33 32 33 32 29 28 27 25 27 27 25 23 21 19 20 20 19 20 19 20 20 20 23 27 30 29 28 25 27 26 26 25 24 24 23 20 17 14 13
34 33 34 34 32 30 28 27 26 25 23 23 21 20 19 18 18 18 18 18 18 17 18 19 20 20 20 21 22 29 28 27 27 25 25 24 25 25 23 22 22 20 18 15
32 30 31 31 30 28 25 23 22 22 21 20 18 16 16 16 17 18 19 19 19 17 17 19 24 22 23 22 24 28 27 26 26 25 25 22 22 22 21 20 19 18 18 17
27 27 27 25 26 24 22 21 21 19 19 17 15 14 14 13 14 15 16 14 15 17 19 20 23 24 23 24 22 27 25 24 24 21 20 21 21 19 15 13 17 17 16 16
23 22 21 21 20 20 20 20 18 16 15 15 15 13 13 14 14 14 19 19 18 18 20 20 18 18 22 18 21 23 22 22 21 20 19 19 19 18 17 16 16 15 15 15
22 21 21 21 21 20 20 19 17 15 14 13 11 11 13 16 14 16 14 19 20 13 21 19 17 11 15 11 22 20 20 20 20 19 18 18 17 17 16 15 14 14 14 14
22 22 22 22 21 19 19 18 16 17 14 14 15 17 19 21 22 20 18 20 21 16 19 15 9 8 9 16 19 18 18 17 16 16 16 16 16 15 14 13 10 11 12 12
24 24 23 22 21 23 22 21 23 21 16 18 15 13 19 21 22 24 20 13 12 11 15 14 11 8 5 17 17 16 16 16 16 16 16 5 13 13 13 12 10 11 10 7
24 23 23 24 27 27 26 26 25 25 23 25 24 24 23 24 21 21 21 17 14 14 18 9 8 7 13 17 17 15 15 16 14 12 11 13 13 12 13 13 11 11 8 6
27 28 29 28 28 30 30 29 27 28 27 26 25 25 24 24 23 21 21 16 19 17 18 16 16 13 16 16 17 15 15 15 15 14 13 13 11 11 11 10 9 9 8 9
29 28 29 29 30 29 26 24 24 24 24 23 23 24 24 23 22 20 16 20 19 20 20 20 19 17 17 16 15 15 16 16 14 14 13 11 10 11 10 9 10 10 9 6

GFSNGP_sfc_temp_087.txt.gz
Temp
35 38 39 38 35 40 35 35 31 37 39 42 44 43 42 43 41 38 37 36 36 36 36 37 37 38 39 42 44 47 49 49 49 51 51 49 48 48 48 48 48 48 46 44
28 35 37 36 40 42 42 40 40 38 36 45 45 46 43 41 39 36 35 35 35 36 35 35 35 36 38 39 41 45 45 46 47 46 45 44 44 43 43 42 41 41 39 40
24 34 34 29 37 41 42 44 41 34 39 44 37 36 36 37 36 34 33 33 33 33 34 34 34 35 35 37 40 40 43 44 44 43 42 41 41 41 39 38 38 37 37 38
23 28 17 37 47 46 40 39 40 41 39 38 34 33 33 34 33 32 32 32 32 33 33 34 35 35 36 37 37 37 39 41 42 42 41 41 39 38 37 37 36 35 35 36
23 20 30 39 36 34 37 34 41 39 40 38 35 33 30 33 33 31 32 33 32 33 34 33 33 34 35 35 35 35 34 36 40 41 40 39 37 36 36 35 34 33 34 34
27 21 18 31 35 39 39 30 39 38 35 33 39 34 26 32 32 32 32 32 33 33 32 32 32 33 33 33 33 32 33 33 35 37 38 37 36 35 34 33 32 32 31 32
26 22 29 33 35 42 29 28 37 36 32 30 27 28 30 32 31 32 33 33 33 34 32 32 33 33 31 31 31 32 33 33 33 34 33 35 36 35 34 33 32 31 30 31
29 24 22 35 37 30 34 37 36 34 32 29 29 30 29 29 29 32 32 33 34 33 33 35 35 35 31 30 32 32 32 32 32 32 32 32 33 33 33 33 31 31 30 29
28 26 33 34 32 34 37 34 35 33 33 31 28 27 28 27 28 29 32 32 33 32 33 34 36 35 32 32 32 31 29 28 28 29 29 29 28 30 32 31 30 28 28 27
30 30 31 33 34 34 35 33 33 34 32 29 25 25 25 26 27 26 28 30 30 30 29 29 32 33 35 35 34 31 28 28 27 27 26 27 28 28 27 28 27 27 26 24
30 31 31 32 33 35 34 33 32 33 32 30 28 27 27 26 26 26 26 27 28 27 27 27 29 30 32 37 36 32 30 29 27 27 26 26 26 26 26 27 27 24 24 24
25 30 30 30 33 33 32 32 32 31 29 30 28 26 26 25 25 25 24 25 25 25 25 26 27 28 30 32 33 32 30 30 29 27 26 25 24 24 29 29 30 30 28 26
28 32 31 32 33 34 32 32 31 31 30 28 29 28 27 25 26 26 25 24 23 22 23 23 23 24 27 29 30 28 28 29 29 28 28 24 23 21 19 24 28 29 29 30
34 33 30 32 30 35 35 36 36 35 33 32 30 30 27 26 26 25 23 23 23 22 21 21 22 21 24 27 27 27 26 27 26 26 26 26 25 21 20 18 17 15 25 26
33 34 33 35 36 35 38 36 31 29 29 28 28 26 25 22 21 21 24 25 24 21 19 19 19 19 21 24 25 24 25 21 21 20 21 21 22 22 21 19 16 15 16 17
33 35 37 35 34 34 34 32 28 27 27 27 26 24 23 22 21 20 21 21 19 17 18 16 18 17 19 20 22 19 20 22 22 21 21 19 19 20 19 16 12 10 10 10
31 28 32 30 28 26 26 28 26 24 23 22 22 24 23 22 19 18 17 17 16 14 14 14 12 16 17 18 19 21 19 21 19 21 20 19 18 18 18 15 12 9 7 6
31 29 29 29 26 24 23 23 22 21 19 19 17 15 14 14 13 12 13 13 12 13 14 14 16 17 17 18 20 21 20 21 21 18 19 17 19 19 17 16 15 11 9 11
27 25 27 26 25 23 21 19 18 17 14 12 10 7 6 5 6 6 11 13 10 10 12 15 21 18 19 21 20 22 20 19 20 19 19 16 14 15 14 12 10 9 11 11
23 22 21 20 21 20 17 14 15 12 8 8 4 4 3 1 1 3 3 3 5 8 12 16 17 17 19 18 15 21 19 17 19 15 16 16 12 4 4 8 10 6 3 1
17 17 15 13 12 13 12 8 9 5 3 2 4 -0 1 2 3 3 10 12 8 11 14 13 13 13 15 11 16 12 13 11 8 10 8 6 5 6 5 4 4 3 4 5
13 14 14 13 15 12 7 6 5 3 2 1 0 1 3 5 3 6 3 10 12 8 14 11 11 4 9 6 14 7 9 9 8 11 7 6 8 8 6 1 1 2 1 1
14 15 14 13 11 8 7 6 5 5 3 1 1 4 7 12 13 12 8 14 15 9 13 5 3 1 1 5 3 2 6 3 1 1 2 -2 -1 -3 -1 -1 -1 -1 -2 -3
17 17 13 13 14 16 15 15 17 16 8 11 7 5 14 8 14 16 12 6 3 0 3 0 -1 1 -1 5 3 0 0 -1 6 1 2 -1 1 0 -1 -2 -4 -6 -6 -2
17 16 17 16 20 21 21 22 21 20 19 20 19 19 19 18 9 10 10 6 7 5 6 3 3 1 -4 -2 1 -2 -2 -1 1 -5 -6 -6 -3 -1 0 2 3 -0 -4 -7
22 22 22 23 21 22 22 22 17 19 20 16 15 13 12 10 10 9 7 8 8 7 2 3 -1 1 -3 -2 4 5 -0 2 -1 1 4 -1 -2 0 -1 3 1 -2 -4 -5
23 20 21 21 21 21 17 16 12 10 9 9 11 17 14 10 6 7 4 3 2 8 5 2 6 9 4 -1 -1 -1 -2 0 4 2 -4 -4 -6 -7 -6 -4 -2 -1 1 -1

GFSNGP_sfc_temp_090.txt.gz
Temp
32 34 34 33 33 36 35 35 28 35 35 39 41 40 40 41 39 37 35 34 34 34 35 36 36 38 39 40 43 46 48 49 49 49 49 49 48 48 47 46 47 47 46 45
27 33 34 30 34 36 38 39 40 39 38 38 39 41 39 38 37 34 33 33 33 33 33 33 34 36 38 38 39 44 44 43 45 46 45 43 43 42 41 41 41 41 40 41
21 31 30 25 32 36 39 42 40 34 38 38 34 33 32 34 34 32 32 32 32 32 32 33 33 35 35 37 39 39 42 43 42 41 41 41 40 39 38 37 37 37 38 38
22 27 15 33 39 41 36 36 37 36 37 36 32 31 32 33 32 31 32 31 32 32 32 33 33 34 36 37 37 37 37 39 40 40 38 38 38 36 35 35 35 35 36 37
19 21 30 35 35 32 29 30 34 33 37 34 32 33 29 32 32 31 32 33 32 32 33 32 32 33 33 34 35 35 34 35 37 36 35 35 34 33 34 33 33 33 34 35
25 20 14 27 33 37 34 27 34 34 32 34 34 30 26 31 32 31 32 32 32 32 32 31 31 33 32 32 32 32 32 33 34 35 34 32 32 32 32 32 32 32 31 32
23 22 27 30 33 35 27 25 33 32 30 32 27 28 30 32 31 32 32 32 33 34 32 32 33 32 30 31 30 31 32 32 32 33 33 33 33 32 32 31 30 30 30 30
27 23 20 33 34 27 31 32 33 31 30 28 28 29 28 29 30 31 31 32 32 30 30 33 34 33 31 29 30 29 29 29 29 29 30 31 32 32 32 30 29 28 28 29
27 24 32 32 32 34 34 32 31 31 30 29 27 25 25 24 24 27 30 30 30 29 30 30 32 33 31 30 30 29 28 27 27 27 27 28 28 29 29 29 27 27 27 27
28 29 30 32 33 33 33 31 31 30 28 26 22 23 22 22 23 23 26 27 28 28 27 27 30 31 33 33 30 29 27 26 27 26 26 27 27 28 27 26 26 26 25 25
27 30 30 31 31 33 31 31 31 31 30 27 26 23 24 23 22 23 23 24 25 25 25 25 28 29 30 33 32 28 27 27 26 26 26 25 26 26 26 26 26 24 24 25
21 30 28 29 32 32 32 30 30 30 28 27 25 22 21 21 23 23 22 23 22 23 23 24 25 26 28 30 31 30 29 28 26 25 25 25 24 24 30 30 30 30 29 27
24 31 30 31 31 33 30 29 28 27 27 26 26 26 24 22 23 25 23 22 21 21 22 22 22 23 25 28 29 28 28 28 28 26 25 23 22 22 20 25 30 30 31 31
35 32 29 31 28 33 33 32 32 31 30 28 27 27 25 24 24 22 21 21 21 20 19 20 20 20 21 25 27 26 24 24 24 25 25 22 20 19 18 18 16 16 21 27
32 34 34 34 34 34 33 30 27 26 26 25 25 24 23 21 20 21 22 23 23 20 19 18 18 17 19 20 22 24 25 24 22 20 20 21 22 20 18 16 14 13 15 18
34 34 34 31 32 31 30 27 25 24 24 23 23 22 21 21 19 18 19 20 18 15 16 15 17 17 18 18 20 19 20 22 20 19 19 20 19 17 15 13 12 11 12 9
30 28 28 26 26 26 25 26 24 23 23 23 22 22 21 20 18 16 14 14 12 11 12 12 12 15 17 16 20 19 19 20 18 18 18 18 17 16 14 13 11 12 11 10
28 28 28 27 24 23 22 22 21 20 18 17 14 12 10 9 7 6 7 6 7 9 9 9 10 13 15 18 19 20 20 20 20 18 19 17 17 18 15 14 14 13 12 10
26 25 25 24 23 21 19 18 16 14 11 9 9 4 0 -1 0 1 6 3 0 3 7 9 18 14 15 17 19 19 18 17 17 17 16 12 13 14 11 10 9 9 10 9
20 21 21 19 19 18 14 10 12 9 4 5 0 1 -0 -2 -4 -2 -2 1 2 5 7 11 14 14 15 16 13 17 16 12 15 12 13 11 3 -1 4 7 8 3 -2 -2
15 14 13 12 9 8 7 4 5 2 -2 -2 1 -3 -2 -3 -4 0 3 8 6 9 12 11 10 10 13 9 13 6 8 7 6 5 4 4 4 4 0 -1 3 1 -0 -0
7 9 10 10 9 3 -0 0 1 -2 -1 -2 -4 -5 -2 2 0 3 -0 7 10 7 10 9 9 2 7 5 10 3 6 6 4 7 5 6 7 5 1 3 4 1 1 -3
12 11 10 8 7 5 2 3 0 1 -1 -2 -2 -0 4 10 11 7 6 13 13 6 11 4 -0 -2 -2 -1 -4 -4 -3 -4 -4 -3 -4 -6 -6 -4 -2 -0 -3 -4 -5 -2
12 14 11 10 11 14 14 13 14 14 4 9 6 2 12 7 5 13 10 5 2 1 1 -1 -3 -1 -3 -3 -5 -6 -6 -4 -3 -6 -4 -6 -8 -9 -11 -11 -9 -12 -12 -10
16 14 14 15 18 16 19 19 18 18 16 18 18 19 16 16 9 9 5 5 4 2 1 -1 1 -2 -9 -9 -5 -4 -6 -7 -6 -8 -9 -10 -5 -2 -0 -1 -2 -7 -9 -10
21 19 19 21 20 20 20 20 16 16 17 14 12 12 10 10 12 9 6 4 6 4 1 -2 -6 -4 -7 -7 -6 -4 -6 -4 -4 -3 -3 -6 -10 -8 -8 -4 -1 0 0 -3
22 18 19 18 18 18 16 15 9 7 5 5 8 9 13 12 7 4 3 0 -1 -1 3 2 3 7 7 1 -2 -1 -6 -7 -5 1 -2 2 1 -4 -10 -9 -8 -7 -1 1

GFSNGP_sfc_temp_093.txt.gz
Temp
30 31 31 30 30 32 30 31 25 30 32 40 37 36 35 38 38 36 34 33 33 33 33 34 34 36 38 40 41 44 44 44 45 49 51 50 49 48 48 47 47 47 46 45
27 30 30 28 32 33 33 34 34 36 35 39 38 37 34 35 35 33 32 32 32 33 33 33 33 34 36 38 39 42 41 40 41 42 43 42 42 42 42 41 41 42 40 39
21 30 29 24 30 31 34 37 37 30 38 37 33 31 31 32 32 31 31 31 32 32 32 33 33 33 34 36 38 39 39 38 38 38 38 38 38 38 37 37 39 38 37 37
19 25 14 31 35 33 34 34 36 37 35 35 31 31 31 32 31 30 31 31 31 31 32 32 33 33 34 35 35 35 35 36 37 36 34 35 35 35 35 35 35 36 35 35
15 17 27 32 31 29 29 29 33 33 33 32 31 33 29 32 32 31 31 32 31 32 32 32 32 33 33 32 33 33 32 33 33 35 33 34 32 32 33 33 33 33 34 34
24 13 12 24 32 37 33 25 31 31 31 34 33 30 25 31 32 31 32 32 32 32 32 32 32 32 32 30 30 29 31 31 33 33 33 32 32 32 32 32 31 32 31 32
22 19 24 28 32 34 24 24 30 30 30 31 27 28 30 31 31 31 31 31 31 31 30 31 33 31 28 27 26 28 30 30 31 31 32 32 32 32 31 31 30 30 30 30
26 22 20 31 32 25 29 31 30 30 29 28 28 28 27 27 27 28 26 28 28 28 29 31 32 31 28 27 28 28 28 28 28 29 30 30 30 30 30 29 28 28 28 29
25 23 31 31 30 32 33 31 30 30 29 28 25 22 22 23 22 23 25 26 28 27 28 29 31 31 27 28 28 28 27 26 27 27 27 28 28 28 27 28 27 27 27 27
27 28 28 31 31 32 31 29 29 29 28 26 21 21 20 20 20 20 22 23 25 26 25 26 28 30 30 30 30 28 26 26 26 26 26 27 27 27 26 26 25 25 26 26
26 29 30 30 31 31 30 30 29 29 28 25 23 21 23 22 21 20 19 22 22 22 23 23 26 27 29 32 30 28 27 26 25 25 25 26 26 26 26 26 26 25 25 26
22 29 28 28 31 32 30 28 28 27 26 25 24 21 19 19 21 21 19 20 20 20 21 22 23 24 26 29 30 30 28 27 25 25 24 24 25 26 29 29 29 29 30 29
26 31 31 31 31 31 28 27 27 26 27 24 24 23 22 20 21 23 21 19 17 17 18 18 18 19 21 26 28 28 27 28 26 25 24 23 22 22 20 23 27 29 31 31
34 32 29 30 28 31 31 31 31 29 27 26 24 24 24 22 22 21 19 20 20 18 16 16 16 15 17 20 23 23 23 24 23 24 22 20 19 18 18 17 17 17 24 27
32 33 31 32 32 29 29 28 25 25 24 23 24 23 22 20 19 19 21 22 21 18 15 16 15 15 16 17 17 19 21 20 19 20 20 20 19 18 17 16 15 15 17 17
32 32 32 30 30 28 26 26 24 23 23 23 21 21 20 19 18 16 17 17 15 12 13 11 14 13 15 15 16 18 18 20 19 19 19 19 17 16 15 15 14 13 13 12
27 25 26 26 26 26 24 25 24 24 23 21 20 21 19 18 16 14 10 9 6 4 3 6 7 10 13 14 18 16 16 17 16 18 17 16 15 13 13 13 13 12 9 9
27 28 28 27 25 23 22 22 22 21 17 17 13 10 8 8 5 3 2 1 3 6 5 5 8 11 12 14 17 17 17 17 18 16 17 15 16 15 13 13 12 11 9 7
27 26 26 25 24 21 19 17 15 13 10 7 8 3 -2 -4 -2 -3 -0 -2 -2 1 5 6 17 13 14 15 17 16 15 13 15 16 16 13 12 13 10 8 7 6 8 8
21 21 20 19 18 17 14 9 10 8 1 3 -2 -1 -1 -5 -8 -5 -4 0 1 4 5 9 12 13 14 14 11 14 13 9 13 10 9 9 3 3 7 10 10 5 1 2
14 13 11 10 5 4 3 0 4 1 -4 -5 0 -5 -4 -5 -7 -6 2 6 5 7 10 9 9 9 12 9 10 3 5 5 6 5 0 1 -3 -2 -3 -1 -0 -4 -7 -7
4 7 6 6 6 1 -3 -3 1 -4 -4 -5 -9 -9 -5 1 -1 1 -2 6 9 5 8 7 7 -0 6 4 8 0 3 4 6 7 6 4 2 -2 -4 -3 -4 -3 -3 -6
8 7 6 5 6 3 0 0 -2 -2 -2 -4 -2 -1 3 8 9 6 5 12 12 5 9 3 -1 -3 -3 -7 -7 -8 -6 -5 -4 -4 -3 -4 -1 -0 -0 1 -2 -2 -4 -4
10 12 9 8 9 13 12 12 12 12 1 6 4 0 9 6 3 12 10 4 2 -1 -2 -4 -5 -2 -5 -9 -9 -10 -9 -9 -9 -12 -9 -9 -11 -8 -6 -6 -6 -12 -14 -12
15 14 13 13 16 14 17 17 16 16 15 16 16 17 14 15 7 8 3 2 3 1 0 -3 -1 -3 -10 -11 -10 -10 -10 -11 -11 -13 -12 -13 -12 -10 -9 -11 -10 -9 -13 -12
19 18 17 19 17 17 17 18 13 13 14 11 12 13 11 9 12 11 8 3 3 3 1 -1 -9 -9 -10 -9 -10 -10 -9 -8 -8 -8 -11 -10 -13 -11 -12 -11 -11 -6 -6 -8
20 18 17 16 17 16 15 15 9 7 5 1 2 1 4 1 5 9 6 3 2 1 0 2 1 0 1 2 1 -0 -1 -4 -7 -4 -5 -4 -5 -6 -6 -7 -9 -10 -10 -10

GFSNGP_sfc_temp_096.txt.gz
Temp
30 30 30 29 29 29 26 28 19 29 29 36 38 37 35 35 34 33 33 32 33 32 33 33 33 34 36 37 39 41 41 40 40 42 43 47 52 49 49 48 48 48 47 45
25 30 29 27 29 29 30 30 30 31 30 40 38 37 33 32 32 31 31 31 32 33 32 32 32 33 35 35 37 38 39 38 39 38 39 39 41 42 42 42 41 41 40 39
20 29 28 23 28 29 30 33 32 27 33 37 32 31 30 31 31 30 31 30 31 31 31 32 32 33 32 34 36 36 35 37 38 38 36 35 35 38 38 38 38 37 36 36
19 24 11 28 34 33 30 33 31 33 37 38 31 30 30 31 30 30 31 30 31 31 32 32 32 33 33 32 33 34 34 34 35 36 35 34 32 33 34 35 35 34 34 35
13 16 25 28 30 27 27 28 31 31 32 30 30 30 28 32 32 31 31 31 31 32 32 32 31 31 32 30 31 31 31 31 32 33 33 32 32 32 32 32 32 32 33 33
22 12 9 22 31 36 33 23 29 29 30 31 31 28 24 30 31 30 30 30 29 30 31 31 31 30 29 28 28 27 29 30 31 32 32 31 31 31 31 32 31 31 31 32
20 17 20 27 31 33 22 21 29 28 28 31 25 27 29 29 27 28 29 29 29 30 29 29 30 30 27 26 25 27 29 29 29 30 31 30 30 30 30 30 30 30 30 30
24 19 15 30 32 23 27 30 29 28 28 27 26 25 24 24 24 25 26 27 27 28 28 30 30 29 26 25 26 27 27 27 27 28 28 29 29 29 29 29 28 28 28 28
24 20 30 30 29 30 30 29 28 27 27 27 23 21 22 21 21 21 23 24 26 26 26 27 29 30 27 27 27 27 26 25 26 26 26 27 26 26 26 27 27 27 27 27
26 27 28 30 30 30 29 27 27 27 26 24 21 20 19 17 18 18 20 22 23 24 24 24 26 28 30 29 29 28 26 25 25 26 25 26 27 27 26 25 26 26 26 26
26 28 29 29 30 30 29 28 27 27 26 24 22 21 21 19 18 17 18 19 22 22 22 22 24 25 27 29 30 28 27 26 25 25 25 26 27 26 27 28 28 25 26 27
19 28 28 27 30 31 28 27 27 26 24 24 23 21 20 19 20 20 18 19 18 19 19 20 21 22 23 26 28 28 27 26 24 24 24 25 25 23 29 30 31 31 31 30
23 30 28 29 30 30 27 27 26 25 25 23 23 23 22 20 21 22 19 18 16 15 16 15 16 17 18 22 26 25 25 27 24 23 22 22 21 21 20 23 27 29 30 30
31 30 27 29 26 30 30 30 29 26 25 24 23 24 23 22 22 20 19 19 18 17 14 13 13 13 14 16 19 18 18 19 19 19 18 17 16 18 18 16 16 17 22 26
32 32 30 29 29 28 28 27 26 24 23 22 23 22 22 19 18 17 18 20 20 16 13 13 13 12 13 13 15 15 15 12 11 14 15 15 16 16 17 17 16 15 16 17
32 31 31 29 27 27 27 25 23 23 23 22 21 20 19 18 16 14 14 14 14 10 11 8 12 9 12 12 13 13 13 16 14 14 14 14 14 15 14 15 14 13 12 12
26 25 27 26 26 26 25 24 24 23 21 20 19 19 18 17 15 12 8 7 3 -0 -0 2 5 8 11 12 14 13 13 14 13 14 14 13 12 12 13 13 13 12 10 10
28 28 28 28 26 23 22 22 21 20 16 16 12 9 7 6 3 0 -1 -2 0 3 3 2 5 9 10 13 15 16 14 15 16 14 15 12 13 14 12 12 12 11 10 8
27 26 26 26 24 21 19 17 14 13 9 7 7 1 -4 -7 -6 -5 -6 -4 -2 2 4 4 15 11 12 14 15 15 13 11 13 13 13 10 9 10 7 7 7 7 10 10
22 22 21 18 18 16 13 9 10 6 -1 2 -2 -4 -3 -6 -10 -7 -6 -1 -1 2 3 8 11 11 12 12 9 12 10 6 11 9 8 8 0 0 4 7 6 1 -1 0
14 13 11 10 5 5 3 -1 4 2 -6 -7 -1 -5 -4 -6 -9 -9 1 6 4 6 9 8 8 8 10 8 9 1 4 1 1 1 -1 -3 -4 5 1 1 2 1 -4 -4
5 7 5 5 5 -0 -5 -4 2 -2 -4 -6 -11 -11 -7 0 -3 -1 -2 6 8 3 7 6 6 -1 4 2 6 -2 3 2 -1 2 4 4 0 -1 -2 -2 -1 -1 -2 -0
7 6 5 4 6 3 -0 -1 -4 -3 -4 -5 -4 -3 2 7 7 5 5 11 11 5 8 3 -2 -4 -5 -8 -9 -10 -9 -8 -6 -6 -8 -11 -9 -6 -2 -0 -2 -2 -7 -7
9 11 9 9 9 12 12 11 12 11 0 5 3 -1 8 5 4 11 9 4 1 -3 -3 -5 -5 -3 -7 -11 -11 -12 -11 -12 -12 -13 -9 -11 -16 -13 -12 -10 -8 -10 -12 -12
14 13 12 12 16 13 16 16 15 15 15 16 16 16 13 13 8 8 3 1 2 2 -1 -4 -4 -5 -11 -13 -13 -12 -13 -13 -13 -13 -12 -14 -13 -13 -9 -9 -7 -2 -4 -4
18 16 16 17 16 15 15 16 12 11 12 8 7 1 2 8 12 12 9 3 2 4 -0 -4 -8 -10 -11 -9 -9 -10 -9 -7 -10 -11 -13 -11 -15 -13 -14 -12 -14 -11 -3 -0
18 16 15 15 15 14 13 13 8 7 2 -1 1 -2 1 -2 -4 4 7 3 2 2 4 3 4 5 4 4 4 1 -0 -0 -4 -2 -7 -7 -8 -6 -9 -8 -9 -12 -13 -7

GFSNGP_sfc_temp_099.txt.gz
Temp
34 33 33 32 33 33 30 32 26 33 33 38 42 43 37 37 37 36 35 34 35 34 34 34 35 35 35 36 36 38 38 39 39 41 41 41 46 45 57 54 52 51 49 47
28 33 33 30 33 33 33 33 32 34 33 43 45 39 34 33 33 32 32 33 33 34 34 33 33 33 33 34 35 37 35 36 39 39 39 37 38 39 41 43 43 42 40 40
22 30 30 25 31 33 34 36 35 28 36 42 34 33 32 31 32 31 31 32 32 32 33 32 32 33 32 32 33 35 34 35 36 37 37 38 37 36 34 36 37 37 37 37
24 26 15 29 35 35 30 34 33 33 35 40 36 31 32 32 31 30 31 31 32 32 32 32 33 32 34 33 32 31 33 33 33 35 35 36 35 33 32 32 34 34 35 36
21 22 28 29 30 28 27 28 29 28 32 30 30 30 29 31 31 30 30 31 30 31 31 31 31 32 32 32 32 31 30 30 31 32 31 32 32 32 32 32 32 32 34 34
23 17 16 24 32 36 33 24 30 29 28 30 30 28 26 29 30 29 30 30 30 31 30 30 30 31 30 29 29 28 29 30 31 31 30 30 30 31 32 32 31 32 31 32
23 22 25 28 31 34 22 22 29 28 27 31 25 26 27 28 27 28 29 30 31 31 29 30 30 30 27 28 26 28 30 30 30 31 30 30 30 30 30 30 30 30 29 30
26 21 18 31 32 25 27 30 29 27 27 25 25 25 24 24 24 25 26 28 30 29 29 31 32 32 28 26 28 28 29 29 28 29 30 31 30 30 30 30 29 28 28 27
25 24 30 31 29 30 30 28 28 27 26 25 23 22 22 22 22 22 24 27 30 29 30 30 31 31 29 29 30 30 28 27 29 29 30 31 30 30 31 31 30 30 29 29
26 28 29 30 30 30 29 28 27 27 26 25 22 21 20 21 21 21 22 24 27 28 28 27 29 30 30 33 34 32 30 29 29 29 29 31 32 32 31 31 31 31 31 29
26 28 29 30 30 30 28 28 27 27 26 25 24 22 23 22 21 21 21 22 24 24 25 24 28 28 30 31 34 32 31 30 30 30 29 29 29 30 31 31 32 30 30 31
25 30 30 28 30 31 28 27 27 26 25 26 25 22 22 21 22 22 21 21 21 21 21 22 25 25 27 30 33 32 31 30 28 30 30 30 30 28 29 30 31 31 31 31
28 31 30 30 30 30 28 27 27 27 27 25 25 25 24 22 23 23 22 20 18 17 17 18 19 19 20 25 28 28 28 29 29 28 27 27 27 26 26 26 27 28 29 30
32 32 28 30 27 31 30 29 28 28 27 26 26 27 26 24 23 22 20 21 21 19 17 17 18 17 18 21 24 23 25 22 26 26 25 25 24 24 24 23 22 22 23 25
32 33 33 31 31 30 30 30 27 25 25 24 26 24 24 21 19 19 21 22 22 19 16 16 16 16 17 18 21 23 26 25 25 24 23 23 24 24 24 23 22 21 23 22
32 31 31 30 28 29 28 28 26 24 25 24 23 22 21 21 19 18 17 18 17 14 14 12 15 14 16 18 23 25 25 21 22 25 24 24 24 23 23 22 21 20 19 20
28 28 29 28 28 27 27 27 27 25 23 22 21 22 21 19 18 15 12 11 10 10 11 11 12 13 15 18 23 25 26 26 20 26 24 24 23 22 22 21 20 19 18 17
33 33 34 32 28 26 25 25 24 23 20 19 16 14 12 13 12 9 8 9 11 12 12 11 13 15 16 19 21 24 25 24 24 24 24 23 23 23 22 21 20 19 18 16
31 30 30 29 27 24 22 20 18 16 14 12 12 9 7 6 8 8 7 10 11 14 13 12 17 17 18 18 20 22 22 22 22 22 22 19 21 21 21 21 19 19 19 17
24 24 24 22 21 20 16 13 14 10 8 9 6 8 9 6 4 7 9 12 12 14 12 15 16 17 17 17 15 21 19 19 19 19 18 19 19 19 20 16 19 18 18 17
19 18 15 13 10 9 9 10 9 8 4 5 11 9 10 7 5 4 14 18 15 14 15 14 15 17 18 16 19 18 17 17 16 16 15 15 16 17 17 18 18 17 17 17
14 12 10 10 9 6 5 9 8 6 6 5 1 3 7 12 9 11 10 16 19 9 15 17 16 7 12 10 17 16 16 15 15 16 15 15 15 15 14 15 15 16 16 16
12 12 10 10 12 10 8 9 7 9 8 8 8 10 15 19 19 19 18 17 19 13 18 17 8 4 3 14 15 14 14 13 13 14 14 13 12 12 13 13 14 14 14 14
13 14 13 12 12 15 15 14 14 14 11 13 11 9 16 19 20 20 21 13 8 11 15 15 11 5 1 13 13 13 13 14 13 13 13 5 12 11 12 12 13 14 12 9
16 15 14 15 19 20 19 19 19 19 18 20 20 20 17 20 18 21 19 18 10 12 18 7 3 2 11 12 12 11 12 13 13 12 12 12 12 11 13 13 11 12 13 12
19 19 20 21 22 22 22 22 21 20 21 20 19 17 17 16 17 18 19 15 15 12 16 15 13 12 12 12 12 11 11 12 11 11 10 12 11 10 10 11 11 11 12 12
21 20 21 21 22 22 22 21 20 20 16 18 18 16 16 15 15 15 13 17 16 14 14 14 13 12 12 12 13 13 13 13 11 12 12 12 11 11 11 11 11 12 10 8

GFSNGP_sfc_temp_102.txt.gz
Temp
38 39 39 38 38 40 37 39 32 40 40 46 49 49 50 45 44 42 38 38 40 41 41 43 41 40 40 36 35 37 35 35 38 40 40 41 41 42 46 53 59 59 55 53
34 38 38 35 40 41 40 40 40 41 40 49 49 47 40 40 40 38 37 36 38 40 39 39 38 37 37 37 34 35 35 35 36 36 40 40 39 38 38 39 42 46 46 47
30 35 34 31 37 40 41 43 41 35 41 45 42 38 37 37 36 35 35 34 34 36 36 37 35 36 36 34 36 33 33 34 33 34 35 36 37 37 34 35 35 37 39 39
31 32 21 34 41 38 34 38 37 37 38 38 34 33 34 35 33 33 32 31 32 33 34 35 35 35 37 37 35 34 33 32 33 32 33 34 35 34 33 33 32 32 34 36
27 29 33 31 32 29 28 29 32 31 34 33 34 35 31 33 32 30 30 32 31 32 34 33 33 35 35 34 35 34 32 32 32 31 31 32 31 32 32 33 32 31 32 34
31 23 22 28 37 40 33 25 32 31 31 33 33 31 29 30 31 30 31 31 32 31 31 32 31 34 33 32 31 30 30 31 32 32 31 31 31 31 31 31 30 30 29 31
30 28 28 30 38 38 24 25 31 30 29 31 29 29 28 29 28 30 31 31 32 33 31 32 33 32 31 31 29 30 32 32 32 32 32 32 32 32 32 31 30 29 28 28
32 26 22 37 37 28 28 31 31 29 28 27 28 27 27 27 26 28 29 31 33 32 32 34 36 36 31 30 31 32 32 32 31 32 32 33 32 32 32 32 31 31 29 28
29 27 32 34 30 32 32 31 29 28 28 27 26 24 25 25 25 26 28 32 36 35 34 34 35 34 32 35 35 34 32 31 32 32 32 33 32 32 34 33 32 32 31 30
31 31 32 32 33 33 31 30 29 29 29 27 24 24 24 25 25 26 27 29 33 34 32 32 34 34 34 37 41 38 36 34 34 33 33 32 35 35 32 32 33 32 31 31
29 31 32 32 32 32 30 31 29 29 29 27 27 26 27 27 26 26 26 27 30 29 30 30 33 33 35 36 39 38 37 36 35 35 34 33 30 29 31 30 31 31 30 30
31 35 34 31 32 32 29 29 29 30 29 30 29 27 27 26 27 27 25 25 25 26 26 29 31 30 32 36 37 36 36 35 34 34 34 35 34 31 29 29 30 30 30 31
32 36 33 33 33 33 30 29 31 31 31 29 30 31 29 27 27 27 27 25 23 22 23 24 25 24 26 30 32 32 31 33 34 33 33 32 31 30 29 29 27 26 28 29
38 36 30 32 29 33 34 34 33 33 33 32 32 33 31 30 29 28 26 26 26 24 23 23 22 21 23 26 28 29 30 29 31 31 31 30 30 29 29 28 27 27 25 25
37 39 38 36 36 34 34 34 32 31 31 31 32 31 31 28 26 25 28 29 28 25 22 22 20 21 23 25 29 28 29 29 30 30 29 29 30 29 29 28 27 27 28 28
35 38 37 35 33 34 34 34 32 30 30 30 29 28 28 28 26 24 24 23 23 20 19 17 20 19 21 24 29 30 31 27 29 31 30 30 30 29 29 28 27 27 25 24
32 30 33 33 34 33 34 34 33 31 30 29 27 28 28 26 24 21 19 18 17 17 18 18 19 19 21 24 28 31 31 31 28 31 30 30 29 29 29 28 27 26 24 21
39 39 39 37 34 32 31 31 31 30 27 27 22 20 18 19 17 16 16 17 18 18 18 17 20 21 22 23 27 29 30 30 30 29 29 28 28 29 27 27 26 25 25 23
39 38 37 35 34 31 29 27 25 23 20 19 19 17 16 16 17 16 17 18 19 20 17 19 21 22 23 22 25 28 27 27 27 28 27 25 26 26 25 25 24 23 23 23
33 33 33 31 30 27 24 21 21 19 18 17 15 16 16 14 14 15 18 18 18 20 19 20 22 23 23 23 22 27 25 24 24 24 23 24 23 23 24 21 22 22 22 21
27 25 22 20 18 19 19 18 17 15 15 16 19 17 18 16 15 15 21 25 20 20 20 19 22 24 25 22 25 24 23 22 22 22 21 21 21 21 21 21 21 21 21 21
22 19 17 16 16 16 17 19 17 14 15 15 13 14 16 18 17 19 18 22 25 15 22 25 24 16 20 16 24 22 22 21 21 21 20 20 19 19 19 19 19 19 19 19
20 19 18 16 17 18 17 17 17 18 16 16 16 18 23 27 28 26 25 23 27 21 26 25 16 13 14 21 22 22 21 20 20 20 20 19 19 18 18 18 18 18 18 18
20 21 20 20 18 20 20 19 22 21 19 20 19 18 24 26 26 29 29 21 19 19 23 23 19 14 10 21 21 21 20 21 20 20 20 15 19 19 18 18 17 18 17 16
22 21 20 21 25 26 25 24 24 24 23 25 25 24 23 28 25 27 25 25 18 19 24 14 12 13 19 21 20 19 19 20 20 20 19 19 19 19 19 18 18 18 17 17
24 26 27 28 30 29 28 28 28 28 28 26 26 26 25 26 26 26 25 21 23 20 23 22 20 20 20 20 19 19 18 19 18 18 18 18 19 19 18 18 18 18 18 18
28 27 28 28 29 30 30 29 28 26 26 26 25 25 25 25 24 24 20 23 22 21 20 20 19 17 17 17 18 17 17 17 15 14 16 16 16 16 16 16 17 18 18 17

GFSNGP_sfc_temp_105.txt.gz
Temp
44 44 44 43 44 45 42 43 36 42 44 49 50 50 49 50 49 47 43 43 43 44 44 44 44 43 43 41 40 36 35 34 33 35 38 40 40 40 41 40 43 52 59 56
39 43 43 40 44 45 45 45 45 45 44 49 51 51 44 42 42 41 39 39 40 41 40 40 39 40 40 40 39 37 33 33 35 36 35 36 37 38 37 38 37 39 41 45
35 39 39 35 41 44 46 49 46 39 43 46 42 36 35 37 38 37 36 36 36 37 37 37 37 38 38 39 39 37 33 33 33 33 33 33 35 35 35 36 36 34 35 37
36 36 25 38 45 42 39 43 43 42 42 41 36 35 36 36 34 34 35 33 34 35 36 35 36 38 39 40 37 35 33 33 33 33 32 32 32 32 32 33 33 32 32 33
30 32 37 38 38 31 30 32 34 36 39 40 37 37 31 35 34 32 32 32 31 34 35 34 33 36 37 36 36 34 32 32 32 33 33 33 32 31 31 30 30 30 31 31
35 28 25 31 40 45 38 29 36 34 35 36 37 31 28 32 32 31 31 32 33 32 32 33 32 35 34 33 33 31 31 31 33 33 33 32 32 32 32 31 29 29 29 29
34 31 29 35 42 43 25 26 33 32 31 34 31 30 29 30 29 30 32 32 33 34 32 32 35 34 32 32 31 32 33 33 33 34 33 33 33 33 33 32 32 30 29 28
37 29 24 40 40 29 29 34 33 31 31 29 30 30 28 28 28 29 30 33 34 33 33 37 38 37 34 32 33 34 34 33 33 32 33 34 33 33 33 33 32 32 31 30
31 29 33 37 32 34 36 34 31 31 30 30 28 27 27 26 27 28 29 33 37 36 35 37 37 37 35 37 40 38 36 33 33 33 33 33 32 31 31 33 32 31 31 29
33 32 33 33 36 35 36 33 33 33 31 29 26 26 26 26 27 27 28 31 35 36 35 34 36 37 38 40 43 41 38 37 37 36 34 33 33 33 30 29 31 30 29 29
30 32 35 34 35 35 33 33 31 31 32 31 29 28 30 28 28 28 28 30 32 32 33 33 35 35 37 39 41 40 38 37 38 37 36 34 31 30 29 29 29 27 28 27
33 38 36 32 34 35 32 31 32 33 32 33 32 29 29 28 30 29 28 28 28 28 29 30 31 31 33 36 38 37 36 37 35 37 37 36 34 31 29 29 29 29 29 29
34 39 37 35 36 37 33 33 35 35 35 33 34 33 32 30 31 30 30 28 26 25 26 26 26 25 28 32 34 34 33 34 35 34 34 33 33 33 31 29 28 28 28 28
39 38 32 35 32 37 37 37 36 37 36 36 36 36 35 34 33 32 29 30 29 27 25 24 24 23 26 28 31 30 31 31 32 32 31 31 31 31 31 30 29 29 28 27
38 41 40 40 39 38 39 38 35 34 35 34 36 36 35 33 31 30 32 33 32 28 24 22 21 21 26 27 31 31 30 30 32 32 31 31 32 31 31 30 30 29 29 29
39 40 40 38 37 37 37 37 35 34 34 33 33 32 33 32 30 28 28 26 25 22 22 19 21 21 24 26 29 32 33 30 31 33 32 32 32 32 31 30 30 29 26 23
35 33 35 35 36 37 37 38 37 35 34 33 32 33 33 30 28 24 21 21 20 20 20 20 20 22 23 24 28 32 32 33 31 32 32 31 31 31 31 30 29 28 26 23
42 41 41 40 38 37 36 36 35 34 32 32 26 23 21 21 20 19 19 21 22 20 20 20 22 24 24 24 26 31 31 31 31 31 31 29 29 31 29 28 28 27 27 26
41 40 40 39 38 37 34 33 30 28 23 22 22 20 20 20 21 20 22 22 23 23 20 22 24 25 26 24 25 31 29 28 29 29 28 27 28 28 27 26 26 26 26 24
38 39 38 36 36 33 29 26 24 23 23 22 19 19 19 18 19 19 22 20 20 22 23 23 26 27 26 27 26 29 28 27 26 26 25 25 24 24 25 25 24 24 24 24
31 31 30 28 26 25 24 24 21 20 20 21 22 21 21 20 19 20 22 29 23 22 23 22 25 26 27 24 28 26 25 24 24 23 22 22 22 22 22 23 23 23 22 23
27 25 24 22 22 21 22 24 22 19 20 20 19 19 19 21 20 22 22 25 28 18 26 28 27 19 22 18 27 25 24 24 23 23 22 21 21 20 20 21 21 21 21 21
25 24 22 21 22 22 22 21 20 21 19 18 19 21 26 29 31 29 27 26 30 24 27 28 20 18 18 22 24 24 23 22 22 22 21 21 21 20 20 19 19 19 20 20
25 24 23 24 22 23 22 22 25 24 23 23 23 23 26 28 29 32 31 24 22 22 25 25 22 18 15 22 22 22 22 21 21 21 22 21 21 20 20 19 19 19 19 19
26 25 24 23 27 29 27 28 28 27 26 29 28 27 26 31 27 29 28 27 23 22 26 19 19 18 22 22 21 20 20 20 19 20 19 19 20 20 20 20 19 19 19 19
27 28 29 31 33 32 31 31 30 30 31 28 28 28 28 29 29 28 28 24 26 24 25 24 22 21 21 20 19 19 19 18 17 17 16 17 17 18 17 17 19 19 18 19
31 31 32 33 34 33 33 33 31 29 29 29 28 27 28 27 26 26 23 25 24 23 22 21 21 19 18 17 18 18 17 16 15 14 14 13 14 13 13 13 14 14 15 16

GFSNGP_sfc_temp_108.txt.gz
Temp
45 46 46 45 45 47 43 43 36 41 43 42 45 45 46 47 47 44 42 42 41 40 39 39 39 39 41 40 38 38 36 34 34 36 37 36 36 37 38 39 40 40 42 44
38 45 45 41 45 46 45 46 45 45 43 45 43 43 41 41 41 39 39 38 38 38 38 36 36 37 39 38 37 36 35 34 35 35 35 34 34 34 34 35 36 37 36 38
32 42 40 33 41 44 45 48 45 38 39 44 36 35 34 36 37 35 35 34 34 35 35 34 34 36 36 36 37 34 33 34 34 34 33 33 33 32 31 31 33 33 34 34
34 36 24 38 45 44 39 39 41 41 41 39 36 34 34 35 34 32 33 32 33 33 34 33 34 34 35 36 35 33 33 33 33 33 33 33 33 32 30 30 29 29 30 32
30 30 36 39 39 32 31 31 36 36 39 38 36 34 30 33 33 31 31 32 31 32 33 33 32 34 33 34 34 34 32 32 32 33 32 33 32 32 32 31 29 29 29 29
33 27 25 31 42 46 40 27 35 34 33 35 36 28 25 30 32 31 32 32 32 32 32 32 32 34 33 33 32 31 32 32 32 33 32 32 32 32 32 32 32 31 29 29
32 31 28 36 43 44 26 25 32 32 30 34 29 29 28 31 30 31 32 32 33 33 32 32 33 33 32 33 31 33 34 33 33 33 33 32 32 32 32 32 32 31 30 30
35 31 25 39 41 32 31 34 32 31 31 28 29 28 28 28 28 29 30 32 33 31 31 35 38 37 34 33 32 34 34 34 32 32 32 32 30 30 31 31 30 30 29 28
29 28 33 36 32 35 37 33 31 30 31 31 28 27 28 26 27 27 29 30 33 35 35 36 37 37 34 36 38 36 35 34 34 32 31 31 29 27 27 28 28 27 27 26
32 32 32 33 35 36 36 33 33 33 32 30 26 27 26 26 27 27 28 31 35 34 32 31 33 34 35 38 40 39 35 35 35 34 31 30 31 29 27 26 25 25 24 23
30 32 33 34 34 34 33 34 33 33 32 30 29 28 28 28 27 27 28 29 31 30 29 29 30 31 34 36 37 36 35 33 34 34 34 30 27 27 27 26 27 24 24 24
34 37 36 32 34 35 32 31 33 33 32 33 31 29 29 28 29 28 27 28 27 27 26 26 27 27 29 33 34 33 32 32 31 32 32 32 32 28 30 30 30 29 29 27
35 39 36 35 36 37 34 35 36 35 35 32 33 32 31 29 30 30 29 26 24 22 23 23 22 22 25 28 31 30 30 30 30 30 30 29 29 29 27 28 30 30 30 30
40 37 32 35 32 37 37 37 38 37 37 36 35 35 33 32 32 30 28 28 27 23 21 20 19 19 23 25 27 25 28 29 30 29 29 29 28 27 27 26 24 24 27 28
38 42 39 40 39 38 38 38 35 34 35 35 36 35 34 31 29 29 30 31 28 24 21 20 17 18 21 22 24 29 29 27 29 29 28 28 28 28 27 26 25 24 21 22
40 40 40 38 38 38 37 36 34 33 34 34 33 32 32 31 28 26 25 24 23 19 19 15 19 19 20 21 22 29 29 27 26 29 28 27 27 27 26 26 25 23 20 19
36 34 36 36 36 36 36 38 36 34 33 32 32 32 31 29 26 22 20 20 17 16 16 16 16 17 18 20 22 28 28 28 24 28 27 27 26 26 25 24 23 23 21 18
42 41 40 39 37 36 36 36 35 34 31 28 23 20 18 18 17 16 16 18 17 14 18 17 18 19 19 20 23 28 27 27 27 26 26 24 25 25 24 23 23 22 22 22
42 40 39 38 38 36 34 32 27 24 22 21 20 18 18 17 18 18 19 17 18 18 18 19 22 23 24 23 24 27 26 24 25 25 24 22 22 22 22 22 21 21 22 21
38 38 37 36 35 32 26 23 24 22 22 20 18 16 16 14 15 15 18 17 17 19 21 22 25 26 25 25 19 26 24 23 23 22 21 21 20 19 20 19 20 20 20 20
33 30 28 27 25 24 24 23 21 19 19 18 19 17 17 17 16 14 21 22 21 21 23 20 23 23 24 20 22 23 22 21 20 20 19 18 18 18 18 18 18 18 18 18
29 27 25 24 24 23 22 22 21 19 19 18 16 16 16 18 17 20 18 23 25 15 23 26 23 14 18 13 23 22 22 21 20 20 19 18 18 16 17 16 16 16 16 17
26 25 24 23 22 23 22 20 19 19 17 15 16 19 23 27 28 26 22 26 28 18 25 22 15 13 12 18 21 21 21 20 19 19 19 19 19 18 16 15 15 15 16 15
25 24 23 25 22 21 20 21 23 22 20 21 20 19 25 26 28 30 27 21 17 20 22 21 17 14 10 19 21 19 18 18 18 17 17 15 16 16 17 17 16 15 15 14
25 25 24 23 25 26 26 27 26 25 25 27 26 25 27 29 25 26 26 25 22 20 22 18 15 14 20 19 18 17 17 17 16 15 13 13 13 13 13 12 12 12 14 14
27 27 27 30 31 30 29 29 27 27 28 26 27 27 27 27 27 27 25 22 24 22 22 22 20 18 18 16 15 15 15 14 13 12 10 11 10 10 9 9 8 9 10 11
30 29 30 32 32 31 30 30 29 28 30 28 26 26 27 26 23 24 21 23 22 21 20 20 19 17 16 15 14 13 13 12 10 9 9 8 7 6 5 4 5 6 7 8

GFSNGP_sfc_temp_114.txt.gz
Temp
40 41 41 40 40 42 39 37 29 34 32 34 35 34 35 36 36 34 33 34 34 32 33 33 34 33 34 34 35 35 34 34 34 35 36 36 35 35 35 34 34 34 34 35
31 41 41 37 41 40 41 39 34 34 31 38 37 36 34 34 33 31 32 32 32 32 32 32 33 33 33 33 33 34 33 33 33 34 34 34 34 34 33 33 33 33 32 33
27 35 35 28 34 38 35 35 36 28 33 34 30 30 31 31 32 30 29 30 30 31 31 32 31 32 32 33 33 32 32 32 33 32 31 31 32 33 31 30 30 30 30 31
26 30 20 32 40 41 33 31 35 33 33 34 30 29 30 31 30 30 29 29 30 30 31 32 32 33 33 33 32 32 30 30 31 30 30 30 30 30 29 30 29 28 28 30
24 25 30 34 36 31 29 26 31 32 30 28 28 29 27 31 31 28 29 29 29 31 31 31 31 33 33 32 32 32 30 29 30 29 27 28 27 27 29 28 28 27 28 28
26 22 17 26 37 40 36 19 29 30 32 28 28 21 23 29 30 29 28 31 30 27 25 27 29 31 32 32 32 31 31 30 30 30 27 25 25 26 26 27 25 26 26 27
26 23 25 34 40 40 21 22 29 27 24 28 26 21 26 27 28 29 31 30 28 28 27 27 30 30 29 30 28 30 32 30 29 29 28 27 26 26 25 25 25 25 25 26
26 20 18 33 36 28 24 28 27 24 24 23 25 25 25 24 24 26 27 28 28 26 26 29 31 30 28 27 29 30 30 30 28 28 28 28 25 25 25 24 23 23 24 25
25 21 28 32 28 30 30 27 28 25 25 24 23 23 22 21 18 23 25 25 28 27 26 27 28 27 26 29 32 30 29 28 27 26 26 26 25 25 25 25 24 23 23 23
25 28 29 31 33 34 33 28 30 30 28 27 23 19 19 19 20 21 23 23 26 25 23 23 25 26 27 28 32 31 28 28 28 28 26 26 26 26 25 24 23 23 23 22
26 28 30 31 32 32 31 31 30 29 27 24 23 22 23 22 21 18 19 21 23 22 21 21 24 24 24 26 29 29 29 28 27 28 26 26 26 26 26 25 26 23 24 24
22 31 29 28 31 33 30 28 26 26 25 27 26 23 23 21 22 21 20 20 19 19 19 19 21 21 22 24 27 27 27 27 26 26 26 26 26 25 29 29 29 29 30 28
27 33 30 31 33 34 31 30 29 29 28 25 27 26 25 23 23 23 20 18 14 12 13 13 13 14 17 21 24 25 24 26 25 25 24 23 22 21 18 21 27 27 28 28
33 32 28 31 29 34 32 32 33 31 30 28 28 28 26 25 25 22 20 19 19 16 12 8 9 9 11 14 18 17 18 19 18 18 17 17 15 15 12 13 12 13 19 24
34 34 33 35 34 34 34 32 29 28 28 28 28 27 26 23 22 22 22 23 21 17 13 11 8 10 9 10 14 13 17 13 12 13 16 15 17 16 14 10 6 5 7 13
35 33 33 33 33 33 31 31 29 29 28 28 26 25 24 22 21 20 20 21 18 13 12 5 13 8 10 11 15 17 18 18 17 17 17 17 17 17 18 16 15 15 11 9
29 29 31 31 30 30 30 31 30 29 28 26 24 24 22 21 19 16 10 9 8 4 0 1 3 7 8 10 18 17 17 18 14 17 16 16 16 16 16 15 14 15 16 15
34 32 32 32 30 30 29 30 30 29 27 26 22 18 15 14 12 9 4 3 5 6 1 0 0 6 11 12 16 18 17 18 19 16 17 14 15 16 13 12 13 12 12 14
35 33 31 31 31 32 31 29 26 23 20 19 17 13 12 10 8 5 5 7 1 4 6 5 20 13 16 17 17 17 16 13 15 16 14 11 9 11 7 4 5 2 6 9
30 30 30 29 31 29 24 23 22 20 18 16 14 12 9 3 3 5 4 7 7 8 7 12 17 17 17 17 12 16 13 10 14 12 11 11 7 7 9 10 9 4 -5 -3
27 26 27 26 24 23 23 22 20 18 16 17 15 12 12 7 5 8 10 13 10 10 16 14 14 13 15 12 15 6 8 6 6 5 1 1 1 5 7 6 7 7 7 5
25 24 23 23 22 20 21 21 19 17 15 14 11 9 10 9 7 7 7 13 15 8 16 15 14 5 9 10 13 6 8 7 5 4 3 2 0 -1 -1 0 3 6 6 7
23 23 22 21 20 18 19 19 18 18 16 14 12 10 14 16 17 16 13 18 18 11 17 11 5 4 5 7 5 2 0 -0 -3 -4 -7 -9 -7 0 -1 -2 -2 1 4 5
22 22 21 20 19 19 17 17 19 17 15 15 12 11 18 16 13 19 17 11 7 11 10 6 5 4 1 0 -1 -2 -3 -6 -9 -12 -7 -8 -9 -8 -8 -11 -9 -7 -4 -1
23 21 20 20 21 20 20 21 20 19 19 21 21 20 22 23 16 14 13 11 13 11 6 4 4 -0 -4 -6 -4 -4 -9 -12 -14 -14 -14 -15 -16 -17 -19 -16 -14 -12 -9 -4
23 21 22 24 22 21 21 21 18 18 19 13 11 13 11 16 16 15 13 14 12 9 11 7 2 -4 -6 -4 -7 -8 -11 -10 -12 -13 -16 -18 -19 -19 -21 -17 -16 -14 -9 -8
24 23 23 23 23 23 22 21 18 16 14 14 15 7 13 12 15 15 11 10 7 5 4 2 -1 -4 -5 -7 -7 -12 -13 -15 -14 -14 -21 -22 -23 -25 -24 -24 -21 -20 -16 -14

GFSNGP_sfc_temp_117.txt.gz
Temp
34 36 35 33 36 38 37 35 29 32 31 36 35 35 34 34 33 33 33 32 32 31 32 33 33 33 33 34 33 34 33 33 32 33 33 34 34 33 32 32 33 33 33 34
29 37 39 34 40 40 40 40 38 35 32 38 37 36 33 32 32 31 31 31 31 31 32 32 32 31 32 32 31 32 31 31 32 32 31 31 31 30 31 30 30 31 31 32
27 33 33 28 33 40 34 34 34 28 33 35 31 31 31 30 31 27 29 29 30 31 31 31 31 32 31 31 33 32 31 31 30 28 28 28 29 29 28 28 28 27 28 29
26 28 21 30 38 39 33 32 33 32 33 34 29 29 29 29 29 27 27 29 30 30 31 31 32 33 33 33 31 31 30 29 30 28 26 26 25 25 25 25 25 25 26 27
22 24 28 31 33 30 31 28 31 31 29 29 28 28 26 31 29 27 25 26 27 29 29 26 28 30 33 31 31 31 29 28 28 28 25 24 22 22 23 24 24 24 26 27
25 20 17 24 37 40 35 21 30 29 28 26 26 17 22 29 28 25 25 29 27 24 22 25 28 29 29 29 29 29 28 28 28 28 25 23 22 21 22 22 23 25 25 27
25 22 24 32 38 39 19 23 28 29 28 27 22 20 26 29 26 28 29 26 27 26 25 26 29 29 26 26 25 29 30 29 28 27 26 24 24 24 23 22 23 23 24 26
27 21 17 34 37 28 25 26 26 22 24 28 25 26 26 27 27 28 26 26 26 24 24 27 27 28 26 25 25 27 28 28 26 26 27 26 24 24 24 24 23 24 23 24
27 23 29 31 28 28 29 27 23 22 25 26 25 24 25 22 21 22 24 24 26 24 24 25 26 26 25 27 30 29 28 25 25 25 26 25 24 22 23 23 23 23 22 22
26 27 28 29 31 30 30 27 25 25 25 25 22 23 19 20 19 18 19 20 23 23 22 23 25 26 26 27 29 29 28 27 28 26 26 26 26 25 22 23 23 23 21 20
26 28 30 30 29 29 28 29 28 28 26 23 21 20 21 20 18 18 15 20 22 22 22 21 23 23 23 26 28 29 28 27 26 26 25 24 25 24 24 23 25 22 21 20
24 31 29 29 29 31 28 28 28 25 24 25 24 22 22 19 20 20 18 19 18 19 19 19 20 20 21 24 27 26 26 25 24 24 23 24 23 21 26 27 28 28 28 25
29 33 30 30 31 33 29 28 27 27 26 24 24 24 23 21 21 22 19 15 12 10 11 12 13 14 15 20 24 24 22 24 22 22 21 19 18 17 13 17 25 26 26 26
31 31 28 29 28 32 29 29 31 28 27 27 26 26 25 23 23 21 18 18 17 14 12 9 9 10 10 12 16 13 13 15 15 14 12 11 7 8 5 6 1 7 16 22
31 33 31 32 34 32 30 29 27 26 26 26 27 26 25 23 21 20 21 22 21 17 12 10 10 7 6 5 11 11 15 11 7 5 6 9 11 10 13 12 12 10 7 12
32 31 31 30 31 29 29 27 26 26 26 26 26 25 24 23 21 20 20 20 17 13 12 5 11 4 5 8 11 14 13 14 13 14 13 13 14 14 14 12 12 11 12 13
27 27 28 28 29 29 28 29 29 28 27 26 24 23 22 20 18 15 11 12 7 1 1 2 2 1 6 11 16 15 14 15 12 16 14 14 13 13 13 11 10 10 8 6
31 32 32 32 30 28 28 30 30 28 26 25 21 17 14 13 11 8 6 2 2 4 1 1 0 6 10 11 16 17 15 16 17 15 16 12 12 14 11 10 11 9 8 8
32 30 29 31 30 30 29 28 27 24 21 19 17 14 10 11 10 7 2 4 4 7 8 4 19 13 15 17 16 16 14 12 13 13 12 8 8 10 8 7 7 6 5 7
29 30 30 30 31 30 26 24 22 20 19 17 14 12 9 6 8 7 4 8 8 8 7 11 16 16 16 15 13 14 11 8 11 8 5 5 0 -2 2 2 4 4 4 6
26 26 26 27 26 25 23 22 20 18 17 17 15 13 12 7 7 6 7 13 11 11 16 13 13 12 13 12 12 4 4 2 1 -1 -5 -8 -8 -5 -5 -5 -4 -2 1 4
24 25 24 24 23 22 22 22 20 18 18 17 15 14 11 9 7 7 7 15 16 10 15 14 12 4 9 9 9 2 4 2 -1 -3 -5 -7 -7 -10 -11 -11 -10 -6 -3 1
23 24 24 23 22 20 20 20 19 18 17 15 15 14 15 16 17 15 15 17 17 11 15 11 5 1 2 1 -2 -5 -5 -6 -8 -10 -12 -12 -15 -17 -17 -16 -14 -15 -11 -6
22 23 21 20 20 20 18 19 19 18 17 16 16 16 18 16 13 19 17 12 12 10 11 7 2 -0 -2 -4 -7 -7 -9 -14 -16 -17 -12 -16 -22 -22 -21 -24 -19 -17 -14 -11
21 21 21 21 21 21 20 20 19 19 19 20 19 19 20 21 15 13 14 10 12 11 6 0 -1 -3 -6 -8 -8 -11 -16 -18 -20 -20 -22 -23 -24 -26 -27 -26 -25 -24 -17 -19
23 22 23 24 23 21 21 20 19 19 20 17 16 15 13 16 15 13 11 10 11 8 7 -0 -3 -7 -8 -8 -12 -16 -17 -14 -18 -20 -23 -24 -25 -24 -27 -25 -26 -25 -24 -22
24 23 23 22 22 22 21 20 19 18 18 17 15 5 12 12 12 12 11 11 9 8 4 -2 -5 -7 -8 -11 -14 -17 -18 -19 -20 -21 -27 -27 -28 -30 -30 -30 -30 -28 -28 -27

GFSNGP_sfc_temp_120.txt.gz
Temp
34 35 36 34 34 35 34 35 29 32 32 36 38 36 32 31 31 32 31 31 30 31 32 32 33 31 33 31 31 31 31 30 29 31 31 31 31 30 31 30 30 31 31 33
29 35 36 32 34 33 34 34 33 34 32 38 38 35 31 30 30 29 29 31 31 32 32 31 32 32 31 31 31 31 30 29 29 29 29 28 28 28 27 27 28 29 29 30
26 31 29 28 33 34 34 34 35 31 35 34 31 31 30 30 31 29 30 30 30 30 30 31 31 31 31 30 31 31 30 30 29 28 27 26 26 25 24 24 25 27 28 28
27 28 21 30 34 37 35 34 34 33 33 33 32 31 30 32 29 27 28 29 29 29 30 30 30 32 31 31 31 30 29 28 28 27 26 25 24 22 22 22 22 24 26 27
24 24 28 29 32 28 28 29 31 31 31 29 28 29 27 32 29 24 24 29 28 29 27 26 27 29 30 30 30 29 28 27 27 26 23 23 21 20 21 21 22 23 26 25
25 18 15 24 33 37 34 23 30 31 29 27 28 23 19 27 27 25 24 26 25 24 25 26 27 29 28 27 28 27 26 26 27 27 24 22 21 21 22 15 21 23 23 25
24 22 24 31 36 38 21 24 32 32 30 28 22 21 23 25 23 25 26 25 26 25 23 25 27 26 22 24 24 26 28 28 27 26 26 24 22 21 21 19 21 21 21 22
26 21 16 34 35 28 27 27 28 27 29 24 26 27 25 23 26 24 24 24 24 23 23 25 26 28 24 21 22 26 26 27 25 25 26 25 21 22 22 23 21 19 19 19
26 22 26 30 29 29 29 26 23 24 26 26 25 24 25 24 22 20 20 23 25 23 24 24 24 24 23 26 29 29 27 24 25 26 25 24 22 20 21 22 21 19 18 17
25 25 27 29 30 29 29 27 25 27 27 27 24 20 18 19 19 14 17 21 22 22 22 22 24 26 26 27 28 29 27 26 26 25 24 24 24 24 22 21 20 19 17 16
25 27 29 30 30 28 26 26 25 26 26 24 22 20 21 19 17 16 14 17 21 21 21 21 22 23 23 25 27 28 26 26 24 24 24 22 21 22 22 22 23 20 18 17
26 32 30 28 29 29 26 25 25 24 23 25 24 21 20 18 20 19 16 17 17 19 19 19 20 20 21 24 27 26 24 23 22 22 21 21 20 19 25 26 26 26 26 23
29 33 30 30 30 30 27 26 27 26 25 22 23 22 21 20 19 21 17 15 11 10 11 12 12 13 15 21 24 22 21 22 20 20 19 17 16 15 11 16 22 24 24 24
31 31 28 29 28 30 28 28 29 26 26 25 24 24 23 22 21 19 17 16 16 13 10 7 11 8 8 12 15 11 12 13 11 11 10 9 2 2 0 3 1 6 14 20
31 31 31 30 30 29 29 26 25 24 24 24 25 24 23 22 20 18 20 21 19 15 12 12 12 6 5 8 10 6 7 4 4 6 6 5 7 7 6 6 6 7 8 12
30 30 30 29 28 27 26 26 25 25 25 25 24 24 23 22 20 19 19 19 17 13 12 9 12 4 4 5 7 9 9 12 11 11 11 11 10 10 11 10 10 8 9 9
27 26 28 27 27 27 26 27 27 26 26 25 24 23 22 19 18 15 12 12 9 6 2 8 4 2 5 6 13 12 12 14 11 14 12 12 11 11 11 10 9 9 8 4
31 31 31 31 28 27 27 28 28 27 25 24 21 18 15 14 12 8 6 5 6 6 3 1 2 4 6 7 12 14 13 15 15 13 13 9 11 11 8 7 7 5 5 7
31 30 30 30 30 29 29 28 28 25 21 19 17 15 14 11 9 6 2 8 7 8 6 4 18 12 14 14 15 14 12 10 11 10 10 5 3 5 3 2 2 1 3 4
28 29 30 29 30 29 26 24 22 21 20 18 13 12 10 8 7 3 4 8 8 8 8 12 15 16 15 13 11 12 9 6 9 6 1 1 -6 -8 -5 -3 -1 -3 -6 -1
24 24 24 26 24 25 24 22 20 18 18 18 16 13 12 9 8 7 9 12 9 10 15 13 14 13 13 11 9 2 2 -1 -2 -4 -8 -13 -13 -11 -14 -15 -13 -12 -9 -5
19 20 21 24 23 21 22 22 20 18 17 17 15 14 12 10 9 8 7 15 15 10 14 14 12 8 9 7 7 1 2 0 -4 -5 -10 -12 -17 -21 -22 -23 -20 -17 -16 -15
17 20 21 22 22 21 21 20 20 19 17 16 16 15 15 14 15 15 14 17 17 12 15 11 5 2 0 -1 -3 -7 -8 -10 -12 -13 -17 -21 -23 -25 -23 -24 -23 -23 -21 -15
19 21 20 21 21 20 19 19 20 19 18 18 18 17 17 16 16 20 18 15 13 13 10 5 2 -0 -2 -5 -8 -11 -14 -17 -19 -21 -19 -22 -28 -28 -27 -29 -24 -24 -23 -22
20 20 20 21 21 21 20 20 19 18 18 18 19 19 21 21 16 15 15 12 13 11 5 -0 -1 -4 -5 -9 -12 -14 -20 -21 -23 -24 -25 -26 -27 -28 -30 -30 -30 -29 -28 -26
22 22 23 24 23 22 21 20 18 18 18 17 17 15 16 16 16 14 13 12 10 6 1 -6 -6 -5 -8 -10 -14 -19 -16 -15 -22 -23 -26 -26 -28 -26 -30 -28 -31 -30 -30 -30
23 23 23 22 22 22 21 20 19 18 19 19 15 14 14 13 12 12 11 9 7 4 -1 -3 -3 -5 -7 -13 -15 -15 -17 -22 -23 -22 -29 -29 -30 -32 -33 -32 -33 -31 -31 -32

GFSNGP_sfc_temp_123.txt.gz
Temp
40 41 40 41 40 41 37 38 33 39 38 44 41 40 41 39 35 34 34 34 34 34 34 34 34 34 35 35 36 36 34 33 32 34 34 34 33 34 34 34 34 34 33 33
35 38 39 36 39 40 40 40 39 40 37 45 46 43 35 35 34 34 33 33 33 33 33 33 34 34 34 34 35 36 34 33 33 33 32 31 32 32 33 32 33 33 32 32
30 36 34 29 36 39 40 42 40 34 42 40 37 36 35 35 35 34 33 33 32 32 33 33 33 35 33 34 36 34 33 32 31 30 29 29 30 30 29 29 29 29 30 30
30 32 22 40 40 41 39 42 42 41 39 40 40 38 37 38 35 33 33 32 32 31 32 33 33 34 35 35 34 33 31 30 30 29 28 28 27 27 27 28 27 27 27 28
27 27 32 38 37 34 33 37 40 39 36 33 32 34 30 35 35 33 32 31 30 31 31 31 31 33 33 33 32 32 29 29 29 28 26 26 24 26 27 27 26 26 26 26
27 23 22 34 38 42 41 31 38 38 33 30 33 27 31 32 31 29 30 30 29 27 28 29 29 31 30 29 30 28 28 29 30 29 26 24 25 26 27 27 26 27 25 25
26 25 31 38 40 42 29 32 37 37 33 32 33 33 31 29 28 29 29 28 29 29 26 26 29 28 27 28 26 29 30 30 29 30 27 26 26 27 27 25 24 24 24 25
28 26 23 40 38 34 35 31 35 33 33 29 27 27 26 26 26 26 26 28 29 27 27 30 33 32 27 26 29 30 30 29 28 28 28 27 25 26 26 25 23 22 23 23
32 32 32 34 33 33 35 33 31 33 32 31 27 25 26 26 25 24 25 27 29 29 29 30 31 32 30 30 32 31 30 27 28 27 27 27 26 25 26 25 23 22 22 21
32 32 32 33 33 34 34 32 31 33 32 30 26 27 26 24 23 23 25 27 29 29 28 27 30 30 30 32 33 32 30 29 29 28 27 27 29 28 27 25 24 22 21 21
30 29 31 33 34 34 30 31 31 32 32 29 26 24 25 24 23 23 24 26 28 27 27 26 28 28 30 31 32 30 29 29 28 28 27 26 25 26 26 25 25 24 22 22
34 37 37 34 34 32 29 28 30 29 28 29 28 25 26 23 25 25 24 25 25 25 25 25 27 26 28 31 31 30 28 27 26 26 26 26 25 24 25 25 25 25 26 25
34 36 33 33 33 33 29 29 29 30 29 27 28 28 27 24 24 24 23 21 19 18 18 19 19 19 22 27 28 26 25 25 25 24 24 23 22 21 20 22 22 23 23 24
34 33 28 31 29 32 31 30 31 29 29 29 28 29 27 25 25 24 22 21 20 18 17 17 16 15 16 21 20 18 19 18 22 22 22 20 20 19 18 17 16 18 21 21
34 35 35 33 32 30 31 29 27 27 27 27 29 27 27 24 23 23 23 24 22 20 17 17 15 14 16 18 19 20 21 20 20 20 20 20 20 20 20 19 18 18 20 19
32 32 32 31 29 29 29 29 27 26 27 27 27 26 26 26 24 23 24 23 21 19 19 16 17 15 17 19 20 20 20 18 20 22 21 20 20 19 18 18 17 17 16 14
29 27 29 28 28 28 29 30 30 28 28 27 26 26 25 23 22 20 19 18 16 16 16 17 15 11 16 20 22 22 22 22 18 21 19 19 18 17 16 15 15 15 14 11
35 35 34 33 30 29 29 30 30 29 27 27 24 21 18 18 17 14 13 12 11 11 15 15 15 15 17 19 22 22 22 21 20 18 18 16 16 15 14 13 12 11 13 13
34 33 33 32 32 30 30 29 28 27 24 22 20 18 18 16 15 13 11 12 13 14 14 15 20 20 20 20 21 21 19 18 17 16 15 11 11 12 11 10 9 9 9 9
31 32 32 31 32 30 28 27 25 22 21 21 17 16 15 13 13 11 14 15 18 20 17 20 21 20 20 19 18 19 17 16 15 13 11 10 9 7 7 5 5 6 6 6
28 28 26 26 25 26 25 24 22 20 19 19 18 16 15 13 13 13 14 17 15 16 20 18 20 20 19 17 16 14 13 11 10 9 8 6 6 5 4 3 3 2 2 3
24 23 23 24 24 23 24 24 22 20 19 19 17 15 13 13 12 15 17 20 19 16 20 20 19 16 16 15 15 12 11 10 8 8 6 6 4 3 1 0 -1 -0 -0 0
22 23 23 22 22 23 23 22 21 21 19 18 16 16 17 18 18 18 17 20 21 18 20 18 13 9 9 12 11 9 8 7 6 4 3 2 1 -0 -1 -2 -2 -2 -3 -3
23 23 22 23 23 22 20 21 22 22 20 20 18 19 20 18 19 24 23 20 18 18 17 12 10 7 9 9 8 6 5 5 3 2 1 -5 -1 -2 -3 -5 -4 -4 -5 -6
24 23 23 22 23 24 23 22 21 20 20 20 20 21 22 24 22 21 21 20 17 16 14 7 6 5 9 7 7 5 4 3 2 2 0 -1 -2 -4 -4 -5 -7 -6 -6 -7
25 25 25 26 26 24 24 23 21 22 21 19 20 22 22 22 21 19 18 17 16 12 12 8 8 7 6 6 5 3 2 1 -0 -0 -2 -2 -4 -4 -7 -7 -8 -8 -8 -9
25 25 25 24 24 24 24 23 21 20 21 21 19 20 20 19 18 18 16 15 13 11 9 8 7 6 6 5 4 2 1 0 -3 -1 -3 -4 -5 -6 -8 -9 -9 -9 -9 -10